[[{"header":{"parameterUnit":"m.s-1","parameterCategory":1,"la1":30.6,"la2":28.766,"lo1":-90.7593,"lo2":-88.6598,"dy":0.0162,"dx":0.0183,"nx":116,"ny":114,"refTime":"2024-05-18T12:00:00:Z","depth":0,"parameterNumber":2,"parameterNumberName":"U-component_of_WINDS"},"data":[0.0,0.0,0.0,0.0,0.0,0.0,0.0,0.0,0.0,0.0,0.0,0.0,0.0,0.0,0.0,0.0,0.0,0.0,0.0,0.0,0.0,0.0,0.0,0.0,0.0,0.0,0.0,0.0,0.0,0.0,0.0,0.0,0.0,0.0,0.0,0.0,0.0,0.0,0.0,0.0,0.0,0.0,0.0,0.0,0.0,0.0,0.0,0.0,0.0,0.0,0.0,0.0,0.0,0.0,0.0,0.0,0.0,0.0,0.0,0.0,0.0,0.0,0.0,0.0,0.0,0.0,0.0,0.0,0.0,0.0,0.0,0.0,0.0,0.0,0.0,0.0,0.0,0.0,0.0,0.0,0.0,0.0,0.0,0.0,0.0,0.0,0.0,0.0,0.0,0.0,0.0,0.0,0.0,0.0,0.0,0.0,0.0,0.0,0.0,0.0,0.0,0.0,0.0,0.0,0.0,0.0,0.0,0.0,0.0,0.0,0.0,0.0,0.0,0.0,0.0,0.0,0.0,0.0,0.0,0.0,0.0,0.0,0.0,0.0,0.0,0.0,0.0,0.0,0.0,0.0,0.0,0.0,0.0,0.0,0.0,0.0,0.0,0.0,0.0,0.0,0.0,0.0,0.0,0.0,0.0,0.0,0.0,0.0,0.0,0.0,0.0,0.0,0.0,0.0,0.0,0.0,0.0,0.0,0.0,0.0,0.0,0.0,0.0,0.0,0.0,0.0,0.0,0.0,0.0,0.0,0.0,0.0,0.0,0.0,0.0,0.0,0.0,0.0,0.0,0.0,0.0,0.0,0.0,0.0,0.0,0.0,0.0,0.0,0.0,0.0,0.0,0.0,0.0,0.0,0.0,0.0,0.0,0.0,0.0,0.0,0.0,0.0,0.0,0.0,0.0,0.0,0.0,0.0,0.0,0.0,0.0,0.0,0.0,0.0,0.0,0.0,0.0,0.0,0.0,0.0,0.0,0.0,0.0,0.0,0.0,0.0,0.0,0.0,0.0,0.0,0.0,0.0,0.0,0.0,0.0,0.0,0.0,0.0,0.0,0.0,0.0,0.0,0.0,0.0,0.0,0.0,0.0,0.0,0.0,0.0,0.0,0.0,0.0,0.0,0.0,0.0,0.0,0.0,0.0,0.0,0.0,0.0,0.0,0.0,0.0,0.0,0.0,0.0,0.0,0.0,0.0,0.0,0.0,0.0,0.0,0.0,0.0,0.0,0.0,0.0,0.0,0.0,0.0,0.0,0.0,0.0,0.0,0.0,0.0,0.0,0.0,0.0,0.0,0.0,0.0,0.0,0.0,0.0,0.0,0.0,0.0,0.0,0.0,0.0,0.0,0.0,0.0,0.0,0.0,0.0,0.0,0.0,0.0,0.0,0.0,0.0,0.0,0.0,0.0,0.0,0.0,0.0,0.0,0.0,0.0,0.0,0.0,0.0,0.0,0.0,0.0,0.0,0.0,0.0,0.0,0.0,0.0,0.0,0.0,0.0,0.0,0.0,0.0,0.0,0.0,0.0,0.0,0.0,0.0,0.0,0.0,0.0,0.0,0.0,0.0,0.0,0.0,0.0,0.0,0.0,0.0,0.0,0.0,0.0,0.0,0.0,0.0,0.0,0.0,0.0,0.0,0.0,0.0,0.0,0.0,0.0,0.0,0.0,0.0,0.0,0.0,0.0,0.0,0.0,0.0,0.0,0.0,0.0,0.0,0.0,0.0,0.0,0.0,0.0,0.0,0.0,0.0,0.0,0.0,0.0,0.0,0.0,0.0,0.0,0.0,0.0,0.0,0.0,0.0,0.0,0.0,0.0,0.0,0.0,0.0,0.0,0.0,0.0,0.0,0.0,0.0,0.0,0.0,0.0,0.0,0.0,0.0,0.0,0.0,0.0,0.0,0.0,0.0,0.0,0.0,0.0,0.0,0.0,0.0,0.0,0.0,0.0,0.0,0.0,0.0,0.0,0.0,0.0,0.0,0.0,0.0,0.0,0.0,0.0,0.0,0.0,0.0,0.0,0.0,0.0,0.0,0.0,0.0,0.0,0.0,0.0,0.0,0.0,0.0,0.0,0.0,0.0,0.0,0.0,0.0,0.0,0.0,0.0,0.0,0.0,0.0,0.0,0.0,0.0,0.0,0.0,0.0,0.0,0.0,0.0,0.0,0.0,0.0,0.0,0.0,0.0,0.0,0.0,0.0,0.0,0.0,0.0,0.0,0.0,0.0,0.0,0.0,0.0,0.0,0.0,0.0,0.0,0.0,0.0,0.0,0.0,0.0,0.0,0.0,0.0,0.0,0.0,0.0,0.0,0.0,0.0,0.0,0.0,0.0,0.0,0.0,0.0,0.0,0.0,0.0,0.0,0.0,0.0,0.0,0.0,0.0,0.0,0.0,0.0,0.0,0.0,0.0,0.0,0.0,0.0,0.0,0.0,0.0,0.0,0.0,0.0,0.0,0.0,0.0,0.0,0.0,0.0,0.0,0.0,0.0,0.0,0.0,0.0,0.0,0.0,0.0,0.0,0.0,0.0,0.0,0.0,0.0,0.0,0.0,0.0,0.0,0.0,0.0,0.0,0.0,0.0,0.0,0.0,0.0,0.0,0.0,0.0,0.0,0.0,0.0,0.0,0.0,0.0,0.0,0.0,0.0,0.0,0.0,0.0,0.0,0.0,0.0,0.0,0.0,0.0,0.0,0.0,0.0,0.0,0.0,0.0,0.0,0.0,0.0,0.0,0.0,0.0,0.0,0.0,0.0,0.0,0.0,0.0,0.0,0.0,0.0,0.0,0.0,0.0,0.0,0.0,0.0,0.0,0.0,0.0,0.0,0.0,0.0,0.0,0.0,0.0,0.0,0.0,0.0,0.0,0.0,0.0,0.0,0.0,0.0,0.0,0.0,0.0,0.0,0.0,0.0,0.0,0.0,0.0,0.0,0.0,0.0,0.0,0.0,0.0,0.0,0.0,0.0,0.0,0.0,0.0,0.0,0.0,0.0,0.0,0.0,0.0,0.0,0.0,0.0,0.0,0.0,0.0,0.0,0.0,0.0,0.0,0.0,0.0,0.0,0.0,0.0,0.0,0.0,0.0,0.0,0.0,0.0,0.0,0.0,0.0,0.0,0.0,0.0,0.0,0.0,0.0,0.0,0.0,0.0,0.0,0.0,0.0,0.0,0.0,0.0,0.0,0.0,0.0,0.0,0.0,0.0,0.0,0.0,0.0,0.0,0.0,0.0,0.0,0.0,0.0,0.0,0.0,0.0,0.0,0.0,0.0,0.0,0.0,0.0,0.0,0.0,0.0,0.0,0.0,0.0,0.0,0.0,0.0,0.0,0.0,0.0,0.0,0.0,0.0,0.0,0.0,0.0,0.0,0.0,0.0,0.0,0.0,0.0,0.0,0.0,0.0,0.0,0.0,0.0,0.0,0.0,0.0,0.0,0.0,0.0,0.0,0.0,0.0,0.0,0.0,0.0,0.0,0.0,0.0,0.0,0.0,0.0,0.0,0.0,0.0,0.0,0.0,0.0,0.0,0.0,0.0,0.0,0.0,0.0,0.0,0.0,0.0,0.0,0.0,0.0,0.0,0.0,0.0,0.0,0.0,0.0,0.0,0.0,0.0,0.0,0.0,0.0,0.0,0.0,0.0,0.0,0.0,0.0,0.0,0.0,0.0,0.0,0.0,0.0,0.0,0.0,0.0,0.0,0.0,0.0,0.0,0.0,0.0,0.0,0.0,0.0,0.0,0.0,0.0,0.0,0.0,0.0,0.0,0.0,0.0,0.0,0.0,0.0,0.0,0.0,0.0,0.0,0.0,0.0,0.0,0.0,0.0,0.0,0.0,0.0,0.0,0.0,0.0,0.0,0.0,0.0,0.0,0.0,0.0,0.0,0.0,0.0,0.0,0.0,0.0,0.0,0.0,0.0,0.0,0.0,0.0,0.0,0.0,0.0,0.0,0.0,0.0,0.0,0.0,0.0,0.0,0.0,0.0,0.0,0.0,0.0,0.0,0.0,0.0,0.0,0.0,0.0,0.0,0.0,0.0,0.0,0.0,0.0,0.0,0.0,0.0,0.0,0.0,0.0,0.0,0.0,0.0,0.0,0.0,0.0,0.0,0.0,0.0,0.0,0.0,0.0,0.0,0.0,0.0,0.0,0.0,0.0,0.0,0.0,0.0,0.0,0.0,0.0,0.0,0.0,0.0,0.0,0.0,0.0,0.0,0.0,0.0,0.0,0.0,0.0,0.0,0.0,0.0,0.0,0.0,0.0,0.0,0.0,0.0,0.0,0.0,0.0,0.0,0.0,0.0,0.0,0.0,0.0,0.0,0.0,0.0,0.0,0.0,0.0,0.0,0.0,0.0,0.0,0.0,0.0,0.0,0.0,0.0,0.0,0.0,0.0,0.0,0.0,0.0,0.0,0.0,0.0,0.0,0.0,0.0,0.0,0.0,0.0,0.0,0.0,0.0,0.0,0.0,0.0,0.0,0.0,0.0,0.0,0.0,0.0,0.0,0.0,0.0,0.0,0.0,0.0,0.0,0.0,0.0,0.0,0.0,0.0,0.0,0.0,0.0,0.0,0.0,0.0,0.0,0.0,0.0,0.0,0.0,0.0,0.0,0.0,0.0,0.0,0.0,0.0,0.0,0.0,0.0,0.0,0.0,0.0,0.0,0.0,0.0,0.0,0.0,0.0,0.0,0.0,0.0,0.0,0.0,0.0,0.0,0.0,0.0,0.0,0.0,0.0,0.0,0.0,0.0,0.0,0.0,0.0,0.0,0.0,0.0,0.0,0.0,0.0,0.0,0.0,0.0,0.0,0.0,0.0,0.0,0.0,0.0,0.0,0.0,0.0,0.0,0.0,0.0,0.0,0.0,0.0,0.0,0.0,0.0,0.0,0.0,0.0,0.0,0.0,0.0,0.0,0.0,0.0,0.0,0.0,0.0,0.0,0.0,0.0,0.0,0.0,0.0,0.0,0.0,0.0,0.0,0.0,0.0,0.0,0.0,0.0,0.0,0.0,0.0,0.0,0.0,0.0,0.0,0.0,0.0,0.0,0.0,0.0,0.0,0.0,0.0,0.0,0.0,0.0,0.0,0.0,0.0,0.0,0.0,0.0,0.0,0.0,0.0,0.0,0.0,0.0,0.0,0.0,0.0,0.0,0.0,0.0,0.0,0.0,0.0,0.0,0.0,0.0,0.0,0.0,0.0,0.0,0.0,0.0,0.0,0.0,0.0,0.0,0.0,0.0,0.0,0.0,0.0,0.0,0.0,0.0,0.0,0.0,0.0,0.0,0.0,0.0,0.0,0.0,0.0,0.0,0.0,0.0,0.0,0.0,0.0,0.0,0.0,0.0,0.0,0.0,0.0,0.0,0.0,0.0,0.0,0.0,0.0,0.0,0.0,0.0,0.0,0.0,0.0,0.0,0.0,0.0,0.0,0.0,0.0,0.0,0.0,0.0,0.0,0.0,0.0,0.0,0.0,0.0,0.0,0.0,0.0,0.0,0.0,0.0,0.0,0.0,0.0,0.0,0.0,0.0,0.0,0.0,0.0,0.0,0.0,0.0,0.0,0.0,0.0,0.0,0.0,0.0,0.0,0.0,0.0,0.0,0.0,0.0,0.0,0.0,0.0,0.0,0.0,0.0,0.0,0.0,0.0,0.0,0.0,0.0,0.0,0.0,0.0,0.0,0.0,0.0,0.0,0.0,0.0,0.0,0.0,0.0,0.0,0.0,0.0,0.0,0.0,0.0,0.0,0.0,0.0,0.0,0.0,0.0,0.0,0.0,0.0,0.0,0.0,0.0,0.0,0.0,0.0,0.0,0.0,0.0,0.0,0.0,0.0,0.0,0.0,0.0,0.0,0.0,0.0,0.0,0.0,0.0,0.0,0.0,0.0,0.0,0.0,0.0,0.0,0.0,0.0,0.0,0.0,0.0,0.0,0.0,0.0,0.0,0.0,0.0,0.0,0.0,0.0,0.0,0.0,0.0,0.0,0.0,0.0,0.0,0.0,0.0,0.0,0.0,0.0,0.0,0.0,0.0,0.0,0.0,0.0,0.0,0.0,0.0,0.0,0.0,0.0,0.0,0.0,-1.2779,0.0,0.0,0.0,0.0,0.0,0.0,0.0,0.0,0.0,0.0,0.0,0.0,0.0,0.0,0.0,0.0,0.0,0.0,0.0,0.0,0.0,0.0,0.0,0.0,-0.6711,-0.6934,-0.6965,-0.6986,-0.6779,-0.6331,0.0,0.0,0.0,0.0,0.0,-0.6308,-0.6324,-0.6578,-0.7031,-0.7031,-0.7668,-0.8903,-0.93,-0.8806,-0.7603,0.0,0.0,0.0,0.0,0.0,0.0,0.0,0.0,0.0,0.0,0.0,0.0,0.0,0.0,0.0,0.0,0.0,0.0,0.0,0.0,0.0,0.0,0.0,0.0,0.0,0.0,0.0,0.0,0.0,0.0,0.0,0.0,0.0,0.0,0.0,0.0,0.0,0.0,0.0,0.0,0.0,0.0,0.0,0.0,0.0,0.0,0.0,0.0,0.0,0.0,0.0,0.0,0.0,0.0,0.0,0.0,0.0,0.0,0.0,0.0,0.0,0.0,0.0,0.0,0.0,0.0,0.0,0.0,0.0,0.0,0.0,-1.4579,0.0,0.0,0.0,0.0,0.0,0.0,0.0,0.0,0.0,0.0,0.0,0.0,0.0,0.0,0.0,0.0,0.0,0.0,0.0,0.0,0.0,-0.6451,-0.6602,-0.7337,-0.7821,-0.7803,-0.7828,-0.7753,-0.7589,-0.7601,0.0,0.0,0.0,-0.7654,-0.7617,-0.7675,-0.7772,-0.7928,-0.822,-0.9144,-1.0672,-1.2128,-1.1253,-0.8505,-0.8492,0.0,0.0,0.0,0.0,0.0,0.0,0.0,0.0,0.0,0.0,0.0,0.0,0.0,0.0,0.0,0.0,0.0,0.0,0.0,0.0,0.0,0.0,0.0,0.0,0.0,0.0,0.0,0.0,0.0,0.0,0.0,0.0,0.0,0.0,0.0,0.0,0.0,0.0,0.0,0.0,0.0,0.0,0.0,0.0,0.0,0.0,0.0,0.0,0.0,0.0,0.0,0.0,0.0,0.0,0.0,0.0,0.0,0.0,0.0,0.0,0.0,0.0,0.0,-1.8809,-1.851,-1.8403,-1.8403,-1.8809,-1.9401,-1.7743,-1.7138,-1.7248,-1.5928,0.0,0.0,0.0,0.0,0.0,0.0,0.0,0.0,0.0,0.0,0.0,0.0,0.0,0.0,0.0,0.0,0.0,0.0,0.0,-0.6673,-0.7374,-0.8216,-0.8706,-0.865,-0.8704,-0.8382,-0.7559,-0.7559,0.0,0.0,-0.7647,-0.7644,-0.7695,-0.7695,-0.8066,-0.8828,-1.029,-1.1496,-1.2452,-1.2691,-1.2544,-1.211,-1.2051,-1.2029,-1.1928,0.0,0.0,0.0,0.0,0.0,0.0,0.0,0.0,0.0,0.0,0.0,0.0,0.0,0.0,0.0,0.0,0.0,0.0,0.0,0.0,0.0,0.0,0.0,0.0,0.0,0.0,0.0,0.0,0.0,0.0,0.0,0.0,0.0,0.0,0.0,0.0,0.0,0.0,0.0,0.0,0.0,-1.2159,-1.2904,0.0,0.0,0.0,0.0,0.0,0.0,0.0,0.0,0.0,0.0,0.0,0.0,0.0,-1.6897,-1.6214,-1.9621,-2.0636,-1.9324,-2.094,-2.1363,-2.075,-2.075,-2.1143,-2.1775,-2.0486,0.0,-1.9343,-1.7385,0.0,0.0,0.0,0.0,0.0,0.0,0.0,0.0,0.0,0.0,0.0,0.0,0.0,0.0,0.0,0.0,0.0,0.0,0.0,0.0,0.0,-0.9034,-0.9514,-0.9479,-0.9888,-0.9768,-0.8904,-0.9334,-0.9427,-0.9007,-0.9038,-0.9073,-0.9107,-0.9138,-0.9569,-1.0408,-1.2121,-1.3408,-1.4252,-1.4262,-1.4771,-1.5698,-1.5189,-1.4102,-1.2615,-1.14,0.0,0.0,0.0,0.0,0.0,0.0,0.0,0.0,0.0,0.0,0.0,0.0,0.0,0.0,0.0,0.0,0.0,0.0,0.0,0.0,0.0,0.0,0.0,0.0,0.0,0.0,0.0,0.0,0.0,0.0,0.0,0.0,0.0,0.0,0.0,0.0,0.0,0.0,0.0,-1.1857,-1.31,-1.3881,-1.4376,-1.4362,0.0,0.0,0.0,0.0,0.0,0.0,0.0,0.0,0.0,-2.0289,-2.0328,-2.0114,-1.9672,-2.1417,-2.187,-2.0991,-2.1874,-2.2141,-2.182,-2.182,-2.1846,-2.1868,-2.1103,-2.0538,-2.0065,-1.9438,-1.7791,-1.5704,0.0,0.0,0.0,0.0,-1.4993,-1.5142,0.0,0.0,0.0,0.0,0.0,0.0,0.0,0.0,0.0,0.0,0.0,0.0,-0.9203,-0.9882,-1.0426,-1.0629,-1.0917,-1.0844,-1.0279,-1.0633,-1.0622,-1.0054,-1.0127,-1.0184,-1.0205,-1.0485,-1.1249,-1.2491,-1.3799,-1.4993,-1.6071,-1.6068,-1.6755,-1.7969,-1.732,-1.5798,-1.3663,-1.2827,-1.1807,-1.0681,0.0,0.0,0.0,0.0,0.0,0.0,0.0,0.0,0.0,0.0,0.0,0.0,0.0,0.0,0.0,0.0,0.0,0.0,0.0,0.0,0.0,0.0,0.0,0.0,0.0,0.0,0.0,0.0,0.0,0.0,0.0,0.0,0.0,0.0,0.0,0.0,0.0,-1.3105,-1.4517,-1.5337,-1.6316,-1.6741,0.0,0.0,0.0,0.0,0.0,0.0,-1.5089,-1.9687,-2.2294,-2.231,-2.2303,-2.2309,-2.231,-2.2296,-2.2296,-2.2296,-2.2296,-2.2296,-2.2296,-2.2296,-2.2106,-2.1749,-2.1245,-2.0813,-2.0484,-2.0623,-1.9311,-1.7282,-1.7945,-1.7408,-1.6368,-1.6981,-1.7219,-1.7369,0.0,0.0,0.0,0.0,0.0,0.0,0.0,0.0,0.0,0.0,0.0,-0.9219,-1.0038,-1.08,-1.1546,-1.2317,-1.1589,-1.1114,-1.1131,-1.0398,-1.0001,-1.0086,-1.0098,-1.0127,-1.0205,-1.1073,-1.2732,-1.52,-1.5291,-1.6191,-1.7871,-1.7871,-1.793,-1.8008,-1.7949,-1.74,-1.6448,-1.5495,-1.414,-1.2439,-1.0787,0.0,0.0,0.0,0.0,0.0,0.0,0.0,0.0,0.0,0.0,0.0,0.0,0.0,0.0,0.0,0.0,0.0,0.0,0.0,0.0,0.0,0.0,0.0,0.0,0.0,0.0,0.0,0.0,0.0,0.0,0.0,0.0,0.0,0.0,0.0,0.0,0.0,0.0,-1.7814,-1.93,0.0,0.0,0.0,0.0,-1.7973,-1.878,-1.9201,-1.9027,-2.1105,-2.2297,-2.23,-2.2296,-2.2304,-2.2296,-2.2296,-2.2296,-2.2296,-2.2296,-2.2296,-2.2296,-2.2296,-2.2282,-2.2209,-2.1369,-2.0991,-2.0894,-2.0115,-1.9292,-1.8678,-1.9333,-1.8789,-1.7699,-1.8341,-1.8612,-1.8702,0.0,0.0,0.0,0.0,0.0,-0.5164,-0.5833,-0.6649,-0.7379,-0.7937,-0.9469,-1.0623,-1.0937,-1.1621,-1.2194,-1.2466,-1.2148,-1.1738,-1.1229,-1.0904,-1.0543,-1.0129,-1.0149,-1.0449,-1.1022,-1.2413,-1.3884,-1.5394,-1.5967,-1.7126,-1.8828,-1.8262,-1.8594,-1.9648,-1.9082,-1.8652,-1.8279,-1.6827,-1.5482,-1.422,-1.2497,-1.1301,0.0,0.0,0.0,0.0,0.0,0.0,0.0,0.0,0.0,0.0,0.0,0.0,0.0,0.0,0.0,0.0,0.0,0.0,0.0,0.0,0.0,0.0,0.0,0.0,0.0,0.0,0.0,0.0,0.0,0.0,0.0,0.0,0.0,0.0,0.0,0.0,0.0,-1.9483,-2.0647,0.0,-2.0259,-2.0202,-2.016,-2.0099,-2.0292,-2.0658,-2.12,-2.1905,-2.2306,-2.2306,-2.2304,-2.2296,-2.2296,-2.2296,-2.2784,-2.3729,-2.4678,-2.4797,-2.4173,-2.4173,-2.3849,-2.3266,-2.2183,-2.1546,-2.1241,-2.0159,-1.9572,-1.9363,-1.9619,-1.9416,-1.9016,-1.9273,-1.9348,-1.9393,0.0,0.0,0.0,0.0,-0.4941,-0.5654,-0.6303,-0.7331,-0.8259,-0.8864,-1.0388,-1.1542,-1.1845,-1.2529,-1.3091,-1.3429,-1.2797,-1.2193,-1.1702,-1.1098,-1.055,-1.0111,-1.0449,-1.1176,-1.2323,-1.343,-1.473,-1.6205,-1.6814,-1.7999,-1.9685,-1.914,-1.9492,-2.0566,-2.0,-1.9746,-1.9668,-1.8515,-1.7141,-1.5659,-1.4186,-1.3295,-1.2584,0.0,0.0,0.0,0.0,0.0,0.0,0.0,0.0,0.0,0.0,0.0,0.0,0.0,0.0,0.0,0.0,0.0,0.0,0.0,0.0,0.0,0.0,0.0,0.0,0.0,0.0,0.0,0.0,0.0,0.0,0.0,0.0,0.0,0.0,0.0,-1.9748,-2.0813,-2.1932,-2.241,-2.1899,-2.1981,-2.2171,-2.2483,-2.2231,-2.2217,-2.2649,-2.2919,-2.2936,-2.2682,-2.2767,-2.297,-2.3277,-2.3122,-2.3782,-2.5252,-2.5879,-2.5829,-2.5188,-2.5035,-2.4558,-2.3786,-2.283,-2.2174,-2.1693,-2.059,-2.0135,-2.0124,-1.9806,-1.9708,-1.9708,-1.9708,-1.9708,-1.9738,0.0,0.0,0.0,-0.4324,-0.5471,-0.6343,-0.6459,-0.7859,-0.8931,-0.9032,-1.05,-1.1853,-1.2695,-1.3486,-1.432,-1.5215,-1.3534,-1.247,-1.2597,-1.0914,-0.9986,-1.0133,-1.1068,-1.2342,-1.3958,-1.4051,-1.5305,-1.7794,-1.7887,-1.881,-2.0507,-2.0564,-2.0605,-2.0605,-2.0605,-2.0605,-2.0605,-2.0605,-1.914,-1.6734,-1.5835,-1.5457,-1.5152,0.0,0.0,0.0,0.0,0.0,0.0,0.0,0.0,0.0,0.0,0.0,0.0,0.0,0.0,0.0,0.0,0.0,0.0,0.0,0.0,0.0,0.0,0.0,0.0,0.0,0.0,0.0,0.0,0.0,0.0,0.0,0.0,0.0,-1.8225,-2.0307,-2.1849,-2.1867,-2.3281,-2.411,-2.3761,-2.4106,-2.455,-2.5049,-2.4731,-2.4186,-2.346,-2.4118,-2.4169,-2.346,-2.3695,-2.4272,-2.517,-2.4763,-2.5269,-2.664,-2.5694,-2.5254,-2.5237,-2.478,-2.4274,-2.3753,-2.3327,-2.283,-2.2274,-2.1376,-2.103,-2.0961,-2.0113,-1.9768,-1.9735,-1.9768,-1.9768,-1.9872,0.0,0.0,-0.4007,-0.5143,-0.5873,-0.6756,-0.8081,-0.8642,-0.9138,-0.9794,-1.1338,-1.2459,-1.2695,-1.4038,-1.5013,-1.5277,-1.3696,-1.2709,-1.2741,-1.1097,-1.0397,-1.1011,-1.25,-1.3513,-1.3922,-1.5179,-1.6471,-1.7794,-1.8459,-1.9346,-2.043,-2.0506,-2.0537,-2.0537,-2.0585,-2.0605,-2.0605,-2.0605,-2.0195,-1.9394,-1.7888,-1.6911,-1.6131,0.0,0.0,0.0,0.0,0.0,0.0,0.0,0.0,0.0,0.0,0.0,0.0,0.0,0.0,0.0,0.0,0.0,0.0,0.0,0.0,0.0,0.0,0.0,0.0,0.0,0.0,0.0,0.0,0.0,0.0,0.0,0.0,-2.0784,-2.0784,-2.1877,-2.2887,-2.3474,-2.4456,-2.4933,-2.4592,-2.492,-2.5152,-2.5115,-2.4731,-2.4406,-2.4203,-2.4389,-2.4406,-2.4203,-2.4611,-2.478,-2.4678,-2.5642,-2.6031,-2.5913,-2.6167,-2.6285,-2.6285,-2.615,-2.5832,-2.5301,-2.4333,-2.3581,-2.2999,-2.1963,-2.168,-2.1934,-2.1691,-2.119,-2.0679,-2.1028,-2.1141,-2.1171,0.0,-0.3208,-0.4024,-0.5348,-0.6214,-0.7231,-0.8762,-0.9249,-0.9634,-1.0161,-1.1375,-1.2357,-1.2734,-1.3685,-1.4431,-1.4776,-1.3234,-1.2254,-1.2264,-1.1303,-1.1271,-1.2434,-1.3452,-1.4304,-1.4962,-1.5984,-1.7051,-1.8226,-1.8813,-1.9508,-2.0277,-2.04,-2.0468,-2.047,-2.0507,-2.0513,-2.0513,-2.0513,-2.0513,-2.0436,-1.9442,-1.8766,-1.8105,-1.5995,-1.5428,-1.5565,-1.4328,-1.4191,-1.4454,-1.3424,0.0,0.0,0.0,0.0,0.0,0.0,0.0,0.0,0.0,0.0,0.0,0.0,0.0,0.0,0.0,0.0,0.0,0.0,0.0,0.0,0.0,0.0,0.0,0.0,-2.1143,-2.2409,-2.2767,-2.3217,-2.3676,-2.4135,-2.4915,-2.546,-2.5601,-2.5845,-2.6086,-2.6255,-2.5731,-2.5286,-2.4982,-2.5252,-2.5286,-2.4966,-2.5541,-2.5693,-2.5422,-2.6268,-2.6471,-2.6065,-2.6488,-2.6691,-2.6691,-2.6691,-2.6315,-2.5635,-2.4919,-2.4193,-2.3422,-2.2766,-2.2639,0.0,0.0,0.0,0.0,0.0,-2.1874,-2.2134,0.0,-0.3051,-0.3958,-0.5273,-0.6536,-0.777,-0.8925,-0.9723,-1.0212,-1.0272,-1.1001,-1.1815,-1.2655,-1.2832,-1.3183,-1.3902,-1.2455,-1.1491,-1.1492,-1.1673,-1.2442,-1.3936,-1.4082,-1.4876,-1.6468,-1.657,-1.7324,-1.8797,-1.9057,-1.9477,-2.0076,-2.0263,-2.0342,-2.0342,-2.0374,-2.0381,-2.0381,-2.0387,-2.0408,-2.0412,-2.0453,-2.0537,-2.0332,-1.791,-1.746,-1.7926,-1.6284,-1.5708,-1.5561,-1.4452,0.0,0.0,0.0,0.0,0.0,0.0,0.0,0.0,0.0,0.0,0.0,0.0,0.0,0.0,0.0,0.0,0.0,0.0,0.0,0.0,0.0,0.0,0.0,0.0,-2.2685,-2.3529,-2.4226,-2.441,-2.4428,-2.4355,-2.5044,-2.5852,-2.6667,-2.6792,-2.7144,-2.7844,-2.7162,-2.6404,-2.5761,0.0,0.0,0.0,0.0,-2.6691,-2.6691,-2.6691,-2.6691,-2.6691,-2.6691,-2.6691,-2.6691,-2.6691,-2.6158,-2.5202,-2.5202,-2.4592,-2.3595,-2.3595,-2.3595,-2.3439,-2.1901,-2.1769,-2.2405,-2.2054,-2.2298,-2.2808,0.0,-0.3142,-0.4309,-0.5863,-0.7099,-0.8291,-0.9544,-0.9998,-1.02,-1.023,-1.0965,-1.157,-1.1754,-1.2402,-1.2908,-1.3105,-1.2126,-1.1493,0.0,0.0,-1.3655,-1.4,-1.4622,-1.5454,-1.6487,-1.703,-1.7795,-1.8797,-1.9387,-1.973,-1.9866,-1.995,-1.9997,-2.0001,-2.0176,-2.0233,-2.0258,-2.0351,-2.0408,-2.0391,-2.04,-2.0468,-2.0399,-1.9237,-1.8906,-1.8906,-1.7805,-1.7834,-1.8228,-1.7303,-1.6692,-1.6237,-1.5747,0.0,0.0,0.0,0.0,0.0,0.0,0.0,0.0,0.0,0.0,0.0,0.0,0.0,0.0,0.0,0.0,0.0,0.0,0.0,0.0,-2.2593,-2.3988,-2.4989,-2.5154,-2.5731,-2.5897,-2.5246,-2.5878,-2.6686,-2.7493,-2.7638,-2.7738,-2.788,-2.7162,-2.664,-2.6488,-2.6623,-2.6623,-2.6488,-2.6623,-2.6691,-2.6691,-2.6691,-2.6691,-2.6691,0.0,0.0,-2.6691,-2.6691,-2.6158,-2.5202,-2.5202,-2.4592,-2.3595,-2.3595,-2.3595,-2.3565,-2.3223,-2.3184,-2.3338,-2.3272,-2.331,-2.343,-0.2664,-0.3235,-0.4159,-0.5766,-0.6934,-0.8129,-0.9544,-0.9981,-1.0151,-1.0196,-1.0586,-1.101,-1.1444,-1.1501,-1.1699,-1.2167,-1.1773,0.0,0.0,-1.3316,-1.4197,-1.4633,-1.5422,-1.6234,-1.7083,-1.7798,-1.8526,-1.9308,-1.9635,-1.9688,-1.9509,-1.9739,-1.9788,-1.9651,-1.9898,-2.0048,-2.0104,-2.0171,-2.0486,-2.091,-2.0504,-2.0635,-2.0978,-2.0198,-1.992,-1.9883,-1.9385,-1.9441,-1.9682,-1.9255,-1.8589,-1.7904,-1.7629,-1.6641,-1.5449,0.0,0.0,0.0,0.0,0.0,0.0,0.0,0.0,0.0,0.0,0.0,0.0,0.0,0.0,-1.9557,0.0,0.0,-2.2795,-2.4006,-2.4879,-2.554,-2.5933,-2.6355,-2.6447,-2.6043,-2.6704,-2.7365,-2.775,-2.7854,-2.7897,-2.7897,-2.7162,-2.6691,-2.6691,-2.6691,-2.6691,-2.6691,-2.6691,-2.6691,-2.6691,-2.6691,-2.6691,-2.6691,-2.6691,-2.6691,-2.6691,-2.6691,-2.6158,-2.5202,-2.5202,-2.4592,-2.3595,-2.3595,-2.3595,-2.3595,-2.3595,-2.3595,-2.3595,-2.3595,-2.3595,-2.3595,-0.3246,-0.3617,-0.4275,-0.5671,-0.6784,-0.7971,-0.9387,-0.9882,-1.0117,-1.0191,-1.0204,-1.0466,-1.1163,-1.0621,-1.0488,-1.1185,-1.1401,0.0,0.0,-1.3547,-1.4466,-1.5497,-1.6151,-1.6968,-1.793,-1.847,-1.9085,-1.979,-1.9731,-1.9541,-1.9224,-1.9548,-1.9588,-1.9388,-1.9657,-1.9836,-1.9954,-1.9998,-2.0483,-2.12,-2.0565,-2.0721,-2.129,-2.0698,-2.049,-2.0543,-2.0492,-2.0337,-2.0154,-2.0146,-1.96,-1.8864,-1.8525,-1.786,-1.6987,-1.5866,-1.5155,0.0,0.0,0.0,0.0,0.0,0.0,0.0,0.0,0.0,-2.4207,-2.4193,-2.2609,-2.1428,-2.2143,-2.2795,-2.3712,-2.5154,-2.5521,-2.5907,-2.6722,-2.6969,-2.706,-2.706,-2.7493,-2.782,-2.791,-2.7905,-2.7869,-2.7797,-2.7115,-2.6691,-2.6691,-2.6691,-2.6691,-2.6691,-2.6691,-2.6691,-2.6691,-2.6691,-2.6691,-2.6691,-2.6691,-2.6691,-2.6691,-2.6607,-2.607,-2.5182,-2.4973,-2.441,-2.3595,-2.3595,-2.3595,-2.3595,-2.3595,-2.3595,-2.3595,-2.3595,-2.3595,-2.3595,0.0,-0.4691,-0.5555,-0.6215,-0.7356,-0.8508,-0.9456,-0.9894,-1.0119,-1.0195,-1.0191,-1.0243,-1.0324,-1.0254,-1.0248,-1.0344,-1.1112,0.0,-1.266,-1.3515,-1.4702,-1.6294,-1.6452,-1.7237,-1.8819,-1.8645,-1.8954,-1.979,-1.9492,-1.9324,-1.9297,-1.9324,-1.9331,-1.9324,-1.9523,-1.9701,-1.9824,-1.9958,-2.0173,-2.0423,-2.0339,-2.0359,-2.0449,-2.0351,-2.0355,-2.0429,-2.041,-1.991,-1.925,-1.9256,-1.8978,-1.8547,-1.7975,-1.6721,-1.5722,-1.7028,0.0,-1.4054,-1.546,-1.4562,-1.3479,-1.445,-1.2715,-1.2127,0.0,0.0,-2.4204,-2.4192,-2.3971,-2.3823,-2.3914,-2.4006,-2.4355,-2.5246,-2.5988,-2.6759,-2.7548,-2.8282,-2.873,-2.873,-2.8172,-2.7931,-2.8297,-2.8062,-2.7754,-2.7394,-2.6938,-2.6691,-2.6691,-2.6691,-2.6691,-2.6691,-2.6691,-2.6691,-2.6691,-2.6691,-2.6691,-2.6691,-2.6691,-2.6691,-2.6691,-2.6262,-2.5762,-2.5163,-2.4199,-2.3724,-2.3595,-2.3595,-2.3595,-2.3595,-2.3595,-2.3595,-2.3595,-2.3595,-2.3595,-2.3595,0.0,-0.5946,-0.6636,-0.7329,-0.7916,-0.8556,-0.9305,-0.9734,-1.0034,-1.019,-1.0194,-1.0209,-1.0194,-1.0234,-1.0253,-1.0253,-1.1074,-1.1908,-1.2654,-1.3512,-1.4524,-1.5682,-1.6676,-1.7526,-1.8222,-1.8902,-1.9439,-1.979,-1.9469,-1.9235,-1.9125,-1.9253,-1.9246,-1.9134,-1.9456,-1.9669,-1.9802,-1.9934,-2.0341,-2.0852,-2.0457,-2.0526,-2.0845,-2.046,-1.9993,-1.9599,-1.9623,-1.9405,0.0,0.0,-1.8251,-1.8085,-1.7779,-1.7212,-1.6692,-1.6845,-1.6422,0.0,-1.7045,-1.5764,-1.4709,-1.6845,-1.6323,-1.5991,-1.8682,-2.1835,-2.4201,-2.42,-2.419,-2.419,-2.419,-2.419,-2.4612,0.0,-2.6374,-2.7042,-2.8308,-2.8374,-2.8226,-2.8038,-2.7881,-2.7956,-2.8373,-2.8088,-2.7722,-2.7317,-2.6923,-2.6691,-2.6691,-2.7114,-2.7334,-2.7334,-2.7334,-2.7334,-2.7334,-2.6911,-2.6691,-2.6691,-2.6691,-2.6691,-2.6674,-2.6209,-2.554,-2.4708,-2.4346,-2.4171,-2.4201,-2.4612,-2.4515,-2.4156,-2.374,-2.3606,-2.3595,-2.3595,-2.3595,-2.3595,0.0,-0.7039,-0.7545,-0.8122,-0.8394,-0.8714,-0.9288,-0.9687,-0.9963,-1.0156,-1.0191,-1.0195,-1.0195,-1.0234,-1.0273,-1.0293,-1.0879,-1.1558,-1.2315,-1.3164,-1.4118,-1.5144,-1.659,-1.7468,-1.7699,-1.8845,-1.9439,-1.9439,-1.9351,-1.9238,-1.9094,-1.9219,-1.9243,-1.9174,-1.9471,-1.9701,-1.9863,-1.9968,-2.0351,-2.0895,-2.0405,-2.0503,-2.0862,-2.0152,-1.9523,-1.9025,-1.9071,-1.8782,0.0,0.0,-1.7117,-1.7066,-1.6762,-1.6824,-1.6974,-1.6754,-1.7466,-1.8274,-1.7919,-1.7126,-1.6686,-1.7874,-1.9409,-2.0652,-2.0644,-2.2483,-2.4192,-2.4209,-2.419,-2.419,-2.419,-2.419,-2.4722,-2.6337,-2.6602,-2.7152,-2.8767,-2.8319,-2.7793,-2.7761,-2.7785,-2.7933,-2.8244,-2.8034,-2.7695,-2.7178,-2.6857,-2.6793,-2.6996,-2.7503,-2.7908,-2.8111,-2.8128,-2.8128,-2.8128,-2.7604,-2.7215,-2.6996,-2.6996,-2.6894,-2.6691,-2.6247,-2.5545,-2.4673,-2.4609,-2.4605,-2.4649,-2.5113,-2.4918,-2.4283,-2.3799,-2.36,-2.3595,-2.3595,-2.3595,-2.3595,0.0,0.0,-0.8268,-0.8287,-0.8728,-0.9196,-0.953,-0.9775,-0.9941,-1.0096,-1.0159,-1.0208,-1.0206,-1.0207,-1.0231,-1.0293,-1.0312,-1.0682,-1.1483,-1.2296,-1.3482,-1.5135,-1.6052,-1.691,-1.768,-1.8241,-1.855,-1.855,-1.9059,-1.9297,-1.9289,-1.9297,-1.9394,-1.9576,-1.9582,-1.9744,-1.9984,-2.0007,-2.0026,-2.005,-2.0012,-2.0012,-1.9945,-1.9158,-1.8953,-1.9094,-1.9107,0.0,-1.6454,-1.5653,-1.5386,-1.5235,-1.4388,-1.4656,0.0,-1.7196,-1.8865,-1.9809,-1.7936,-1.875,-1.9356,-1.6138,-1.9709,-2.4045,-2.4052,-2.4135,-2.4199,-2.419,-2.419,-2.419,-2.419,-2.419,-2.4722,-2.6337,-2.6602,-2.7152,-2.8767,-2.8319,-2.8099,-2.8865,-2.8271,-2.7821,0.0,-2.7911,-2.756,-2.6791,-2.6708,-2.7012,-2.7722,-2.779,-2.8145,-2.8942,-2.8959,-2.8959,-2.8959,-2.8942,-2.8535,-2.7773,-2.7773,-2.7384,-2.6674,-2.6346,-2.5893,-2.5342,-2.4821,-2.4605,-2.4605,-2.4634,-2.4231,-2.3633,-2.3607,-2.36,-2.3595,-2.3595,-2.3595,-2.3595,0.0,0.0,0.0,-0.8807,-0.8982,-0.9199,-0.9499,-0.9625,-0.9772,-0.9936,-1.0061,0.0,0.0,0.0,0.0,0.0,-1.0231,-1.0586,-1.144,-1.1756,-1.2654,-1.433,-1.5197,-1.6019,-1.6891,-1.7424,-1.771,-1.771,-1.7713,-1.7704,-1.7704,-1.7704,-1.8091,-1.8814,-1.8907,-1.9325,-2.0017,-2.0148,-2.0069,-1.9823,-1.9378,-1.9121,-1.8984,-1.8848,-1.7854,-1.6593,0.0,0.0,-1.5542,-1.4129,-1.4001,-1.439,-1.4082,-1.4543,-1.5459,-1.6782,-1.8463,-2.0002,-2.0456,-2.1708,-2.2615,-2.1456,-2.2692,-2.4191,-2.4199,-2.419,-2.419,-2.419,-2.419,-2.419,-2.419,-2.419,-2.4722,-2.6337,-2.6602,-2.7152,-2.8767,-2.808,-2.7441,-2.753,-2.7251,0.0,0.0,0.0,0.0,-2.6758,-2.6691,-2.7012,-2.7756,-2.8315,-2.8941,-2.9702,-2.9736,-2.9736,-2.9736,-2.9247,-2.8857,-2.8586,-2.806,-2.7496,-2.6957,-2.6435,-2.6162,-2.6109,-2.5531,-2.5247,-2.5292,-2.5749,-2.554,-2.4918,-2.4931,-2.4393,-2.3615,-2.3604,-2.3595,-2.3595,0.0,0.0,0.0,0.0,0.0,0.0,0.0,0.0,0.0,0.0,0.0,0.0,0.0,0.0,0.0,0.0,0.0,-1.0445,-1.0996,-1.1339,-1.1974,-1.3057,-1.3878,-1.4562,-1.5127,-1.5712,-1.6172,-1.6484,-1.6558,-1.6744,-1.7046,-1.6995,-1.7343,-1.8008,-1.8103,-1.8506,-1.9144,-1.9308,-1.9222,-1.8935,-1.8507,-1.8255,-1.813,-1.7933,-1.6975,0.0,-1.533,-1.489,-1.4298,-1.2841,-1.3108,-1.3947,-1.3623,-1.4687,-1.6056,-1.6241,-1.8229,-2.0744,-2.2441,-2.3547,-2.4195,-2.4195,-2.4192,-2.419,-2.419,-2.419,-2.419,-2.419,-2.3905,-2.3758,-2.4135,-2.3969,-2.43,-2.5915,-2.641,-2.706,-2.8393,-2.7767,-2.7232,-2.7361,-2.696,-2.6573,0.0,0.0,0.0,-2.6758,-2.6945,-2.7435,-2.8197,-2.8975,-2.9719,-3.048,-3.0497,-3.0497,-3.0497,-3.0006,-2.9653,-2.9381,-2.8602,-2.8069,-2.7775,-2.7199,-2.7015,-2.7102,-2.6046,-2.5749,-2.5974,-2.6153,-2.5989,-2.5615,-2.5615,-2.4946,-2.394,-2.3694,-2.3604,-2.3592,0.0,0.0,0.0,0.0,0.0,0.0,0.0,0.0,0.0,0.0,0.0,0.0,0.0,0.0,0.0,0.0,0.0,0.0,-1.0206,-1.0974,0.0,-1.1502,-1.2229,-1.2651,-1.2705,-1.3312,-1.4046,-1.4874,-1.5498,-1.6226,-1.7039,-1.6911,-1.6969,-1.7188,-1.7188,-1.734,-1.7614,-1.7664,-1.7596,-1.7422,-1.7384,-1.7346,-1.7227,-1.6438,-1.6253,-1.6094,-1.3697,-1.2846,-1.2754,-1.1894,-1.2699,-1.3938,-1.3189,-1.5113,-1.7354,-1.5859,-1.8429,-2.2117,-2.374,-2.4204,-2.4192,-2.4201,-2.419,-2.419,-2.419,-2.419,-2.419,-2.4199,-2.34,-2.2978,0.0,0.0,-2.3566,-2.5081,-2.5996,-2.6819,-2.7703,-2.7471,-2.7509,0.0,0.0,0.0,0.0,0.0,0.0,-2.6843,0.0,-2.8162,-2.901,-2.9719,-3.0446,-3.1173,-3.119,-3.119,-3.119,-3.119,-3.0852,-3.0142,-2.945,-2.9077,-2.9041,-2.853,-2.8307,-2.8258,-2.6436,-2.6019,-2.6542,-2.5914,-2.5659,-2.5659,-2.5659,-2.5247,-2.4619,-2.3924,-2.3688,-2.371,0.0,0.0,0.0,0.0,0.0,0.0,0.0,0.0,0.0,0.0,0.0,0.0,0.0,0.0,0.0,0.0,0.0,0.0,-1.0205,-1.0404,0.0,0.0,-1.1705,-1.2085,-1.2688,-1.2776,-1.2909,-1.3147,-1.3206,-1.3357,-1.3564,-1.3534,-1.4269,-1.5597,-1.5597,-1.6369,-1.7687,-1.7689,-1.7248,-1.6476,-1.5872,-1.5251,-1.4711,-1.5141,-1.4631,-1.3774,-1.4345,-1.3781,-1.2622,-1.18,0.0,0.0,0.0,-1.787,-1.9435,-1.8707,-2.1028,-2.3888,-2.414,-2.4194,-2.4211,-2.419,-2.419,-2.419,-2.419,-2.419,-2.419,-2.4201,-2.398,-2.3502,0.0,0.0,0.0,-2.4448,-2.5005,0.0,-2.784,-2.7633,0.0,-2.8297,0.0,-2.7793,-2.8509,-2.8577,0.0,0.0,-2.8044,-2.8382,-2.9753,-3.0006,-3.0446,-3.1173,-3.119,-3.119,-3.119,-3.119,-3.1116,-3.0925,-3.0721,-3.0359,-2.9783,-2.8758,-2.86,-2.9035,-2.7162,-2.6437,-2.6572,-2.6408,-2.6348,-2.6348,-2.6348,-2.6243,-2.5959,-2.4995,-2.4822,-2.5126,0.0,0.0,0.0,0.0,0.0,0.0,0.0,0.0,0.0,0.0,0.0,0.0,0.0,0.0,0.0,0.0,0.0,0.0,0.0,-1.0194,-1.0427,-1.0916,-1.0929,-1.1141,-1.1596,-1.153,-1.1666,-1.2028,0.0,0.0,-1.2471,-1.2422,-1.2932,-1.3891,-1.3891,-1.4462,-1.5415,-1.5472,-1.5181,0.0,0.0,-1.3697,-1.3357,-1.4195,-1.4003,-1.3392,-1.4349,0.0,0.0,0.0,0.0,-1.6626,-1.8309,-1.9715,-2.0811,-2.1235,0.0,-2.4076,-2.4317,-2.4288,-2.419,-2.419,-2.419,-2.408,-2.3602,-2.2757,-2.2181,-2.2648,-2.2372,-2.1886,-2.1327,-2.2054,0.0,0.0,0.0,0.0,-2.6828,-2.7193,-2.758,0.0,-2.8032,0.0,-2.8925,-2.8993,-2.9128,0.0,-2.9058,-2.9176,-3.0057,-3.0412,-3.0768,-3.119,-3.119,-3.119,-3.119,-3.119,-3.1198,-3.121,-3.121,-3.0796,-3.0036,-2.9345,-2.9023,-2.8919,0.0,-2.6776,-2.7031,-2.6707,-2.6752,-2.6986,-2.6378,-2.6333,-2.6422,-2.4924,-2.4539,-2.487,0.0,0.0,0.0,0.0,0.0,0.0,0.0,0.0,0.0,0.0,0.0,0.0,0.0,0.0,0.0,0.0,0.0,0.0,0.0,0.0,0.0,-1.0207,-1.0215,-1.0201,-1.0195,-1.0192,-1.0541,-1.1235,0.0,0.0,0.0,0.0,0.0,0.0,-1.2347,-1.2423,-1.2528,-1.265,-1.2625,-1.2529,-1.2529,-1.2449,-1.2469,0.0,0.0,0.0,0.0,0.0,0.0,0.0,-1.7313,-1.8403,-1.9977,-2.1013,-2.1928,-2.3199,-2.3537,-2.3651,-2.4351,-2.4385,-2.419,-2.419,-2.419,-2.3923,-2.2841,-2.0898,-1.9561,-2.0496,-1.9948,-1.951,-2.022,-2.0182,-2.0377,-2.1385,0.0,-2.4951,-2.5477,-2.6481,-2.748,-2.8385,-2.8169,-2.8315,-2.9213,-2.9297,-2.9568,-3.0209,-3.026,-3.026,-3.026,-3.0852,-3.119,-3.119,-3.119,-3.119,-3.119,-3.119,-3.119,-3.119,-3.119,-3.0791,-2.999,-2.9885,-2.9347,-2.8432,-2.7255,0.0,-2.754,-2.6986,-2.7091,-2.748,-2.6318,-2.6213,-2.6503,-2.4762,-2.413,-2.4365,0.0,0.0,0.0,0.0,0.0,0.0,0.0,0.0,0.0,0.0,-0.9772,-0.9829,0.0,0.0,0.0,0.0,0.0,0.0,0.0,0.0,0.0,-1.0207,-1.0253,-1.0268,-1.0195,-1.019,-1.0236,0.0,0.0,0.0,0.0,0.0,0.0,0.0,0.0,0.0,-1.2661,-1.2695,-1.2276,-1.1639,-1.1639,-1.1194,-1.0712,0.0,0.0,0.0,0.0,0.0,0.0,-1.7212,-1.8556,-2.0031,-2.0985,-2.2361,-2.3578,-2.3408,-2.3917,-2.4497,-2.4316,-2.4236,-2.419,-2.419,-2.419,-2.3923,-2.2841,-2.0898,0.0,0.0,-1.9431,-1.9328,-1.9476,-1.7379,-1.7195,-2.2079,-2.3226,-2.4058,-2.5609,-2.6106,-2.6944,0.0,-2.8826,-2.9331,-3.0683,-3.0821,0.0,0.0,0.0,-3.1004,-3.1004,-3.1123,-3.119,-3.119,-3.119,-3.119,-3.119,-3.119,-3.119,-3.119,-3.119,-3.0791,-2.9974,-2.9321,-2.8816,-2.8463,-2.7739,0.0,-2.7585,-2.7465,-2.7495,-2.757,-2.7345,-2.733,-2.7385,-2.7031,-2.69,-2.6956,0.0,0.0,0.0,0.0,0.0,0.0,0.0,-0.9702,-0.9702,-0.9702,-0.9761,-0.9825,-0.9901,-0.9948,-1.0047,0.0,0.0,0.0,0.0,0.0,0.0,0.0,0.0,-1.0271,-1.0195,0.0,0.0,0.0,0.0,0.0,0.0,0.0,0.0,0.0,0.0,0.0,0.0,0.0,0.0,0.0,0.0,0.0,0.0,0.0,0.0,0.0,0.0,0.0,0.0,-1.6949,-1.8504,-2.0442,-2.1254,-2.2581,-2.3818,-2.3735,-2.4258,-2.4801,-2.4557,-2.4362,-2.419,-2.419,-2.419,-2.3859,-2.2483,0.0,0.0,0.0,-1.8974,-1.8679,-1.8676,-1.7756,0.0,-2.1088,-2.2085,-2.3147,-2.5154,-2.5458,0.0,-2.8425,-2.9059,-2.9727,0.0,-3.1268,0.0,0.0,0.0,-3.119,-3.119,-3.119,-3.119,-3.119,-3.119,-3.119,-3.119,-3.119,-3.119,-3.119,-3.119,-3.0666,-2.9648,-2.8637,-2.8124,-2.8033,-2.7735,0.0,-2.76,-2.76,-2.76,-2.757,-2.7225,-2.7285,-2.7525,-2.6811,-2.6991,-2.7495,0.0,0.0,0.0,0.0,0.0,0.0,0.0,-0.9702,-0.9702,-0.9702,-0.9761,-0.9828,-0.9884,-0.9921,-1.0017,0.0,0.0,0.0,0.0,0.0,0.0,0.0,0.0,0.0,0.0,0.0,0.0,0.0,0.0,0.0,0.0,0.0,0.0,0.0,0.0,0.0,0.0,0.0,0.0,0.0,0.0,0.0,0.0,0.0,0.0,0.0,0.0,0.0,0.0,0.0,-1.783,-1.9635,-2.0427,-2.1942,-2.3543,-2.4172,-2.4469,-2.4627,-2.4721,-2.4485,-2.419,-2.419,-2.419,-2.3768,-2.2161,-2.1339,0.0,-1.93,-1.8537,-1.8071,-1.8027,-1.8721,-1.9441,0.0,-2.1077,-2.2576,-2.4346,-2.4906,-2.5857,0.0,-2.9034,0.0,-3.0454,0.0,0.0,0.0,0.0,0.0,-3.119,-3.119,-3.119,-3.119,-3.119,-3.119,-3.119,-3.119,-3.119,-3.119,-3.119,-3.0567,-2.9357,-2.8151,-2.7604,-2.7605,-2.7605,0.0,0.0,-2.76,-2.76,-2.754,-2.7031,-2.7151,-2.747,-2.6426,-2.6698,-2.7455,0.0,0.0,0.0,0.0,0.0,0.0,0.0,-0.9702,-0.9702,-0.9702,-0.9761,-0.9828,-0.9884,-1.0018,-1.0114,0.0,0.0,0.0,0.0,0.0,0.0,0.0,0.0,0.0,0.0,0.0,0.0,0.0,0.0,0.0,0.0,0.0,0.0,0.0,0.0,0.0,0.0,0.0,0.0,0.0,0.0,0.0,0.0,0.0,0.0,0.0,0.0,0.0,0.0,0.0,0.0,-1.6984,-1.7795,-2.0277,-2.3186,-2.473,0.0,0.0,-2.4443,-2.441,-2.419,-2.419,-2.419,-2.3768,-2.2161,0.0,-2.039,-1.8577,-1.8151,-1.8027,-1.7778,-1.8585,-1.932,-1.9358,0.0,-2.2708,-2.3206,-2.4801,-2.614,-2.6772,0.0,0.0,0.0,0.0,0.0,0.0,0.0,0.0,-3.119,-3.119,-3.119,-3.119,-3.119,-3.119,-3.119,-3.119,-3.119,-3.119,-3.119,-3.056,-2.9365,-2.8158,-2.7589,-2.7603,-2.7585,0.0,0.0,-2.76,-2.76,-2.7585,-2.7525,-2.754,-2.7585,-2.7455,-2.7485,-2.7585,0.0,0.0,0.0,0.0,0.0,0.0,-0.9702,-0.9702,-0.9721,-0.9757,-0.9818,-0.9881,-0.996,-1.0048,-1.0135,-1.019,0.0,0.0,0.0,0.0,0.0,0.0,0.0,0.0,0.0,0.0,0.0,0.0,0.0,0.0,0.0,0.0,0.0,0.0,0.0,0.0,0.0,0.0,0.0,0.0,0.0,0.0,0.0,0.0,0.0,0.0,0.0,0.0,0.0,0.0,0.0,0.0,-1.6872,-1.8238,0.0,0.0,-2.2686,-2.3251,-2.3788,-2.4077,-2.419,-2.419,-2.419,-2.3768,-2.2161,-2.1339,-2.05,-1.9117,-1.8445,-1.8218,-1.8595,-1.8221,-1.8103,-1.8866,-1.9666,-2.0716,-2.2233,-2.3105,-2.4185,-2.5793,-2.8049,0.0,0.0,0.0,0.0,0.0,0.0,0.0,-3.119,-3.119,-3.119,-3.119,-3.119,-3.119,-3.119,-3.119,-3.119,-3.119,-3.119,-3.0434,-2.9052,-2.9534,-2.8967,-2.7599,-2.76,0.0,0.0,-2.76,-2.76,-2.76,-2.76,-2.76,-2.76,-2.76,-2.76,-2.7525,0.0,0.0,0.0,0.0,0.0,-0.9721,-0.9721,-0.9717,-0.9714,-0.9784,-0.9866,-0.9933,-1.0011,-1.009,-1.0157,-1.0203,-1.0169,0.0,0.0,0.0,0.0,0.0,0.0,0.0,0.0,0.0,0.0,0.0,0.0,0.0,0.0,0.0,0.0,0.0,0.0,0.0,0.0,0.0,0.0,0.0,0.0,0.0,0.0,0.0,0.0,0.0,0.0,0.0,0.0,0.0,0.0,0.0,0.0,-1.6676,-1.7738,0.0,-2.1299,-2.2564,-2.3372,-2.3923,-2.4284,-2.4284,-2.4247,-2.3777,-2.2162,-2.1082,-2.015,-1.9141,-1.8119,-1.7649,-1.8452,-1.7526,-1.7117,-1.8502,-1.861,-1.9253,-2.1372,-2.2086,-2.3077,0.0,0.0,0.0,0.0,0.0,0.0,0.0,0.0,0.0,-3.119,-3.119,-3.119,-3.119,-3.119,-3.119,-3.119,-3.119,-3.119,-3.119,-3.119,-3.0625,-2.951,-2.9935,-2.921,-2.761,-2.759,0.0,0.0,-2.76,-2.76,-2.76,-2.76,-2.76,-2.76,-2.76,-2.76,-2.7525,0.0,0.0,0.0,0.0,0.0,0.0,-0.9795,-0.9739,-0.9714,-0.9784,-0.9866,-0.9952,-1.0082,-1.0162,-1.0199,-1.0205,-1.0207,0.0,0.0,0.0,0.0,0.0,0.0,0.0,0.0,0.0,-1.0683,-1.1497,-1.1829,0.0,0.0,0.0,0.0,0.0,0.0,0.0,0.0,0.0,0.0,0.0,0.0,0.0,0.0,0.0,0.0,0.0,0.0,0.0,0.0,0.0,0.0,0.0,0.0,-1.5811,-1.7003,0.0,-2.0747,-2.1605,-2.3322,-2.4141,-2.4495,-2.4495,-2.4346,-2.3787,-2.2172,-2.0515,-1.9083,-1.8278,-1.6842,-1.5979,-1.6772,-1.6481,-1.6657,-1.8328,-1.8422,-1.891,-2.0661,-2.2282,0.0,0.0,0.0,0.0,0.0,0.0,0.0,0.0,0.0,0.0,-3.119,-3.119,-3.119,-3.119,-3.119,-3.119,-3.119,-3.119,-3.119,-3.119,-3.119,-3.1194,-3.1099,-2.8722,-2.7612,0.0,0.0,0.0,0.0,-2.76,-2.76,-2.76,-2.76,-2.76,-2.76,-2.76,-2.76,-2.76,0.0,0.0,0.0,0.0,0.0,0.0,0.0,-0.9793,-0.9784,-0.9804,-0.9816,-0.9914,-1.0136,-1.0183,-1.0199,-1.0205,-1.0193,0.0,0.0,0.0,0.0,0.0,0.0,0.0,0.0,0.0,-1.0801,-1.1835,-1.2731,-1.3639,-1.4516,-1.3273,0.0,0.0,0.0,0.0,0.0,0.0,0.0,0.0,0.0,0.0,0.0,0.0,0.0,0.0,0.0,0.0,0.0,0.0,0.0,0.0,0.0,0.0,0.0,-1.7292,-1.8978,-2.0371,-2.0325,-2.1136,-2.1835,-2.1235,-2.2102,-2.2584,-2.0546,-1.9103,-1.8189,-1.8105,-1.7253,-1.6486,-1.6365,-1.742,-1.84,-1.869,-1.929,0.0,0.0,0.0,0.0,0.0,0.0,0.0,0.0,0.0,0.0,0.0,0.0,0.0,-3.1173,-3.0717,-3.0683,-3.1173,-3.119,-3.119,-3.119,-3.119,-3.0925,-3.0385,-3.0949,-3.0624,-2.952,-2.8202,-2.759,0.0,0.0,0.0,0.0,-2.76,-2.76,-2.76,-2.76,-2.76,-2.76,-2.76,-2.76,-2.76,0.0,0.0,0.0,0.0,0.0,0.0,0.0,-0.9837,-0.9784,-0.9762,-0.98,-0.9923,-1.0139,-1.0182,-1.0205,-1.023,-1.0234,0.0,0.0,0.0,0.0,0.0,0.0,0.0,0.0,-1.0293,-1.0977,-1.2344,-1.3046,-1.4076,-1.5374,-1.3875,-1.3021,-1.2652,0.0,0.0,0.0,0.0,0.0,0.0,0.0,0.0,0.0,0.0,0.0,0.0,0.0,0.0,0.0,0.0,0.0,0.0,0.0,0.0,0.0,0.0,-1.7241,-1.8617,-1.8702,-1.9568,-2.0286,-1.9682,-2.0141,-2.0412,-1.9146,-1.7627,-1.6703,-1.7497,-1.6768,-1.6021,-1.6087,-1.7183,-1.8111,-1.8185,-1.9451,-2.0561,0.0,0.0,0.0,0.0,0.0,0.0,0.0,0.0,0.0,0.0,0.0,0.0,-3.0085,-3.0087,-3.0176,-3.0345,-3.0903,-3.119,-3.119,-3.0888,-3.0484,-2.9995,-2.9886,-2.9326,-2.8331,-2.7832,-2.7595,0.0,0.0,0.0,0.0,-2.76,-2.76,-2.76,-2.76,-2.76,-2.76,-2.76,-2.76,-2.76,0.0,0.0,0.0,0.0,0.0,0.0,0.0,-0.9885,-0.9781,-0.9712,-0.9832,-0.9967,-1.0088,-1.0178,-1.023,-1.0293,0.0,0.0,0.0,0.0,0.0,0.0,0.0,0.0,-1.0293,-1.043,-1.1289,-1.2891,-1.3105,-1.3982,-1.5471,-1.4653,-1.3785,-1.2846,-1.2035,0.0,0.0,0.0,0.0,0.0,0.0,0.0,0.0,0.0,0.0,0.0,0.0,0.0,0.0,0.0,0.0,0.0,0.0,0.0,0.0,0.0,0.0,0.0,0.0,-1.899,-1.9485,-1.9307,-1.8391,-1.761,-1.7869,-1.6183,0.0,-1.6508,-1.5576,-1.4836,-1.5948,-1.6146,-1.6436,-1.7367,-1.9173,-2.0725,0.0,-2.2317,0.0,0.0,0.0,0.0,0.0,0.0,0.0,0.0,0.0,0.0,-2.8373,-2.9323,-2.9651,-2.9027,-3.0292,-3.1016,-3.1067,-3.0369,-2.9969,-2.9884,-2.8392,-2.7674,-2.7581,-2.7605,-2.7595,0.0,0.0,0.0,0.0,-2.761,-2.76,-2.76,-2.76,-2.76,-2.76,-2.76,-2.76,-2.76,0.0,0.0,0.0,0.0,0.0,0.0,0.0,0.0,0.0,0.0,-0.9884,-1.0022,-1.0169,-1.0236,-1.0289,0.0,0.0,0.0,0.0,0.0,0.0,0.0,0.0,0.0,-1.0293,-1.1602,-1.248,-1.2891,-1.5059,-1.6189,-1.6325,-1.6767,-1.6168,-1.468,-1.4419,-1.3226,0.0,0.0,0.0,0.0,0.0,0.0,0.0,0.0,0.0,0.0,0.0,-1.4632,0.0,0.0,0.0,0.0,0.0,0.0,0.0,0.0,-1.5163,-1.5362,-1.5602,0.0,-1.6656,-1.6015,-1.6004,-1.6193,0.0,-1.5825,-1.5531,-1.5899,-1.5197,-1.4959,-1.645,-1.654,-1.7345,-2.0246,-2.096,-2.1534,-2.2609,0.0,0.0,0.0,0.0,0.0,0.0,0.0,0.0,0.0,0.0,-2.8844,-2.9321,-2.8723,-2.8534,-2.8993,-2.8944,-2.9148,-2.9672,-3.0042,-2.9756,-2.8849,-2.8639,-2.8196,-2.76,-2.7601,-2.7604,0.0,0.0,0.0,-2.7612,-2.7585,-2.76,-2.76,-2.76,-2.76,-2.76,-2.76,-2.76,-2.76,0.0,0.0,0.0,0.0,0.0,0.0,0.0,0.0,0.0,0.0,0.0,-1.0086,-1.019,-1.0232,0.0,0.0,0.0,0.0,0.0,0.0,0.0,0.0,0.0,-1.0234,-1.0293,-1.1581,-1.246,-1.2891,-1.4805,-1.6013,-1.6616,-1.7073,-1.6588,-1.5259,-1.4422,-1.3574,0.0,0.0,0.0,0.0,0.0,0.0,0.0,0.0,0.0,0.0,-1.3646,-1.4192,0.0,-1.5077,-1.5192,-1.5192,0.0,0.0,0.0,0.0,-1.5038,-1.4933,-1.4827,-1.5606,-1.6319,-1.583,-1.5987,-1.6255,-1.6255,-1.5673,-1.5142,-1.5142,0.0,0.0,-1.6183,-1.7146,0.0,0.0,-2.1498,0.0,0.0,0.0,0.0,0.0,0.0,0.0,0.0,0.0,0.0,0.0,0.0,-2.7755,-2.8302,-2.8114,-2.796,-2.7943,-2.7777,-2.8174,-2.9189,-2.9086,-2.8846,-2.8487,-2.8323,-2.7798,-2.7011,-2.7009,-2.6546,0.0,0.0,0.0,-2.7604,-2.7608,-2.7595,-2.76,-2.76,-2.76,-2.76,-2.76,-2.76,-2.76,0.0,0.0,0.0,0.0,0.0,0.0,0.0,0.0,0.0,0.0,0.0,0.0,0.0,0.0,0.0,0.0,0.0,0.0,0.0,0.0,0.0,0.0,0.0,-1.0287,-1.0488,-1.1285,-1.2145,-1.3086,-1.416,-1.5402,-1.6796,-1.7057,-1.6633,-1.5605,-1.3856,-1.3388,0.0,0.0,0.0,0.0,0.0,0.0,0.0,0.0,0.0,0.0,0.0,0.0,0.0,-1.4747,-1.5093,-1.5206,-1.5181,0.0,0.0,0.0,0.0,0.0,-1.4982,-1.6207,-1.7318,-1.6832,-1.6908,-1.7055,-1.6927,0.0,0.0,0.0,0.0,0.0,0.0,-1.7983,0.0,0.0,0.0,0.0,0.0,0.0,0.0,0.0,0.0,0.0,0.0,0.0,0.0,0.0,0.0,-2.6706,-2.6708,-2.7521,-2.7537,-2.6573,-2.6768,-2.7443,-2.86,-2.7873,-2.779,-2.8359,-2.7729,-2.7056,-2.634,-2.6186,-2.5263,-2.3865,0.0,0.0,-2.7025,-2.7434,-2.7608,-2.76,-2.76,-2.76,-2.76,-2.76,-2.76,-2.76,0.0,0.0,0.0,0.0,0.0,0.0,0.0,0.0,0.0,0.0,0.0,0.0,0.0,0.0,0.0,0.0,0.0,0.0,0.0,0.0,0.0,-1.0209,-1.019,-1.0545,-1.1303,-1.2162,-1.3038,-1.3913,-1.6195,-1.7414,-1.7648,-1.9062,-1.8899,-1.7332,-1.5599,-1.4502,-1.3981,0.0,0.0,0.0,0.0,0.0,0.0,0.0,0.0,0.0,0.0,0.0,0.0,-1.4049,-1.4595,-1.5187,-1.5072,0.0,0.0,0.0,0.0,0.0,-1.5413,-1.7239,-1.8463,-1.6396,-1.6903,-1.7741,-1.7055,-1.6707,0.0,0.0,0.0,0.0,0.0,-1.9376,-2.0008,0.0,0.0,0.0,0.0,0.0,0.0,0.0,0.0,0.0,0.0,0.0,0.0,0.0,0.0,-2.6691,-2.6691,-2.686,-2.6605,-2.5867,-2.588,-2.5934,-2.5973,-2.6996,-2.7579,-2.7735,-2.708,-2.6677,-2.6527,-2.561,-2.5055,-2.4754,0.0,-2.403,-2.4382,-2.6648,-2.7608,-2.76,-2.76,-2.76,-2.76,-2.76,-2.76,-2.76,0.0,0.0,0.0,0.0,0.0,0.0,0.0,0.0,0.0,0.0,0.0,0.0,0.0,0.0,0.0,0.0,0.0,0.0,0.0,0.0,0.0,-1.0829,-1.0845,-1.104,-1.1496,-1.3236,-1.4341,-1.4756,-1.6823,-1.8075,-1.8509,-1.8805,-1.8286,-1.7011,-1.5313,-1.4349,-1.396,-1.3504,0.0,0.0,0.0,0.0,0.0,0.0,0.0,0.0,0.0,0.0,0.0,0.0,-1.4865,-1.5171,-1.5045,0.0,0.0,0.0,0.0,0.0,-1.5088,-1.6877,-1.839,-1.727,-1.8555,-2.0005,-1.9638,-1.8849,0.0,0.0,0.0,0.0,0.0,0.0,-2.1963,-2.4455,0.0,0.0,0.0,0.0,0.0,0.0,0.0,0.0,0.0,0.0,0.0,0.0,0.0,0.0,-2.6691,-2.6691,-2.6572,-2.625,-2.5535,-2.5108,-2.5019,-2.5626,-2.6129,-2.6512,-2.6213,-2.5869,-2.551,-2.4994,-2.4582,-2.4229,0.0,-2.3592,-2.3806,-2.6499,-2.7592,-2.7604,-2.759,-2.76,-2.76,-2.76,-2.76,-2.76,0.0,0.0,0.0,0.0,0.0,0.0,0.0,0.0,0.0,0.0,0.0,0.0,0.0,0.0,0.0,0.0,0.0,0.0,0.0,0.0,-1.0449,-1.1062,-1.1485,-1.1912,-1.237,-1.4305,-1.5485,-1.5893,-1.7372,-1.8431,-1.9069,-1.8404,-1.7536,-1.6456,-1.4772,-1.3917,-1.3665,-1.2785,-1.2291,0.0,0.0,0.0,0.0,0.0,0.0,0.0,0.0,0.0,0.0,0.0,0.0,0.0,0.0,0.0,0.0,-1.4881,-1.4756,-1.4693,-1.4879,-1.635,-1.7851,-1.8052,-1.9803,-2.1555,-2.1757,-2.0656,-1.9646,0.0,0.0,0.0,0.0,-2.229,0.0,0.0,0.0,0.0,0.0,0.0,0.0,0.0,0.0,0.0,0.0,0.0,0.0,0.0,0.0,0.0,-2.6691,-2.6691,-2.6707,-2.6691,-2.5231,-2.4453,-2.4432,-2.44,-2.4769,-2.5615,-2.545,-2.5098,-2.4605,-2.444,-2.4081,-2.3595,-2.3595,-2.3599,-2.3746,-2.5825,-2.7015,-2.7616,-2.7604,-2.759,-2.76,-2.76,-2.76,-2.76,0.0,0.0,0.0,0.0,0.0,0.0,0.0,0.0,0.0,0.0,0.0,0.0,0.0,0.0,0.0,0.0,0.0,0.0,0.0,0.0,-1.0139,-1.0192,-1.1735,-1.3371,-1.4992,-1.5203,-1.6068,-1.7625,-1.8554,-1.9008,-1.9002,-1.9004,-1.8135,-1.6522,-1.4839,-1.3631,-1.2823,-1.1954,-1.1125,-1.0437,0.0,0.0,0.0,0.0,0.0,0.0,0.0,0.0,0.0,0.0,0.0,0.0,0.0,0.0,-1.4876,-1.4756,-1.4614,-1.4676,-1.5435,-1.6286,-1.7165,-1.7906,-1.9355,-2.0804,-2.1629,-2.1088,0.0,-2.1445,0.0,0.0,0.0,-2.3529,0.0,0.0,0.0,0.0,0.0,0.0,0.0,0.0,0.0,0.0,0.0,0.0,0.0,0.0,0.0,0.0,-2.6691,-2.6691,-2.6707,-2.6691,-2.4743,-2.3682,-2.3687,-2.3661,-2.4328,-2.56,-2.4963,-2.4649,-2.459,-2.3969,-2.3655,-2.3595,-2.3595,-2.3599,-2.3612,-2.3813,-2.5348,-2.7603,-2.7601,-2.7599,-2.76,-2.76,-2.76,-2.76,0.0,0.0,0.0,0.0,0.0,0.0,0.0,0.0,0.0,0.0,0.0,0.0,0.0,0.0,0.0,0.0,0.0,0.0,0.0,-1.0094,-1.0346,-1.0887,-1.2065,-1.3231,-1.4405,-1.5989,-1.7105,-1.7738,-1.8606,-1.8496,-1.7452,-1.7465,-1.6888,-1.5734,-1.4566,-1.3845,-1.3441,-1.2042,-1.1255,-1.0931,-1.0693,0.0,0.0,0.0,0.0,0.0,0.0,0.0,0.0,0.0,-1.2928,-1.3942,-1.4172,-1.4551,-1.4863,-1.4742,-1.4622,-1.4567,-1.486,-1.6273,-1.7722,-1.8016,-1.9711,0.0,0.0,-2.1932,-2.229,-2.3125,-2.33,0.0,0.0,0.0,0.0,0.0,0.0,0.0,0.0,0.0,0.0,0.0,0.0,0.0,0.0,0.0,0.0,0.0,0.0,0.0,-2.6691,-2.6691,-2.6707,-2.6691,-2.5333,-2.4273,-2.3611,-2.3607,-2.3849,-2.4358,-2.4103,-2.3984,-2.3984,-2.3714,-2.3595,-2.3595,-2.3595,-2.3604,-2.3614,-2.3592,-2.4701,-2.6451,-2.7263,-2.7616,-2.7599,-2.7615,-2.76,-2.76,0.0,0.0,0.0,0.0,0.0,0.0,0.0,0.0,0.0,0.0,0.0,0.0,0.0,0.0,0.0,0.0,0.0,0.0,-1.0094,-1.0094,-1.0365,-1.0964,-1.1812,-1.2543,-1.3094,-1.5618,-1.7045,-1.7314,-1.8164,-1.7872,-1.6506,-1.6502,-1.6205,-1.5629,-1.451,-1.4152,-1.4293,-1.2552,-1.1655,-1.1372,-1.1053,-1.0596,0.0,0.0,0.0,0.0,0.0,0.0,0.0,0.0,-1.2312,-1.3196,-1.3653,-1.4126,-1.4511,-1.4667,-1.4783,-1.4879,-1.4879,-1.6273,-1.7777,-1.8034,0.0,0.0,-2.1684,-2.2428,-2.3226,-2.4025,-2.419,-2.419,-2.419,0.0,0.0,0.0,0.0,0.0,0.0,0.0,0.0,0.0,0.0,0.0,0.0,0.0,0.0,0.0,0.0,0.0,0.0,-2.6691,-2.6691,-2.6701,-2.603,-2.5115,-2.396,-2.3947,-2.3839,-2.3595,-2.3773,-2.3752,-2.3595,-2.3595,-2.3595,-2.3595,-2.3595,-2.3595,-2.3588,-2.36,-2.4395,-2.5735,-2.7076,-2.7601,-2.761,-2.7595,-2.76,-2.76,0.0,0.0,0.0,0.0,0.0,0.0,0.0,0.0,0.0,0.0,0.0,0.0,0.0,0.0,0.0,0.0,0.0,0.0,-1.0096,-1.0096,-1.0096,-1.0094,-1.0925,-1.1408,-1.1389,-1.3868,-1.5599,-1.6487,-1.7295,-1.7257,-1.6487,-1.6482,-1.6493,-1.6418,-1.4759,-1.4505,-1.5181,-1.3446,-1.2219,-1.1504,-1.2353,-1.1678,0.0,0.0,0.0,0.0,0.0,0.0,0.0,0.0,-1.1389,-1.1683,-1.3287,-1.3702,-1.3752,-1.4489,-1.5171,-1.5698,-1.5698,-1.6291,-1.7092,-1.7906,0.0,0.0,-2.1427,-2.2428,-2.3226,-2.4025,-2.419,-2.419,-2.419,0.0,0.0,0.0,0.0,0.0,0.0,0.0,0.0,0.0,0.0,0.0,0.0,0.0,0.0,0.0,0.0,0.0,0.0,-2.6691,-2.6691,-2.6691,-2.6701,-2.6065,-2.4713,-2.4692,-2.4307,-2.3595,-2.4137,-2.4116,-2.3595,-2.3595,-2.3595,-2.3595,-2.3595,-2.3595,-2.3595,-2.3595,-2.4378,-2.5705,-2.7064,-2.76,-2.761,-2.7595,-2.76,-2.76,0.0,0.0,0.0,0.0,0.0,0.0,0.0,0.0,0.0,0.0,0.0,0.0,0.0,0.0,0.0,0.0,0.0,0.0,-1.0172,-1.017,-1.0156,-1.0096,-1.0925,-1.1118,-1.05,-1.1821,-1.3533,-1.5596,-1.5827,-1.55,-1.467,-1.5292,-1.5592,-1.5592,-1.5705,-1.5551,-1.5168,-1.4024,-1.3395,-1.3132,-1.2813,-1.2392,0.0,0.0,0.0,0.0,0.0,0.0,0.0,0.0,0.0,0.0,-1.2572,0.0,-1.4475,-1.4657,-1.5171,-1.5698,-1.5698,-1.6702,0.0,-1.8739,0.0,0.0,0.0,-2.2822,0.0,0.0,-2.419,-2.419,-2.419,0.0,0.0,0.0,0.0,0.0,0.0,0.0,0.0,0.0,0.0,0.0,0.0,0.0,0.0,0.0,0.0,0.0,0.0,-2.6691,-2.6691,-2.6691,-2.6701,-2.6184,-2.5067,-2.4302,-2.3813,-2.3595,-2.3752,-2.3752,-2.3616,-2.3991,-2.3964,-2.3595,-2.3595,-2.3595,-2.3595,-2.3595,-2.3833,-2.4341,-2.5673,-2.6777,-2.7592,-2.761,-2.76,-2.76,0.0,0.0,0.0,0.0,0.0,0.0,0.0,0.0,0.0,0.0,0.0,0.0,0.0,0.0,0.0,0.0,0.0,0.0,0.0,-1.0198,-1.018,-1.0149,-1.0629,-1.081,-1.0615,-1.1125,-1.2153,-1.3682,-1.4032,-1.4097,-1.3918,-1.4461,-1.5078,-1.5712,-1.5907,-1.5692,-1.5173,-1.4632,-1.4036,-1.3442,-1.3618,-1.3296,-1.2644,0.0,0.0,0.0,0.0,0.0,0.0,0.0,0.0,0.0,-1.1711,0.0,-1.3509,-1.4364,-1.5126,-1.5919,-1.6873,-1.8078,0.0,-2.0482,-2.1887,-2.3079,-2.3391,0.0,0.0,0.0,0.0,-2.419,-2.419,-2.419,0.0,0.0,0.0,0.0,0.0,0.0,0.0,0.0,0.0,0.0,0.0,0.0,0.0,0.0,0.0,0.0,0.0,-2.6691,-2.6691,-2.6691,-2.6689,-2.6231,-2.5221,-2.4766,-2.4228,-2.3595,-2.4032,-2.4012,-2.3616,-2.3927,-2.3921,-2.3595,-2.3595,-2.3595,-2.3595,-2.3595,-2.3595,-2.3714,-2.4912,-2.6266,-2.7572,-2.7303,-2.7375,-2.76,0.0,0.0,0.0,0.0,0.0,0.0,0.0,0.0,0.0,0.0,-1.0196,0.0,0.0,0.0,0.0,0.0,0.0,0.0,0.0,0.0,-1.0194,-1.0191,-1.0145,-1.0462,-1.1254,-1.1297,-1.1298,-1.1271,-1.2143,-1.2993,-1.3791,-1.3937,-1.4859,-1.6349,-1.5558,-1.5154,-1.5077,-1.5,-1.408,-1.2834,-1.4368,-1.406,-1.27,-1.2603,0.0,0.0,0.0,0.0,0.0,0.0,0.0,0.0,-1.0898,-1.1161,-1.1637,-1.3774,-1.5019,-1.6212,-1.8544,-1.9785,0.0,-2.2566,-2.3061,0.0,-2.4025,-2.419,-2.419,-2.419,0.0,-2.419,-2.419,0.0,0.0,0.0,0.0,0.0,0.0,0.0,0.0,0.0,0.0,0.0,0.0,0.0,0.0,0.0,0.0,0.0,0.0,-2.6691,-2.6691,-2.6691,-2.6691,-2.6262,-2.5346,-2.5707,-2.5186,-2.3803,-2.4652,-2.4572,-2.3681,-2.3681,-2.3638,-2.3595,-2.3595,-2.3595,-2.3595,-2.3595,-2.3595,-2.367,-2.4545,-2.5917,-2.7348,-2.6811,-2.7031,-2.76,0.0,0.0,0.0,0.0,0.0,0.0,0.0,0.0,0.0,0.0,0.0,0.0,0.0,0.0,0.0,0.0,0.0,0.0,0.0,0.0,-1.0197,-1.0193,-1.0145,-1.0192,-1.0385,-1.0428,-1.0433,-1.0379,-1.1253,-1.2111,-1.2979,-1.3666,-1.4531,-1.5462,-1.5288,-1.4824,-1.4132,-1.3503,-1.3027,-1.2721,-1.3084,-1.3017,-1.2636,-1.1931,-1.1568,0.0,0.0,0.0,0.0,0.0,0.0,0.0,-1.095,-1.1571,-1.2244,-1.3328,-1.4617,-1.6084,-1.7876,-1.8941,0.0,0.0,-2.3465,-2.3988,-2.4153,-2.419,-2.419,-2.419,-2.419,0.0,0.0,0.0,0.0,0.0,0.0,0.0,0.0,0.0,0.0,0.0,0.0,0.0,0.0,0.0,0.0,0.0,0.0,0.0,-2.6691,-2.6691,-2.6691,-2.6691,-2.6691,-2.6605,-2.6376,-2.5438,-2.5067,0.0,-2.4359,-2.4032,-2.4241,-2.4241,-2.3991,-2.3595,-2.3595,-2.3595,-2.3595,-2.3595,-2.3595,-2.3618,-2.3815,-2.4782,-2.6079,-2.6456,-2.7031,-2.76,0.0,0.0,0.0,0.0,0.0,0.0,0.0,0.0,0.0,0.0,0.0,0.0,0.0,0.0,0.0,0.0,0.0,0.0,0.0,-1.0214,-1.0195,-1.0141,-1.0111,-1.0094,-1.0094,-1.0124,-1.0156,-1.0154,-1.0597,-1.1475,-1.2719,-1.3612,-1.4487,-1.5228,-1.4804,-1.413,-1.331,-1.2873,-1.2449,-1.2103,-1.2529,-1.2707,-1.2609,-1.1734,-1.141,-1.1294,-1.0419,0.0,0.0,0.0,0.0,0.0,0.0,0.0,-1.1377,-1.25,-1.3642,-1.5074,-1.7454,0.0,0.0,-2.296,0.0,-2.419,-2.419,-2.419,-2.419,-2.419,0.0,0.0,0.0,0.0,0.0,0.0,0.0,0.0,0.0,0.0,0.0,0.0,0.0,0.0,0.0,0.0,0.0,0.0,0.0,-2.6335,-2.6674,-2.6691,-2.6691,-2.6691,-2.6691,-2.669,-2.6708,-2.5793,-2.5233,-2.5069,-2.4599,-2.4369,-2.4389,-2.4137,-2.3858,-2.3595,-2.3595,-2.3595,-2.3595,-2.3595,-2.3595,-2.3588,-2.3599,-2.4417,-2.5659,-2.6234,-2.6939,-2.76,0.0,0.0,0.0,0.0,0.0,0.0,0.0,0.0,0.0,0.0,0.0,0.0,0.0,0.0,0.0,0.0,0.0,0.0,0.0,-1.0238,-1.0167,-1.01,-1.0094,-1.0094,-1.0094,-1.0094,-1.0138,-1.018,-1.0351,-1.1289,-1.2965,-1.358,-1.4387,-1.5261,-1.4382,-1.3524,-1.2683,-1.2543,-1.198,-1.1235,-1.1968,-1.2245,-1.217,-1.1434,-1.117,-1.1083,-1.0347,-1.0084,-1.0094,-1.0094,0.0,0.0,0.0,0.0,-1.0176,-1.1598,-1.2516,-1.3734,-1.6683,0.0,-2.1061,-2.3419,-2.4098,0.0,-2.419,-2.419,-2.419,0.0,0.0,0.0,0.0,0.0,0.0,0.0,0.0,0.0,0.0,0.0,0.0,0.0,0.0,0.0,0.0,0.0,0.0,0.0,0.0,-2.5742,-2.6471,-2.6505,-2.6556,-2.6691,-2.6691,-2.6707,-2.6714,-2.6303,-2.5626,-2.4692,-2.495,-2.4792,-2.4246,-2.3794,-2.3595,-2.3595,-2.3595,-2.3595,-2.3595,-2.3595,-2.3595,-2.3595,-2.3595,-2.4418,-2.5668,-2.6141,-2.6847,-2.76,0.0,0.0,0.0,0.0,0.0,0.0,0.0,0.0,0.0,0.0,-1.0108,-1.0136,-1.0185,-1.0208,0.0,0.0,0.0,0.0,-1.0293,0.0,0.0,-1.01,-1.0094,-1.0094,-1.0094,-1.0094,-1.0098,-1.0106,-1.0926,-1.221,-1.3891,-1.3277,-1.3818,-1.5263,-1.4382,-1.3522,-1.2649,-1.1958,-1.1119,-1.0288,-1.0404,-1.044,-1.0432,-1.0247,-1.0226,-1.0259,-1.0075,-1.0058,-1.0094,-1.0094,-1.0094,0.0,0.0,0.0,0.0,-1.0971,-1.1721,-1.2664,0.0,0.0,-2.0933,0.0,-2.3676,-2.419,0.0,0.0,0.0,0.0,0.0,0.0,0.0,0.0,0.0,0.0,0.0,0.0,0.0,0.0,0.0,0.0,0.0,0.0,0.0,0.0,0.0,0.0,-2.468,-2.4972,-2.5707,-2.5748,-2.6034,-2.6674,-2.6691,-2.6691,-2.6708,-2.6649,-2.633,-2.5779,-2.493,-2.4241,-2.3702,-2.3638,-2.3595,-2.3595,-2.3595,-2.3595,-2.3595,-2.3595,-2.3595,-2.3595,-2.3595,-2.4418,-2.5668,-2.6141,-2.6847,-2.76,0.0,0.0,0.0,0.0,0.0,0.0,0.0,0.0,0.0,0.0,0.0,-1.0103,-1.0148,-1.0179,0.0,0.0,0.0,0.0,-1.0232,-1.0214,0.0,0.0,-1.0111,-1.0094,-1.0094,-1.0094,-1.0094,-1.0094,-1.0544,-1.1897,-1.4032,-1.3687,-1.4685,-1.6691,-1.5366,-1.4542,-1.4046,-1.2253,-1.1242,-1.0791,-1.0308,-1.0686,-1.1443,-1.044,-1.0682,-1.1422,-1.046,-1.0102,-1.0119,-1.0131,-1.0121,-1.009,-1.0061,0.0,0.0,0.0,-1.0862,0.0,-1.5038,-1.7465,-1.9777,0.0,-2.3263,-2.3657,-2.4098,0.0,0.0,0.0,0.0,0.0,0.0,0.0,0.0,0.0,0.0,0.0,0.0,0.0,0.0,0.0,0.0,0.0,0.0,0.0,0.0,0.0,-2.3877,-2.4211,-2.4936,-2.4984,-2.5255,-2.584,-2.5606,-2.5459,-2.5463,-2.5578,-2.5609,-2.554,-2.4471,-2.3991,-2.4032,-2.3745,-2.3595,-2.3595,-2.3595,-2.3595,-2.3595,-2.3595,-2.3595,-2.3595,-2.3595,-2.459,-2.6019,-2.621,-2.6847,-2.76,0.0,0.0,0.0,0.0,0.0,0.0,0.0,0.0,0.0,0.0,0.0,0.0,-1.0091,0.0,0.0,0.0,0.0,0.0,-1.0208,0.0,0.0,0.0,0.0,-1.0094,-1.0094,-1.0094,-1.0094,-1.0094,-1.0156,-1.1596,-1.4322,-1.4373,-1.5877,-1.8451,-1.6809,-1.5659,-1.4849,-1.2963,-1.1983,-1.1682,-1.1042,-1.1547,-1.2603,-1.1736,-1.2197,-1.3117,-1.1435,-1.0808,-1.0696,-1.0312,-1.0136,-1.0084,-0.9992,0.0,0.0,0.0,0.0,0.0,0.0,0.0,-1.7924,-2.0988,-2.2052,-2.2621,0.0,0.0,0.0,0.0,0.0,0.0,0.0,0.0,0.0,0.0,0.0,0.0,0.0,0.0,0.0,0.0,0.0,0.0,0.0,0.0,0.0,0.0,-2.3121,-2.3448,-2.4173,-2.4211,-2.4479,-2.4999,-2.4571,-2.4381,-2.4507,-2.4613,-2.4679,-2.4721,-2.3968,-2.37,-2.3851,-2.3682,-2.3595,-2.3595,-2.3595,-2.3595,-2.3595,-2.3595,-2.3595,-2.3595,-2.3595,-2.4574,-2.5968,-2.5968,-2.6552,-2.7345,0.0,0.0,0.0,0.0,0.0,0.0,0.0,0.0,0.0,0.0,0.0,0.0,0.0,0.0,0.0,0.0,0.0,0.0,0.0,0.0,0.0,0.0,0.0,0.0,-1.0094,-1.0094,-1.0094,-1.0094,-1.0098,-1.1858,-1.5226,-1.5232,-1.7041,-2.0202,-1.8586,-1.6448,-1.4067,-1.3995,-1.345,-1.2637,-1.2649,-1.267,-1.2863,-1.4366,-1.4996,-1.4841,-1.3169,-1.257,0.0,0.0,0.0,-1.0076,-0.9947,-0.9866,-0.9801,0.0,0.0,0.0,0.0,-1.3484,0.0,-1.7741,0.0,0.0,0.0,0.0,0.0,0.0,0.0,0.0,0.0,0.0,0.0,0.0,0.0,0.0,0.0,0.0,0.0,0.0,0.0,0.0,0.0,0.0,0.0,0.0,-2.2361,-2.2685,-2.3418,-2.3456,-2.3796,-2.452,-2.4073,-2.4062,-2.4492,-2.4313,-2.3981,-2.3494,-2.3572,-2.3183,-2.2435,-2.3244,-2.3595,-2.3595,-2.3595,-2.3595,-2.3595,-2.3595,-2.3595,-2.3595,-2.3595,-2.4214,-2.5063,-2.5063,-2.5753,-2.6632,0.0,0.0,0.0,0.0,0.0,0.0,0.0,0.0,0.0,0.0,0.0,0.0,0.0,-1.0181,-1.0193,-1.0197,-1.0249,0.0,0.0,0.0,0.0,0.0,0.0,0.0,0.0,-1.0094,-1.0094,-1.0094,-1.0094,-1.1308,-1.3635,-1.4204,-1.5113,-1.6335,-1.7433,-1.7393,-1.6398,-1.4784,-1.387,-1.3537,-1.3558,-1.4194,-1.5132,-1.518,-1.5896,-1.6648,-1.4924,0.0,0.0,0.0,0.0,-1.0965,-1.079,-1.034,-0.982,-0.9655,-0.9952,0.0,0.0,0.0,0.0,-1.6732,-1.8144,0.0,0.0,0.0,0.0,0.0,0.0,0.0,0.0,0.0,0.0,0.0,0.0,0.0,0.0,0.0,0.0,0.0,0.0,0.0,0.0,0.0,0.0,0.0,0.0,-2.2415,-2.2673,-2.2691,-2.2819,-2.3078,-2.2922,-2.2994,-2.3331,-2.2545,-2.2357,-2.2752,-2.2486,-2.2219,-2.1953,-2.3088,-2.361,-2.3589,-2.3584,-2.3595,-2.3595,-2.3595,-2.3595,-2.3595,-2.3595,-2.4081,-2.4739,-2.4739,-2.5533,-2.6587,0.0,0.0,0.0,0.0,0.0,0.0,0.0,0.0,0.0,-1.0094,0.0,0.0,0.0,0.0,-1.0209,-1.023,-1.0273,-1.0293,-1.0273,0.0,0.0,0.0,0.0,0.0,0.0,-1.0094,-1.0094,-1.0094,-1.0094,-1.0972,-1.2653,-1.3271,-1.3859,-1.4422,-1.5921,-1.6736,-1.6882,-1.5201,-1.4458,-1.4424,-1.4775,-1.5557,-1.6564,-1.7202,-1.796,-1.8488,0.0,0.0,0.0,0.0,0.0,0.0,-1.1771,-1.0759,-0.9728,-0.9551,-1.0023,0.0,-1.0954,0.0,0.0,0.0,0.0,0.0,0.0,0.0,0.0,0.0,0.0,0.0,0.0,0.0,0.0,0.0,0.0,0.0,0.0,0.0,0.0,0.0,0.0,0.0,0.0,0.0,0.0,0.0,0.0,0.0,-2.2296,-2.2296,-2.2231,-2.2071,-2.2215,-2.2208,-2.1988,-2.1232,-2.1071,-2.1484,-2.1194,-2.1028,-2.1079,-2.2364,-2.3196,-2.3599,-2.3597,-2.3595,-2.3595,-2.3595,-2.3595,-2.3595,-2.3595,-2.3879,-2.4261,-2.4261,-2.4963,-2.5959,0.0,0.0,0.0,0.0,0.0,0.0,0.0,0.0,-1.0094,-1.0094,0.0,0.0,0.0,0.0,0.0,-1.0293,-1.0293,-1.0273,-1.0208,-1.0209,0.0,0.0,0.0,0.0,-1.0094,-1.0094,-1.0094,-1.0094,-1.0094,-1.0892,-1.2428,-1.2593,-1.3495,-1.4944,-1.4263,-1.4396,-1.5118,-1.5195,-1.5224,-1.5317,0.0,-1.6635,-1.6953,0.0,-2.1246,0.0,-1.964,-1.8809,0.0,-1.6028,0.0,0.0,-1.2777,-1.1074,-0.9522,-0.95,-0.9934,-1.0272,0.0,0.0,0.0,0.0,0.0,0.0,0.0,0.0,0.0,0.0,0.0,0.0,0.0,0.0,0.0,0.0,0.0,0.0,0.0,0.0,0.0,0.0,0.0,0.0,0.0,0.0,0.0,0.0,-2.2296,-2.2296,-2.2296,-2.2296,-2.2088,-2.1639,-2.204,-2.1721,-2.063,-2.059,-2.0289,-1.9705,-1.9688,-1.97,-1.9738,-2.1072,-2.234,-2.3538,-2.3588,-2.3616,-2.3616,-2.3595,-2.3595,-2.3595,-2.3595,-2.3595,-2.3595,-2.3595,-2.4007,-2.4694,0.0,0.0,0.0,0.0,0.0,-1.0094,-1.0094,-1.0094,-1.0094,0.0,0.0,0.0,-1.0198,-1.0239,-1.0272,-1.0293,-1.0252,-1.0229,-1.0207,-1.0195,-1.0201,-1.0191,-1.0145,-1.0094,-1.0094,-1.0094,-1.0094,-1.0094,-1.0094,-1.0298,-1.0705,-1.1364,-1.1896,-1.2307,-1.2661,-1.299,-1.3265,-1.3417,0.0,-1.6186,-1.5827,-1.68,0.0,0.0,0.0,0.0,0.0,-2.1113,-2.0547,0.0,-1.8055,-1.638,0.0,-1.1537,-1.0227,-0.9546,-1.0257,-1.1111,-1.0376,0.0,0.0,0.0,0.0,0.0,0.0,0.0,0.0,0.0,0.0,0.0,0.0,0.0,0.0,0.0,0.0,0.0,0.0,0.0,0.0,0.0,0.0,0.0,0.0,0.0,0.0,0.0,-2.2296,-2.2296,-2.2296,-2.2296,-2.2231,-2.2119,-2.1627,-2.1213,-2.0894,-2.0255,-1.988,-1.9713,-1.9702,-1.9702,-1.973,-2.0593,-2.1261,-2.1786,-2.305,-2.3585,-2.3601,-2.3606,-2.3595,-2.3595,-2.3595,-2.3595,-2.3595,-2.3595,-2.4007,-2.4634,0.0,0.0,0.0,-1.0094,-1.07,-1.1094,-1.0847,-1.0801,-1.0777,0.0,0.0,0.0,-1.0188,-1.058,-1.0703,-1.0332,-1.0253,-1.0229,-1.0198,-1.0191,-1.0198,-1.0164,-1.0113,-1.0094,-1.0094,-1.0094,-1.0094,-1.0094,-1.0094,-1.0055,-0.9968,-1.0504,-1.0714,-1.0646,-1.114,-1.1601,-1.1984,-1.1743,0.0,0.0,-1.6154,0.0,0.0,-2.0218,-2.1319,0.0,0.0,0.0,-2.2305,-2.1754,-2.017,0.0,0.0,0.0,-1.2171,-1.0783,-1.1508,-1.246,-1.1307,-1.1536,0.0,0.0,0.0,0.0,0.0,-1.5814,0.0,0.0,0.0,0.0,0.0,0.0,0.0,0.0,0.0,0.0,0.0,0.0,0.0,0.0,0.0,0.0,0.0,-2.2296,-2.2296,-2.2296,-2.2296,-2.2296,-2.2296,-2.2296,-2.2215,-2.2006,-2.1715,-2.1259,-2.0701,-2.0392,-2.0056,-1.9708,-1.9708,-1.9708,-1.9723,-2.0098,-2.0508,-2.0944,-2.2234,-2.3109,-2.3614,-2.3597,-2.3595,-2.3595,-2.3595,-2.3595,-2.3595,-2.3595,-2.3849,-2.4216,0.0,0.0,-1.0133,-1.0229,-1.1539,-1.2404,-1.1962,-1.1892,-1.1811,0.0,-1.0884,-1.0428,-1.0488,-1.1147,-1.1328,-1.0645,-1.0391,-1.0308,-1.0335,-1.0251,-1.0163,-1.01,-1.0094,-1.0094,-1.0094,-1.0094,-1.0094,-1.0094,-1.0094,-1.0039,-0.9907,-0.9954,-0.993,-0.9798,-0.9869,-1.0355,-1.1106,-1.0512,0.0,-1.4206,-1.6541,-1.8186,0.0,0.0,-2.3141,-2.3362,-2.4237,-2.4082,-2.3457,-2.3379,-2.1519,0.0,0.0,0.0,0.0,-1.2749,-1.3258,-1.4082,-1.2448,-1.2329,-1.2933,0.0,0.0,0.0,-1.4207,-1.5427,-1.667,0.0,0.0,0.0,0.0,0.0,0.0,0.0,0.0,0.0,0.0,0.0,0.0,0.0,0.0,0.0,-2.231,-2.2296,-2.2296,-2.2296,-2.2296,-2.2296,-2.2296,-2.2296,-2.2119,-2.1687,-2.2023,-2.1639,-2.0391,-2.0739,-2.0514,-1.9708,-1.9708,-1.9708,-1.969,-1.9701,-2.003,-2.0628,-2.1311,-2.2295,-2.3405,-2.3552,-2.3595,-2.3595,-2.3595,-2.3595,-2.3595,-2.3595,-2.3595,-2.3684,0.0,-1.0094,-1.0323,-1.1028,-1.1425,-1.1853,-1.2435,-1.2522,-1.2511,-1.2446,-1.2355,-1.2288,-1.2294,-1.1873,-1.1816,-1.2344,-1.1053,-1.0516,-1.1197,-1.0587,-1.0178,-1.0098,-1.0094,-1.0094,-1.0094,-1.0094,-1.0094,-1.0094,-1.0094,-1.0063,-0.9972,-0.9941,-0.9869,-0.9795,-0.9811,-0.9944,-1.0252,-1.1484,0.0,-1.4051,-1.4619,0.0,-2.0393,-2.1835,-2.3125,-2.4257,-2.5137,-2.5352,-2.5117,-2.4394,-2.2337,-1.9836,0.0,0.0,0.0,-1.4274,-1.4581,-1.5191,-1.4093,-1.3785,0.0,0.0,0.0,0.0,-1.4714,-1.601,-1.7062,0.0,0.0,0.0,0.0,0.0,0.0,0.0,0.0,0.0,0.0,0.0,0.0,0.0,0.0,0.0,-2.2307,-2.2296,-2.2296,-2.2296,-2.2296,-2.2296,-2.2296,-2.2296,-2.2262,-2.2167,-2.1894,-2.1472,-2.0878,-2.0578,-2.0188,-1.9708,-1.9708,-1.9708,-1.9708,-1.9713,-1.9773,-1.9944,-2.0779,-2.149,-2.2149,-2.3182,-2.3595,-2.3595,-2.3595,-2.3595,-2.3595,-2.3595,-2.3595,-2.3625,-1.0094,-1.0094,-1.0363,-1.1246,-1.1752,-1.2329,-1.3168,-1.3305,-1.3304,-1.3303,-1.3356,-1.3236,-1.2805,-1.2816,-1.2671,-1.2241,-1.1366,-1.0858,-1.0841,-1.0448,-1.0198,-1.0147,-1.0146,-1.0156,-1.0156,-1.0129,-1.0094,-1.0094,-1.0094,-1.007,-0.9994,-0.9976,-1.0148,-1.0479,-1.0032,-1.0137,-1.0621,0.0,-1.2071,-1.3555,-1.5257,0.0,-2.0552,-2.2037,-2.3338,-2.4453,-2.5339,-2.5661,-2.5508,-2.4199,-2.3037,0.0,-1.9438,-1.8463,-1.7895,0.0,-1.6746,-1.7428,-1.5986,0.0,0.0,-1.5461,0.0,0.0,0.0,-1.6097,-1.6145,-1.6312,0.0,0.0,0.0,0.0,0.0,0.0,0.0,0.0,0.0,0.0,0.0,0.0,0.0,0.0,-2.2321,-2.2426,-2.2436,-2.231,-2.2296,-2.2296,-2.2296,-2.2296,-2.2296,-2.2296,-2.2071,-2.1645,-2.1006,-2.0763,-2.0337,-1.9708,-1.9708,-1.9708,-1.9708,-1.9708,-1.9708,-1.972,-2.0163,-2.0867,-2.1804,-2.3068,-2.3603,-2.3595,-2.3595,-2.3595,-2.3595,-2.3595,-2.3595,-2.3638,-1.0094,-1.0094,-1.0365,-1.1254,-1.2024,-1.2815,-1.3681,-1.4,-1.4151,-1.4143,-1.4214,-1.4055,-1.3518,-1.3828,-1.3698,-1.28,-1.2103,-1.1495,-1.0976,-1.0625,-1.0447,-1.0459,-1.029,-1.029,-1.0447,-1.0222,-1.0094,-1.0094,-1.0094,-1.0074,-1.0013,-1.0001,-1.035,-1.0948,-1.0404,-1.059,-1.1276,0.0,0.0,-1.3775,0.0,-1.8627,-2.005,-2.2033,-2.3324,-2.4206,-2.526,-2.5654,-2.5469,-2.3887,-2.3561,-2.3294,-2.0208,-1.9963,0.0,0.0,0.0,0.0,0.0,0.0,0.0,0.0,0.0,-1.6548,0.0,0.0,0.0,-1.7209,0.0,0.0,0.0,0.0,0.0,0.0,0.0,0.0,0.0,0.0,0.0,0.0,0.0,0.0,0.0,-2.2255,-2.2276,-2.229,-2.2026,-2.1992,-2.2279,-2.2296,-2.2296,-2.2296,-2.2296,-2.1911,-2.1114,-2.1128,-2.0681,-1.9818,-1.981,-1.9756,-1.9708,-1.9708,-1.9708,-1.9705,-1.9886,-2.0469,-2.1441,-2.2975,-2.3604,-2.3595,-2.3595,-2.3595,-2.3595,-2.3595,-2.3659,-2.3815,-1.0094,-1.0094,-1.0365,-1.1254,-1.1675,-1.2269,-1.3385,-1.4404,-1.5058,-1.5058,-1.5115,-1.5402,-1.6073,-1.4818,-1.4774,-1.6908,-1.4266,0.0,-1.3512,-1.2181,-1.1348,-1.1359,-1.0617,-1.0565,-1.1331,-1.0538,-1.0094,-1.0094,-1.0094,-1.0092,-1.0086,-1.0039,-1.0049,-1.0161,-1.085,0.0,0.0,0.0,-1.4558,0.0,-1.7351,-1.7948,0.0,-2.1031,-2.2538,-2.3456,-2.5097,-2.5683,-2.5547,0.0,-2.3775,-2.302,0.0,-2.2531,-2.3301,-2.1141,0.0,0.0,0.0,0.0,0.0,0.0,-2.0201,0.0,0.0,0.0,-1.8367,-1.7009,0.0,0.0,0.0,0.0,0.0,0.0,0.0,0.0,0.0,0.0,0.0,0.0,0.0,0.0,0.0,-2.1249,-2.1174,-2.2223,-2.1028,-2.0859,-2.2229,-2.2296,-2.2296,-2.2296,-2.2296,-2.2054,-2.1527,-2.1531,-2.1102,-2.0229,-2.0228,-2.0047,-1.9708,-1.9708,-1.9708,-1.9738,-2.052,-2.0503,-2.0116,-2.2585,-2.3604,-2.3595,-2.3595,-2.3595,-2.3595,-2.3595,-2.39,-2.4307,-1.0057,-1.0031,-1.0373,-1.1399,-1.1664,-1.2353,-1.4206,-1.4885,-1.5192,-1.5192,-1.5228,-1.5379,0.0,0.0,0.0,0.0,0.0,-1.3993,0.0,0.0,-1.2247,-1.2193,-1.1403,-1.1132,-1.1495,-1.0623,-1.0162,-1.0162,-1.0111,-1.0094,-1.0094,-1.0074,-1.0605,-1.1554,-1.1455,0.0,-1.3608,0.0,-1.4301,0.0,0.0,0.0,0.0,-2.1125,-2.3317,-2.4596,-2.5409,-2.5703,-2.5566,0.0,-2.3853,0.0,0.0,0.0,0.0,0.0,0.0,0.0,0.0,0.0,0.0,0.0,0.0,0.0,-1.7044,0.0,-1.8321,0.0,0.0,0.0,0.0,0.0,0.0,0.0,0.0,0.0,0.0,0.0,0.0,0.0,0.0,0.0,0.0,0.0,0.0,0.0,-2.1071,-2.0803,-2.2226,-2.2296,-2.2296,-2.2296,-2.2296,-2.2071,-2.1591,-2.1601,-2.1294,-2.0712,-2.0711,-2.0483,-2.0047,-2.0058,-1.9927,-1.9723,-2.0085,-2.0332,-2.0562,-2.1929,-2.2936,-2.3595,-2.3595,-2.3595,-2.3638,-2.3948,-2.422,-2.4491,-1.0013,-1.0004,-1.0276,-1.1095,-1.1242,-1.2145,-1.4799,-1.5192,-1.5538,-1.6481,-1.5788,0.0,-1.5192,-1.6965,0.0,0.0,-1.6464,-1.5576,0.0,0.0,-1.3401,-1.3413,-1.2392,-1.1836,-1.1831,-1.0963,-1.0415,-1.0165,-1.0143,-1.0111,-1.0094,-1.0094,-1.0771,-1.1971,-1.1886,-1.3001,-1.4915,0.0,-1.485,-1.6465,-1.6441,-1.7238,-1.8736,-2.1543,-2.385,-2.5575,-2.5662,-2.5703,-2.5565,-2.4687,-2.4167,0.0,-2.0955,0.0,0.0,0.0,0.0,0.0,-2.0169,0.0,0.0,0.0,0.0,0.0,0.0,0.0,0.0,0.0,0.0,0.0,0.0,0.0,0.0,0.0,0.0,0.0,0.0,0.0,0.0,0.0,0.0,0.0,0.0,0.0,0.0,0.0,0.0,-2.0096,-2.1888,-2.2006,-2.2088,-2.2296,-2.2296,-2.2136,-2.1799,-2.1789,-2.158,-2.1161,-2.1158,-2.0923,-2.0495,-2.0478,-2.0261,-1.9856,-1.9745,-2.0164,-2.0963,-2.1806,-2.2798,-2.3783,-2.3971,-2.4032,-2.4074,-2.4307,-2.4592,-2.4953,-0.9997,-1.0041,-1.0089,-1.0062,-1.0118,-1.1284,-1.4673,-1.5192,-1.6385,-1.9692,0.0,0.0,0.0,0.0,0.0,0.0,0.0,-1.7764,-1.7403,0.0,-1.503,-1.522,-1.3574,-1.265,0.0,-1.1816,-1.0948,-1.0095,-1.0166,-1.0165,-1.0094,-1.0094,-1.0133,-1.0252,-1.1916,-1.3213,-1.4247,-1.5816,-1.7521,-1.918,-1.9095,-2.0567,-2.2726,0.0,-2.349,-2.5683,-2.5702,0.0,0.0,-2.4686,-2.4948,0.0,0.0,0.0,0.0,0.0,0.0,0.0,0.0,0.0,0.0,-1.9336,0.0,0.0,0.0,0.0,-2.1224,0.0,0.0,0.0,0.0,0.0,0.0,-1.8188,0.0,0.0,0.0,0.0,0.0,0.0,0.0,0.0,0.0,0.0,0.0,0.0,0.0,0.0,-2.1072,-2.1239,-2.1558,-2.2279,-2.2296,-2.2296,-2.2279,-2.2282,-2.2043,-2.1575,-2.1594,-2.1369,-2.0986,-2.099,-2.0715,-2.0265,-1.9865,-2.0039,-2.0742,-2.2592,-2.3676,-2.4244,-2.4904,-2.5163,-2.5105,-2.4592,-2.5067,-2.5943,-0.9891,-0.9916,-0.9933,-0.9815,0.0,-1.1059,-1.4653,-1.5192,-1.5615,0.0,0.0,0.0,0.0,-1.7536,-1.9416,0.0,0.0,-1.9881,-1.9201,-1.8252,0.0,-1.6909,-1.5299,-1.4398,0.0,-1.3012,-1.1875,-1.0956,-1.1024,-1.0726,-1.0103,-1.0107,-1.0404,-1.1004,0.0,-1.3836,0.0,0.0,0.0,0.0,0.0,-2.1315,-2.3101,0.0,0.0,-2.5566,-2.5625,-2.5657,0.0,-2.5351,-2.5467,-2.55,-2.4348,-2.3985,-2.3986,-2.3974,-2.2369,0.0,0.0,0.0,-2.4033,-2.2341,0.0,0.0,0.0,0.0,0.0,0.0,0.0,0.0,0.0,0.0,0.0,-1.9044,0.0,0.0,0.0,0.0,0.0,0.0,0.0,0.0,0.0,0.0,0.0,0.0,-1.8836,0.0,0.0,-2.1656,-2.2054,-2.2296,-2.2296,-2.2296,-2.2296,-2.2296,-2.2215,-2.2054,-2.2054,-2.1828,-2.1399,-2.1399,-2.1181,-2.0748,-2.062,-2.1203,-2.2307,-2.2941,-2.3861,-2.4878,-2.5122,-2.5411,-2.5707,-2.554,-2.5689,-2.6033,-0.9872,-0.9825,-0.9815,0.0,0.0,-1.1007,-1.4433,-1.6115,0.0,0.0,-1.6809,0.0,-1.7942,0.0,-2.1511,0.0,-2.1829,-2.1836,-2.0655,-1.985,0.0,-1.8203,-1.6866,0.0,-1.5669,-1.4342,-1.3074,-1.186,-1.1619,-1.1025,-1.0096,-1.0118,-1.0423,-1.0985,0.0,-1.4,-1.6199,-1.6625,-1.7948,0.0,0.0,-2.207,0.0,0.0,-2.5042,-2.5503,0.0,-2.5658,-2.57,-2.5703,-2.5703,-2.5703,-2.5703,-2.4922,-2.4258,-2.5369,-2.4132,-2.2645,-2.3728,-2.4641,0.0,-2.3322,-2.243,0.0,-1.9733,0.0,0.0,0.0,0.0,0.0,0.0,0.0,0.0,-1.9612,-1.8238,0.0,0.0,-1.4727,0.0,0.0,0.0,0.0,0.0,0.0,-1.7407,-1.872,0.0,0.0,0.0,0.0,-2.1731,-2.2279,-2.2296,-2.2296,-2.2296,-2.2296,-2.2296,-2.2296,-2.2296,-2.214,-2.1849,-2.1842,-2.1613,-2.1213,-2.1213,-2.1876,-2.2975,-2.3267,-2.4166,-2.5366,-2.563,-2.5944,-2.6227,-2.605,-2.612,-2.6297,-0.9956,-0.9753,0.0,0.0,-1.0256,0.0,0.0,0.0,-1.9139,0.0,-2.0637,-2.419,-2.419,-2.419,-2.419,-2.419,-2.419,-2.3501,-2.1859,-2.0776,0.0,0.0,-1.8295,-1.7449,-1.6638,-1.5727,-1.4463,-1.2817,-1.1978,-1.1073,-1.0161,-1.019,-1.017,-1.0179,-1.1898,0.0,-1.5386,-1.6573,-1.8457,-2.07,-2.1769,-2.2901,-2.4062,-2.5117,-2.5493,-2.5513,-2.5658,-2.5699,-2.5706,-2.5702,-2.5703,-2.5703,-2.5703,-2.5703,-2.5703,-2.5707,-2.5699,-2.5665,-2.5544,-2.5413,-2.4768,-2.247,0.0,0.0,0.0,0.0,-2.2983,0.0,0.0,0.0,0.0,0.0,0.0,0.0,-1.8772,0.0,0.0,0.0,0.0,0.0,0.0,0.0,0.0,0.0,-1.4917,-1.7501,-1.5811,0.0,0.0,0.0,-2.0689,-2.2198,-2.2279,-2.2296,-2.2296,-2.2296,-2.2296,-2.2296,-2.2296,-2.2296,-2.2296,-2.2296,-2.2046,-2.1643,-2.1643,-2.2071,-2.2845,-2.3621,-2.4612,-2.5711,-2.642,-2.6691,-2.6657,-2.6209,-2.6314,-2.6691,-0.9972,-0.9753,-1.0468,0.0,-1.3637,-1.4832,0.0,0.0,0.0,0.0,-2.3243,-2.419,-2.419,-2.419,-2.419,-2.419,-2.419,0.0,0.0,0.0,0.0,-2.0908,-2.0062,-1.9231,-1.8381,-1.6916,-1.564,-1.4559,0.0,-1.199,-1.1051,-1.0471,-1.0181,-1.0229,0.0,0.0,-1.4326,-1.7138,-1.9219,-2.0693,-2.1767,-2.2626,0.0,0.0,-2.5526,-2.5384,-2.5555,-2.5657,-2.5702,-2.5703,-2.5703,-2.5703,-2.5703,-2.5703,-2.5703,-2.5707,-2.5563,-2.5435,-2.5605,-2.5543,-2.5302,-2.4745,-2.5023,-2.4971,0.0,0.0,0.0,0.0,0.0,0.0,0.0,0.0,0.0,0.0,0.0,0.0,0.0,0.0,0.0,-1.5228,0.0,0.0,0.0,0.0,-1.601,-1.6158,-1.665,0.0,0.0,0.0,0.0,-2.146,-2.2006,-2.2296,-2.2296,-2.2296,-2.2296,-2.2296,-2.2296,-2.2296,-2.2296,-2.2296,-2.2237,-2.212,-2.212,-2.2858,-2.4049,-2.4251,-2.5157,-2.6437,-2.6623,-2.6691,-2.6691,-2.6556,-2.6607,-2.6691,-1.0748,-1.0086,0.0,-1.5784,0.0,0.0,-1.7177,-1.8397,0.0,-2.3768,-2.419,0.0,-2.419,-2.419,-2.419,-2.419,-2.419,0.0,-2.4775,0.0,0.0,-2.1866,-2.1087,-2.0441,-1.9888,-1.8313,0.0,-1.5677,0.0,-1.2624,-1.1439,-1.058,-1.0206,-1.0253,0.0,-1.2648,-1.4116,-1.7929,-2.0328,-2.1612,-2.2211,-2.3126,0.0,-2.5166,-2.5497,-2.5485,-2.5603,-2.5661,-2.5703,-2.5703,-2.5703,-2.5703,-2.5703,-2.5703,-2.5703,-2.5707,-2.5503,-2.5339,-2.5488,-2.5569,-2.5588,-2.5569,-2.5554,-2.5286,-2.433,-2.4607,-2.473,0.0,0.0,0.0,0.0,0.0,0.0,0.0,0.0,0.0,0.0,0.0,0.0,0.0,-1.5801,0.0,0.0,0.0,0.0,0.0,0.0,0.0,0.0,0.0,0.0,-2.1157,-2.193,-2.2296,-2.2296,-2.2296,-2.2296,-2.2296,-2.2296,-2.2296,-2.2296,-2.2296,-2.2296,-2.2296,-2.2296,-2.3139,-2.4491,-2.4491,-2.5371,-2.6691,-2.6691,-2.6691,-2.6691,-2.6691,-2.6691,-2.6691,-1.2115,0.0,0.0,0.0,0.0,0.0,0.0,-1.8133,0.0,-2.3235,0.0,-2.3712,-2.4153,-2.419,-2.419,-2.419,0.0,-2.4452,-2.4708,-2.4723,-2.4057,-2.2576,-2.1966,-2.1447,-2.1017,-1.963,-1.8043,0.0,-1.4623,-1.3004,-1.1484,-1.0623,-1.0261,0.0,0.0,0.0,0.0,-1.8651,-2.1211,-2.2714,-2.2844,-2.3933,-2.5462,-2.5368,-2.5483,-2.5698,-2.5701,-2.5703,-2.5703,-2.5703,-2.5703,-2.5703,-2.5703,-2.5703,-2.5703,-2.5707,-2.5524,-2.534,-2.534,-2.5522,-2.5663,-2.5552,-2.5574,-2.534,-2.437,-2.4314,-2.4453,-2.4402,-2.4387,-2.4545,0.0,0.0,0.0,0.0,0.0,0.0,0.0,0.0,0.0,0.0,0.0,0.0,0.0,0.0,0.0,0.0,0.0,0.0,0.0,0.0,0.0,-2.1002,-2.1864,-2.2296,-2.2296,0.0,-2.2296,-2.2296,-2.2296,-2.2296,-2.2296,-2.2296,-2.2296,-2.2296,-2.2296,-2.3139,-2.4491,-2.4491,-2.5371,-2.6691,-2.6691,-2.6691,-2.6691,-2.6691,-2.6691,-2.6691,-1.4161,0.0,0.0,0.0,0.0,-2.0013,-2.2171,-2.2978,-2.2584,-2.0435,-2.016,-2.1188,-2.3896,-2.419,-2.419,-2.419,-2.4752,0.0,0.0,0.0,0.0,-2.4179,-2.4069,-2.307,-2.1036,-2.0042,-1.8442,-1.623,-1.4593,-1.3008,-1.1489,-1.0662,0.0,0.0,0.0,0.0,-1.7231,-1.8496,0.0,-2.2304,-2.3137,-2.4205,-2.5335,-2.542,-2.5556,-2.5697,-2.5699,-2.5703,-2.5703,-2.5703,-2.5703,-2.5703,-2.5703,-2.5703,-2.5703,-2.5707,-2.568,-2.564,-2.5633,-2.5651,-2.5697,-2.5678,-2.5661,-2.5622,-2.5427,-2.5427,-2.5443,-2.5377,-2.535,-2.5167,-2.4509,0.0,0.0,0.0,0.0,0.0,0.0,0.0,0.0,0.0,0.0,-1.7069,0.0,0.0,0.0,0.0,0.0,0.0,0.0,0.0,0.0,0.0,-2.1569,0.0,0.0,0.0,-2.2296,-2.2296,-2.2296,-2.2296,-2.2296,-2.2296,-2.2296,-2.2296,-2.2296,-2.3139,-2.4491,-2.4491,-2.5371,-2.6691,-2.6691,-2.6691,-2.6691,-2.6691,-2.6691,-2.6691,-1.4778,0.0,0.0,0.0,0.0,0.0,0.0,-2.419,-2.3621,-2.2051,-2.1849,-2.2428,-2.4025,-2.419,-2.419,-2.419,-2.4516,-2.458,-2.4228,-2.419,-2.4266,-2.4393,-2.4384,-2.3854,-2.2696,-2.1092,-1.9307,-1.7334,-1.5733,-1.3959,-1.2051,0.0,0.0,-1.1602,0.0,-1.4198,0.0,0.0,0.0,-2.2575,-2.3302,-2.4279,-2.5308,-2.5365,-2.5518,-2.5699,-2.5705,-2.5701,-2.5703,-2.5703,-2.5703,-2.5703,-2.5703,-2.5703,-2.5703,-2.57,-2.5698,-2.5698,-2.5698,-2.5698,-2.5699,-2.5703,-2.5703,-2.5703,-2.5703,-2.5703,-2.5662,-2.5564,-2.5551,-2.5267,-2.4312,-2.3636,0.0,0.0,0.0,0.0,0.0,0.0,0.0,0.0,0.0,0.0,0.0,0.0,0.0,0.0,0.0,0.0,0.0,0.0,0.0,0.0,0.0,0.0,0.0,0.0,0.0,-2.2296,-2.2296,-2.2296,-2.2296,-2.2296,-2.2296,-2.2313,-2.2699,-2.3477,-2.4558,-2.5337,-2.6065,-2.6691,-2.6691,-2.6691,-2.6691,-2.6691,-2.6691,-2.6691,0.0,-1.8115,0.0,0.0,-1.9885,0.0,-2.3804,-2.419,-2.419,-2.419,-2.419,-2.419,-2.419,-2.419,-2.419,-2.419,-2.419,-2.419,-2.419,-2.419,-2.419,-2.419,-2.419,-2.419,-2.419,-2.2111,-2.0215,0.0,-1.6834,0.0,0.0,0.0,0.0,0.0,0.0,0.0,0.0,0.0,-2.1401,-2.3191,-2.3555,-2.4346,-2.5303,-2.531,-2.5447,-2.5617,-2.5666,-2.5696,-2.5703,-2.5703,-2.5703,-2.5703,-2.5703,-2.5703,-2.5703,-2.5703,-2.5703,-2.5703,-2.5703,-2.5703,-2.5703,-2.5703,-2.5703,-2.5703,-2.5703,-2.5703,-2.5661,-2.5549,-2.551,-2.5198,-2.4266,-2.411,0.0,0.0,0.0,0.0,0.0,0.0,0.0,0.0,0.0,0.0,-1.8252,0.0,0.0,0.0,0.0,0.0,0.0,0.0,0.0,0.0,0.0,-2.2082,-2.2228,0.0,-2.2704,-2.248,-2.2429,-2.2388,-2.2388,-2.2338,-2.2296,-2.233,-2.3088,-2.3915,-2.4846,-2.6166,-2.6691,-2.6691,-2.6691,-2.6691,-2.6691,-2.6691,-2.6758,-2.6858,0.0,0.0,0.0,0.0,0.0,0.0,-2.4153,-2.419,-2.419,-2.419,-2.419,-2.419,-2.419,-2.419,-2.419,-2.419,-2.419,-2.419,-2.419,-2.419,-2.419,-2.419,-2.419,-2.419,-2.419,-2.2565,-2.0889,0.0,0.0,-1.513,0.0,-1.2849,0.0,0.0,0.0,0.0,0.0,-2.0885,-2.1733,-2.3989,-2.4033,-2.4543,-2.5303,-2.5372,-2.5369,-2.5362,-2.5549,-2.5657,-2.5703,-2.5703,-2.5703,-2.5703,-2.5703,-2.5703,-2.5703,-2.5703,-2.5703,-2.5703,-2.5703,-2.5703,-2.5703,-2.5703,-2.5703,-2.5703,-2.5703,-2.5703,-2.5683,-2.5604,-2.5486,-2.5143,-2.4267,-2.4668,-2.4825,0.0,0.0,0.0,0.0,0.0,-2.2674,-2.148,0.0,0.0,0.0,0.0,0.0,0.0,0.0,0.0,0.0,0.0,0.0,-1.9337,0.0,-2.2012,-2.2025,-2.2782,-2.3129,-2.3105,-2.2797,-2.2656,-2.266,-2.2398,-2.2296,-2.233,-2.3088,-2.4205,-2.5558,-2.637,-2.6691,-2.6691,-2.6691,-2.6691,-2.6691,-2.6691,-2.6939,-2.736,0.0,0.0,0.0,0.0,0.0,0.0,0.0,-2.419,-2.419,-2.419,-2.419,-2.419,-2.419,-2.419,-2.419,-2.419,-2.419,-2.419,-2.419,-2.419,-2.419,-2.419,-2.419,-2.419,-2.419,-2.2941,-2.1631,0.0,0.0,-1.6941,-1.5017,-1.4756,0.0,0.0,0.0,-1.9504,-2.2812,-2.316,-2.361,-2.4149,-2.462,-2.5,-2.5293,-2.5326,-2.5321,-2.5337,-2.5565,-2.5632,-2.5599,-2.5664,-2.5703,-2.5703,-2.5703,-2.5703,-2.5703,-2.5703,-2.5703,-2.5703,-2.5703,-2.5703,-2.5703,-2.5703,-2.5703,-2.5703,-2.5703,-2.5703,-2.5683,-2.5607,-2.5481,-2.5275,-2.4894,-2.5077,-2.5128,0.0,0.0,0.0,0.0,0.0,0.0,-2.2483,0.0,-2.0665,0.0,0.0,0.0,0.0,0.0,0.0,0.0,0.0,0.0,-1.879,0.0,-2.2406,-2.2011,-2.3006,-2.3403,-2.32,-2.3069,-2.288,-2.2695,-2.2586,-2.2945,-2.3644,-2.3932,-2.4897,-2.6302,-2.6852,-2.7051,-2.7083,-2.7334,-2.7409,-2.7409,-2.7409,-2.7515,-2.7824,-2.247,0.0,-2.2296,0.0,-2.3353,-2.419,-2.419,-2.419,-2.419,-2.419,-2.419,-2.419,-2.419,-2.419,-2.419,-2.419,-2.419,-2.419,-2.419,-2.419,-2.419,-2.419,-2.419,0.0,-2.419,-2.316,-2.2209,-2.1402,-2.032,-1.8931,-1.731,0.0,0.0,0.0,-1.8275,-2.068,-2.3596,-2.4446,-2.4677,-2.4509,-2.5077,-2.5308,-2.5308,-2.5308,-2.529,-2.5323,-2.5517,-2.5572,-2.5565,-2.562,-2.5663,-2.5703,-2.5703,-2.5703,-2.5703,-2.5703,-2.5703,-2.5703,-2.5703,-2.5703,-2.5703,-2.5703,-2.5703,-2.5703,-2.5703,-2.5703,-2.5683,-2.5607,-2.5515,-2.5417,-2.5348,-2.5313,-2.5259,-2.5105,0.0,0.0,0.0,-2.4821,0.0,0.0,-2.2043,-2.1056,-2.0237,0.0,0.0,0.0,0.0,0.0,0.0,0.0,0.0,0.0,0.0,0.0,0.0,-2.3334,-2.3724,-2.3482,-2.3392,-2.3224,-2.2996,-2.3137,-2.3917,-2.5176,-2.5176,-2.5882,-2.7067,-2.7348,-2.7487,-2.75,-2.7797,-2.7897,-2.7897,-2.7897,-2.8124,-2.8596,-2.231,-2.2296,-2.2296,-2.2296,-2.3353,-2.419,-2.419,-2.419,-2.419,-2.419,-2.419,-2.419,-2.419,-2.419,-2.419,-2.419,-2.419,-2.419,-2.419,-2.419,-2.419,0.0,0.0,-2.419,-2.419,-2.3143,-2.2584,-2.2572,0.0,0.0,-2.0641,0.0,-1.9776,-1.9732,-2.1816,-2.3678,-2.5204,-2.4082,-2.4269,-2.5288,-2.5308,-2.5308,-2.5308,-2.5308,-2.529,-2.5293,-2.5305,-2.5473,-2.568,-2.5543,-2.5598,-2.5703,-2.5703,-2.5703,-2.5703,-2.5703,-2.5703,-2.5703,-2.5703,-2.5703,-2.5703,-2.5703,-2.5703,-2.5703,-2.5703,-2.5703,-2.5683,-2.5607,-2.5549,-2.5488,-2.5408,-2.5337,-2.5308,-2.5303,0.0,0.0,0.0,0.0,0.0,-2.3427,-2.1715,-2.0652,-2.0778,0.0,0.0,0.0,0.0,0.0,0.0,0.0,0.0,-2.0156,-2.2018,0.0,-2.2997,-2.3795,-2.419,-2.418,-2.3847,-2.3692,-2.37,-2.4159,-2.525,-2.6774,-2.6774,-2.7203,-2.7883,-2.7897,-2.7897,-2.7897,-2.7897,-2.7897,-2.7897,-2.7897,-2.8612,-2.9715,-2.2296,-2.2296,-2.2561,-2.3445,-2.3935,-2.419,-2.419,-2.419,-2.419,-2.419,-2.419,-2.419,-2.419,-2.419,-2.419,0.0,-2.419,-2.419,0.0,-2.419,-2.419,-2.419,-2.419,-2.419,-2.419,-2.3868,-2.3325,-2.2608,0.0,0.0,0.0,-2.1467,-2.0921,-1.9542,-2.2464,-2.4328,-2.5287,-2.4917,-2.4981,-2.5308,-2.5308,-2.5308,-2.5308,-2.5308,-2.5293,-2.5301,-2.5294,-2.5343,-2.5426,-2.5476,-2.5598,-2.5703,-2.5703,-2.5703,-2.5703,-2.5703,-2.5703,-2.5703,-2.5703,-2.5703,-2.5703,-2.5703,-2.5703,-2.5703,-2.5703,-2.5703,-2.5683,-2.5607,-2.5551,-2.549,-2.5401,-2.5352,-2.5308,-2.5308,-2.5253,0.0,0.0,0.0,-2.4818,-2.4506,-2.3353,-2.2488,0.0,-2.112,0.0,0.0,0.0,0.0,0.0,0.0,0.0,0.0,-2.263,0.0,-2.3006,-2.3804,-2.419,-2.419,-2.4094,-2.4208,-2.454,-2.4998,-2.579,-2.6805,-2.6805,-2.7217,-2.7926,-2.8143,-2.825,-2.8264,-2.8545,-2.8978,-2.939,-2.8851,-2.9344,-3.0441,-2.2296,-2.2296,-2.2552,-2.3353,-2.3491,-2.3491,-2.3491,-2.3491,-2.3491,-2.3491,-2.3904,-2.4024,-2.3535,-2.3915,0.0,-2.419,-2.419,-2.419,-2.419,-2.419,-2.419,-2.419,-2.419,-2.419,-2.419,-2.419,0.0,-2.3196,-2.3196,-2.2849,-2.2145,-2.2859,-2.2455,-2.1234,-2.3283,-2.4618,-2.5296,-2.5299,-2.5306,-2.5308,-2.5308,-2.5308,-2.5308,-2.5308,-2.5308,-2.5298,-2.5295,-2.5337,-2.5398,-2.5473,-2.5592,-2.5703,-2.5703,-2.5703,-2.5703,-2.5703,-2.5703,-2.5703,-2.5703,-2.5703,-2.5703,-2.5703,-2.5703,-2.5703,-2.5703,-2.5703,-2.5683,-2.5657,-2.5573,-2.5524,-2.545,-2.5379,-2.5326,-2.5293,-2.5308,-2.5308,-2.5308,0.0,-2.4824,0.0,0.0,0.0,0.0,-2.2562,-2.2743,0.0,0.0,0.0,0.0,0.0,0.0,-2.1543,-2.3263,0.0,-2.3456,-2.3951,-2.419,-2.419,-2.4511,-2.5118,-2.6004,-2.6296,-2.6867,-2.7633,-2.7633,-2.789,-2.8321,-2.8545,-2.8633,-2.8658,-2.8905,-2.9317,-2.9684,-2.9189,-3.0021,-3.152,-2.2296,-2.2296,-2.2296,0.0,-2.2296,0.0,-2.2296,-2.2296,-2.2296,-2.2296,-2.3324,-2.3613,-2.2432,-2.3365,-2.4064,-2.4064,0.0,0.0,0.0,-2.4151,-2.4161,-2.4064,-2.4151,-2.419,-2.419,-2.419,-2.419,-2.419,-2.419,-2.419,-2.419,-2.419,-2.4201,-2.4192,-2.4209,-2.4576,-2.5233,-2.5284,-2.5308,-2.5308,-2.5308,-2.5308,-2.5308,-2.5308,-2.5308,-2.5308,-2.5308,-2.5379,-2.5484,-2.5508,-2.5594,-2.5703,-2.5703,-2.5703,-2.5703,-2.5703,-2.5703,-2.5703,-2.5703,-2.5703,-2.5703,-2.5703,-2.5703,-2.5703,-2.5703,-2.5703,-2.5703,-2.5703,-2.5657,-2.5572,-2.5503,-2.545,-2.5376,-2.5308,-2.5308,-2.5303,-2.5274,0.0,0.0,0.0,0.0,0.0,0.0,-2.3452,-2.3952,0.0,0.0,0.0,0.0,0.0,-2.15,-2.3305,-2.3906,-2.419,-2.419,-2.419,-2.4226,-2.4281,-2.5154,-2.6347,-2.7798,-2.7871,-2.8282,-2.9005,-2.9005,-2.9005,-2.9005,-2.9005,-2.9005,-2.9005,-2.9005,-2.9042,-2.9115,-2.9191,-3.0802,-3.2924,0.0,0.0,-2.2296,-2.2296,-2.2296,-2.2296,-2.2296,-2.2296,-2.2296,-2.2296,-2.2548,-2.2628,-2.2338,-2.2579,-2.2743,-2.2743,-2.2743,-2.2743,-2.2743,-2.3657,-2.3771,-2.2794,-2.3667,-2.419,-2.419,-2.419,-2.419,-2.419,-2.419,-2.419,-2.419,-2.419,-2.42,-2.4211,-2.4196,-2.4308,-2.4494,-2.5057,-2.5308,-2.5308,-2.5308,-2.5308,-2.5308,-2.5308,-2.5308,-2.5308,-2.5308,-2.5327,-2.5366,-2.5473,-2.5595,-2.5693,-2.5703,-2.5703,-2.5703,-2.5703,-2.5703,-2.5703,-2.5703,-2.5703,-2.5703,-2.5703,-2.5703,-2.5703,-2.5703,-2.5703,-2.5703,-2.5703,-2.5657,-2.5572,-2.5503,-2.545,-2.5376,-2.5308,-2.5308,-2.5253,-2.5094,-2.499,0.0,0.0,-2.4659,-2.4603,-2.4653,-2.4822,-2.4707,0.0,0.0,0.0,0.0,-2.3005,-2.2886,-2.3943,-2.4136,-2.419,-2.419,-2.419,-2.4511,-2.5136,-2.6549,-2.7431,-2.7824,-2.8448,-2.8822,-2.9005,-2.9005,-2.9005,-2.9005,-2.9005,-2.9005,-2.9005,-2.9005,-2.95,-3.0318,-3.1138,-3.2634,-3.4257,-2.2296,-2.2296,-2.2296,-2.2296,-2.2296,-2.2296,-2.2296,-2.2296,-2.2296,-2.2296,-2.2296,-2.2296,-2.2296,-2.2296,-2.2296,-2.2296,-2.2296,-2.2296,-2.2296,-2.2943,-2.3017,-2.2338,-2.3524,-2.419,-2.419,-2.419,-2.419,-2.419,-2.419,-2.419,-2.419,-2.419,-2.419,-2.4199,-2.4192,-2.4205,-2.424,-2.4991,-2.5302,-2.5308,-2.5308,-2.5308,-2.5308,-2.5308,-2.5558,-2.5885,-2.5885,-2.5907,-2.5975,-2.6198,-2.5993,-2.5802,-2.664,-2.6348,-2.5703,-2.5703,-2.5703,-2.5703,-2.5703,-2.5703,-2.5703,-2.5703,-2.5643,-2.5622,-2.5683,-2.5682,-2.5661,-2.5683,-2.5662,-2.5628,-2.5526,-2.546,-2.5408,-2.5317,-2.5219,-2.5116,-2.5016,-2.4953,0.0,-2.4991,-2.4998,-2.5083,-2.5279,-2.5308,-2.5115,-2.4678,-2.4454,0.0,-2.4258,-2.399,-2.3981,-2.433,-2.4256,-2.4373,-2.475,-2.5107,-2.5695,-2.6513,-2.7376,-2.7989,-2.8356,-2.8803,-2.9005,-2.9005,-2.9005,-2.9005,-2.9005,-2.9005,-2.9225,-2.9537,-2.9537,-3.0395,-3.1678,-3.2262,-3.3582,-3.5088,-2.2296,-2.2296,-2.2296,-2.2296,-2.2296,-2.2296,-2.2296,-2.2296,-2.2296,-2.2296,-2.2296,-2.2296,-2.2296,-2.2296,-2.2296,-2.2296,-2.2296,-2.2296,-2.2296,-2.2296,-2.2296,-2.2296,-2.3342,-2.3996,-2.4208,-2.419,-2.419,-2.419,-2.419,-2.419,-2.419,-2.419,-2.419,-2.419,-2.419,-2.4207,-2.4272,-2.5264,-2.5692,-2.5692,-2.5692,-2.5692,-2.5692,-2.5692,-2.6154,-2.6794,-2.6794,-2.6819,-2.6916,-2.7107,-2.6639,-2.6263,-2.7887,-2.7168,-2.5723,-2.5859,-2.5801,-2.5703,-2.5703,-2.5703,-2.5703,-2.5663,-2.5576,-2.5523,-2.564,-2.5634,-2.5628,-2.5662,-2.5683,-2.5661,-2.5543,-2.5524,-2.5479,-2.5339,-2.5154,-2.5015,-2.4991,0.0,-2.4864,-2.4992,-2.5028,-2.5105,-2.5279,-2.5308,-2.5308,-2.5308,-2.5269,-2.5138,-2.4842,-2.4818,-2.478,-2.4729,-2.4404,-2.4633,-2.5434,-2.6362,-2.7151,-2.7798,-2.7915,-2.8338,-2.9005,-2.9005,-2.9005,-2.9005,-2.9005,-2.9005,-2.9005,-2.9005,-2.9464,-3.0228,-3.043,-3.145,-3.282,-3.3041,-3.4118,-3.55,-2.2296,-2.2296,-2.2296,-2.2296,-2.2296,-2.2296,-2.2296,-2.2296,-2.2296,-2.2296,-2.2296,-2.2296,-2.2296,-2.2296,-2.2296,-2.2296,-2.2296,-2.2296,-2.2296,-2.2296,-2.2296,-2.2296,-2.2484,-2.3103,-2.417,-2.419,-2.419,-2.419,-2.419,-2.419,-2.419,-2.419,-2.419,-2.419,-2.419,-2.4192,-2.434,-2.6559,-2.7503,-2.7505,-2.7505,-2.7505,-2.7505,-2.7505,-2.7582,-2.7698,-2.7698,-2.7694,-2.7648,-2.7189,-2.7333,-2.7848,-2.864,-2.7415,-2.584,-2.6582,-2.6289,-2.5703,-2.5703,-2.5699,-2.5667,-2.5569,-2.5524,-2.5507,-2.5535,-2.5564,-2.5603,-2.5607,-2.5661,-2.5682,-2.5601,-2.5573,-2.5545,-2.542,-2.5215,-2.5055,-2.5009,0.0,-2.498,-2.5004,-2.5152,-2.5264,-2.5303,-2.5308,-2.5308,-2.5308,-2.5146,-2.5022,-2.4974,-2.4869,-2.511,-2.574,-2.4906,-2.4844,-2.5643,-2.712,-2.7838,-2.7816,-2.8491,-2.8877,-2.9005,-2.9005,-2.9005,-2.9005,-2.9005,-2.9005,-2.9005,-2.9005,-2.9464,-3.032,-3.1439,-3.2253,-3.2945,-3.4131,-3.4966,-3.55,-2.2296,-2.2296,-2.2296,-2.2296,-2.2296,-2.2296,-2.2296,-2.2296,-2.2296,-2.2296,-2.2296,-2.2296,-2.2296,-2.2296,-2.2296,-2.2296,-2.2296,-2.2296,-2.2296,-2.2296,-2.2296,-2.2296,-2.2955,-2.3591,-2.418,-2.419,-2.419,-2.419,-2.419,-2.419,-2.419,-2.419,-2.4502,-2.5052,-2.5066,-2.5356,-2.5976,-2.7441,-2.8166,-2.8313,-2.8025,-2.7895,-2.7895,-2.7895,-2.8165,-2.8549,-2.8549,-2.8549,-2.8585,-2.8805,-2.874,-2.8712,-2.9705,-2.9327,-2.8398,-2.7851,-2.6758,-2.5703,-2.5703,-2.5698,-2.568,-2.5524,-2.5451,-2.5401,-2.5484,-2.5513,-2.5556,-2.5598,-2.5659,-2.5683,-2.5607,-2.5602,-2.5564,-2.546,-2.5244,0.0,0.0,-2.5019,-2.5004,-2.5004,-2.5173,-2.5308,-2.5308,-2.5308,-2.5308,-2.5308,-2.5214,-2.5111,-2.501,-2.5393,-2.5724,-2.6001,-2.6435,-2.6751,-2.6991,-2.8183,-2.8685,-2.8448,-2.8822,-2.9005,-2.9005,-2.9005,-2.9005,-2.9005,-2.9005,-2.9005,-2.9023,-2.9464,-3.0118,-3.0968,-3.2151,-3.3056,-3.3765,-3.4584,-3.5146,-3.55,-2.2296,-2.2296,-2.2296,-2.2296,-2.2296,-2.2296,-2.2296,-2.2296,-2.2296,-2.2296,-2.2296,-2.2296,-2.2296,-2.2296,-2.2584,-2.326,-2.3325,-2.3325,-2.3325,-2.3325,-2.3006,-2.233,-2.3703,-2.4476,-2.4399,-2.4365,-2.4286,-2.419,-2.419,-2.43,-2.4493,-2.4493,-2.5026,-2.5991,-2.6128,-2.6591,-2.7384,-2.8217,-2.8744,-2.8956,-2.8621,-2.8486,-2.8486,-2.8486,-2.8852,-2.939,-2.939,-2.939,-2.9509,-3.0231,-2.9931,-2.9424,-3.0492,-3.0564,-3.0077,-2.9178,-2.7675,-2.6211,-2.5801,-2.5694,-2.5668,-2.5491,-2.5382,-2.5325,-2.5425,-2.5488,-2.5563,-2.5837,-2.5949,-2.5995,-2.5927,-2.5924,-2.5836,-2.558,0.0,0.0,0.0,-2.5093,-2.5019,-2.5077,-2.5208,-2.5308,-2.5308,-2.5308,-2.5308,-2.5308,-2.5308,-2.532,-2.5375,-2.6013,-2.6473,-2.6707,-2.7915,-2.8449,-2.8166,-2.9073,-2.9355,-2.9005,-2.9055,-2.9055,-2.9005,-2.9005,-2.9005,-2.9005,-2.9005,-2.9005,-2.906,-2.9879,-3.0668,-3.1507,-3.2576,-3.3577,-3.444,-3.4772,-3.5159,-3.55,-2.2296,-2.2296,-2.2296,-2.2296,-2.2296,-2.2296,-2.2296,-2.2296,-2.2296,-2.2296,-2.2296,-2.2296,-2.2296,-2.2296,-2.3395,-2.6133,-2.637,-2.637,-2.637,-2.637,-2.5152,-2.2415,-2.4278,-2.526,-2.495,-2.481,-2.4559,-2.419,-2.419,-2.4585,-2.5301,-2.5301,-2.5754,-2.6567,-2.7056,-2.7322,-2.7498,-2.9106,-2.9791,-2.9835,-3.011,-3.0212,-3.0212,-3.0212,-3.025,-3.0308,-3.0308,-3.0308,-3.0308,-3.0377,-3.0346,-3.0337,-3.0543,-2.9552,-2.8626,-3.025,-2.9466,-2.7754,-2.6133,-2.5702,-2.5634,-2.5381,-2.5316,-2.5303,-2.5313,-2.5401,-2.5727,-2.6537,-2.6817,-2.6894,-2.6894,-2.6894,-2.6619,-2.572,0.0,0.0,-2.5374,-2.5209,-2.5144,-2.5254,-2.5284,-2.5308,-2.5308,-2.5308,-2.5308,-2.5308,-2.5308,-2.5649,-2.6432,-2.6547,-2.7272,-2.8829,-2.8811,-2.8643,-2.8389,-2.9425,-2.9623,-2.9005,-2.9246,-2.9235,-2.9005,-2.9005,-2.9005,-2.9005,-2.9005,-2.9005,-2.906,-2.9879,-3.0668,-3.1507,-3.2576,-3.3577,-3.444,-3.4772,-3.5159,-3.55,-2.2296,-2.2296,-2.2296,-2.2296,-2.2296,-2.2296,-2.2296,-2.3849,-2.5033,-2.5033,-2.5033,-2.5033,-2.5033,-2.5033,-2.5473,-2.659,-2.6691,-2.6691,-2.6691,-2.6691,-2.6201,-2.5084,-2.581,-2.6185,-2.6006,-2.5685,-2.5592,-2.5695,-2.5695,-2.5841,-2.6135,-2.6135,-2.6568,-2.7353,-2.7566,-2.8028,-2.8693,-2.9458,-2.9848,-2.9987,-3.0273,-3.0404,-3.0404,-3.0404,-3.0404,-3.0404,-3.0404,-3.0404,-3.0404,-3.0404,-3.0427,-3.046,-3.0522,-3.0166,-2.9878,-3.0677,-3.0428,-2.9766,-2.9101,-2.8766,-2.8337,-2.7201,-2.7168,-2.7323,-2.6986,-2.6979,-2.7155,-2.7523,-2.7672,-2.7766,-2.7793,-2.7363,-2.6875,-2.6521,0.0,-2.5485,-2.5463,-2.5355,-2.5299,-2.5298,-2.5788,-2.6115,-2.6115,-2.6601,-2.6909,-2.6909,-2.6909,-2.7063,-2.739,-2.7871,-2.8698,-2.9871,-2.9837,-2.9665,-2.9399,-2.9798,-2.9754,-2.9246,-2.9351,-2.9257,-2.9005,-2.9005,-2.9005,-2.9005,-2.9005,-2.928,-2.9812,-3.0613,-3.1421,-3.2261,-3.3545,-3.4319,-3.4763,-3.5133,-3.536,-3.55,-2.2482,-2.1871,-2.1661,-2.2194,-2.3057,-2.3665,-2.3665,-2.5406,-2.6691,-2.6691,-2.6691,-2.6691,-2.6691,-2.6691,-2.6691,-2.6691,-2.6691,-2.6691,-2.6691,-2.6691,-2.6691,-2.6691,-2.6691,-2.6693,-2.6616,-2.6526,-2.6446,-2.6407,-2.6407,-2.6607,-2.6979,-2.6979,-2.742,-2.8172,-2.8184,-2.8599,-2.9283,-2.9514,-2.9682,-2.9834,-3.0087,-3.0226,-3.0267,-3.0267,-3.0323,-3.0404,-3.0404,-3.0404,-3.0404,-3.0404,-3.0439,-3.0477,-3.0477,-3.0554,-3.0682,-3.0774,-3.0859,-3.0898,-3.0898,-3.0725,-3.0253,-2.8999,-2.8714,-2.8603,-2.8021,-2.798,-2.8115,-2.8435,-2.8585,-2.8643,-2.8691,-2.8223,-2.7734,-2.7441,-2.6872,-2.6421,-2.6337,-2.6281,-2.6215,-2.6135,-2.664,-2.7005,-2.7005,-2.7544,-2.7895,-2.7895,-2.7895,-2.8011,-2.8261,-2.9063,-2.9775,-3.0385,-3.0404,-3.0311,-3.0129,-3.0129,-2.988,-2.9402,-2.9474,-2.9322,-2.9005,-2.9005,-2.9005,-2.9005,-2.9262,-2.9684,-3.0283,-3.1329,-3.21,-3.2752,-3.4153,-3.4769,-3.4963,-3.5343,-3.55,-3.55,-2.2905,-2.0942,-2.0291,-2.2039,-2.4763,-2.6691,-2.6691,-2.6691,-2.6691,-2.6691,-2.6691,-2.6691,-2.6691,-2.6691,-2.6691,-2.6691,-2.6691,-2.6691,-2.6691,-2.6691,-2.6691,-2.6691,-2.6691,-2.6708,-2.6708,-2.7241,-2.7003,-2.6027,-2.6027,-2.6631,-2.7816,-2.7816,-2.8246,-2.9005,-2.9005,-2.9005,-2.9023,-2.9297,-2.9391,-2.941,-2.9616,-2.9816,-3.0006,-3.0006,-3.0176,-3.0404,-3.0404,-3.0404,-3.0404,-3.0404,-3.0404,-3.0404,-3.0404,-3.0481,-3.06,-3.0604,-3.0735,-3.0898,-3.0898,-3.0892,-3.0824,-3.048,-2.9648,-2.8732,-2.8067,-2.8024,-2.8365,-2.923,-2.9528,-2.9609,-2.9609,-2.9609,-2.9316,-2.8457,-2.8301,-2.8256,-2.8114,-2.8093,-2.8051,-2.7927,-2.7915,-2.7915,-2.7915,-2.7915,-2.7915,-2.7915,-2.7915,-2.828,-2.9069,-2.9929,-3.0404,-3.0404,-3.0404,-3.0404,-3.0404,-3.0404,-3.0063,-2.9394,-2.9607,-2.9447,-2.9005,-2.9005,-2.9005,-2.9042,-2.9861,-3.021,-3.0338,-3.194,-3.2601,-3.2752,-3.4153,-3.4769,-3.4963,-3.5343,-3.55,-3.55,-2.5279,-2.498,-2.4779,-2.5292,-2.6116,-2.6691,-2.6691,-2.6691,-2.6691,-2.6691,-2.6691,-2.6691,-2.6691,-2.6691,-2.6691,-2.6691,-2.6691,-2.6691,-2.6691,-2.6691,-2.6691,-2.6691,-2.6691,-2.6954,-2.753,-2.7409,-2.7417,-2.7541,-2.7635,-2.8009,-2.8638,-2.8638,-2.8767,-2.9005,-2.9005,-2.9005,-2.9023,-2.9297,-2.9403,-2.9414,-2.963,-2.9823,-3.0006,-3.0006,-3.0176,-3.0404,-3.0404,-3.0404,-3.0404,-3.0404,-3.0404,-3.0402,-3.0394,-3.0486,-3.062,-3.0663,-3.0774,-3.0898,-3.0898,-3.0898,-3.0853,-3.0669,-3.0341,-3.0043,-2.9837,-2.9833,-2.9939,-3.026,-3.0345,-3.0401,-3.0488,-3.0019,-2.9512,-2.9258,-2.8691,-2.8279,-2.8189,-2.8126,-2.8077,-2.7976,-2.8439,-2.8742,-2.8742,-2.9294,-2.9654,-2.9654,-2.9654,-2.975,-3.0,-3.025,-3.0404,-3.0404,-3.0404,-3.0404,-3.0404,-3.0404,-3.0128,-2.9616,-2.967,-2.9447,-2.9005,-2.9005,-2.9005,-2.9042,-2.9861,-3.0522,-3.1109,-3.2161,-3.2931,-3.3524,-3.436,-3.4713,-3.4821,-3.5324,-3.55,-3.55,-2.5227,-2.5473,-2.5713,-2.6556,-2.6691,-2.6691,-2.6691,-2.6691,-2.6691,-2.6691,-2.6691,-2.6691,-2.6691,-2.6691,-2.6691,-2.6691,-2.6691,-2.6691,-2.6691,-2.6691,-2.6691,-2.6691,-2.6691,-2.6939,-2.7409,-2.7194,-2.7409,-2.8084,-2.8152,-2.8476,-2.9005,-2.9005,-2.917,-2.9464,-2.9133,-2.9189,-2.9494,-2.9651,-2.9717,-2.9743,-3.0192,-3.0509,-3.0701,-3.0701,-3.0939,-3.1238,-3.1238,-3.1092,-3.0962,-3.1269,-3.1173,-3.0845,-3.0509,-3.0778,-3.1206,-3.1279,-3.1581,-3.183,-3.1576,-3.1522,-3.1445,-3.0911,-3.0707,-3.0621,-3.0611,-3.0628,-3.0659,-3.069,-3.0744,-3.0794,-3.0898,-3.0469,-3.0117,-3.0117,-2.9668,-2.9295,-2.9199,-2.9132,-2.9059,-2.9008,-2.9366,-2.9602,-2.9602,-3.0096,-3.0404,-3.0404,-3.0404,-3.0404,-3.0404,-3.0404,-3.0404,-3.0404,-3.0404,-3.0404,-3.0404,-3.0404,-3.0253,-2.9972,-2.9729,-2.9457,-2.9156,-2.9044,-2.917,-2.9519,-3.0338,-3.1127,-3.1935,-3.2742,-3.3366,-3.3855,-3.4453,-3.4694,-3.4754,-3.5297,-3.55,-3.55,-2.3595,-2.3595,-2.4204,-2.6089,-2.6573,-2.6691,-2.6691,-2.6691,-2.6691,-2.6691,-2.6691,-2.6691,-2.6691,-2.6691,-2.6691,-2.6691,-2.6691,-2.6776,-2.6911,-2.6911,-2.6911,-2.6911,-2.6911,-2.6911,-2.6911,-2.6759,-2.7135,-2.7996,-2.7961,-2.8344,-2.9113,-2.9113,-2.9509,-3.0216,-2.949,-2.9587,-3.0313,-3.0323,-3.0318,-3.0375,-3.1115,-3.157,-3.1793,-3.1793,-3.2089,-3.2463,-3.2488,-3.2197,-3.1885,-3.2635,-3.241,-3.1679,-3.0865,-3.1339,-3.2183,-3.2246,-3.2795,-3.3262,-3.2656,-3.2568,-3.2422,-3.1387,-3.0971,-3.0807,-3.0658,-3.0669,-3.072,-3.072,-3.0816,-3.0898,-3.0898,-3.0898,-3.0898,-3.0898,-3.0898,-3.0858,-3.0743,-3.0659,-3.0587,-3.0525,-3.0457,-3.0419,-3.0427,-3.041,-3.0404,-3.0404,-3.0404,-3.0404,-3.0404,-3.0404,-3.0404,-3.0404,-3.0404,-3.0404,-3.0404,-3.0404,-3.0382,-3.0364,-2.9788,-2.9476,-2.9392,-2.9197,-2.95,-3.0246,-3.1127,-3.1916,-3.2619,-3.3458,-3.3807,-3.3855,-3.4431,-3.4684,-3.4784,-3.5304,-3.55,-3.5507,-2.3595,-2.3595,-2.373,-2.4204,-2.5619,-2.6691,-2.6691,-2.6691,-2.6691,-2.6691,-2.6691,-2.6691,-2.6691,-2.6691,-2.6691,-2.6691,-2.6691,-2.7199,-2.8417,-2.8502,-2.8502,-2.8502,-2.8502,-2.8502,-2.8502,-2.7334,-2.7381,-2.8753,-2.8451,-2.8829,-2.9867,-2.9867,-3.0148,-3.0654,-3.0491,-3.0685,-3.1139,-3.1133,-3.1146,-3.1157,-3.1334,-3.1561,-3.1793,-3.1793,-3.1958,-3.2212,-3.2423,-3.2424,-3.2397,-3.2762,-3.2776,-3.2602,-3.2429,-3.2568,-3.2808,-3.2827,-3.306,-3.3282,-3.3145,-3.3154,-3.3164,-3.293,-3.2363,-3.1697,-3.0991,-3.0856,-3.0858,-3.0858,-3.0879,-3.0898,-3.0898,-3.0898,-3.0898,-3.0898,-3.0898,-3.0898,-3.0858,-3.0744,-3.0677,-3.0665,-3.0603,-3.0556,-3.0568,-3.0458,-3.0404,-3.0404,-3.0404,-3.0404,-3.0404,-3.0404,-3.0404,-3.0404,-3.0404,-3.0404,-3.0404,-3.0404,-3.028,-3.0082,-2.9788,-2.9579,-2.9411,-2.9768,-3.0044,-3.0283,-3.1733,-3.232,-3.2375,-3.3385,-3.3807,-3.3842,-3.4302,-3.4634,-3.4916,-3.5342,-3.55,-3.5541,-2.3595,-2.3595,-2.3595,-2.3595,-2.5322,-2.6691,-2.6691,-2.6691,-2.6691,-2.6691,-2.6691,-2.6691,-2.6691,-2.6691,-2.7283,-2.8721,-2.8839,-2.8873,-2.8993,-2.922,-2.9235,-2.901,-2.8993,-2.8993,-2.8993,-2.8214,-2.8271,-2.9224,-2.9036,-2.9338,-3.009,-3.009,-3.0442,-3.1023,-3.0651,-3.0797,-3.1369,-3.1591,-3.169,-3.1737,-3.2305,-3.2636,-3.2742,-3.2742,-3.2894,-3.3143,-3.3441,-3.3718,-3.3829,-3.3128,-3.3179,-3.3449,-3.3026,-3.3216,-3.3564,-3.3564,-3.3959,-3.4325,-3.3974,-3.3929,-3.3881,-3.3496,-3.3086,-3.2559,-3.1719,-3.1191,-3.0898,-3.0898,-3.0898,-3.0898,-3.0898,-3.0898,-3.0898,-3.0898,-3.0898,-3.0898,-3.0898,-3.0772,-3.0695,-3.0695,-3.0648,-3.0571,-3.0511,-3.0438,-3.0406,-3.041,-3.0404,-3.0404,-3.0404,-3.0404,-3.0596,-3.1,-3.0615,-3.0596,-3.1019,-3.1019,-3.074,-3.0195,-3.0303,-3.0302,-3.0224,-3.0611,-3.098,-3.1384,-3.21,-3.2614,-3.2999,-3.3568,-3.3967,-3.4255,-3.4472,-3.4695,-3.4942,-3.535,-3.55,-3.5534,-2.3595,-2.3595,-2.3709,-2.4074,-2.5547,-2.6691,-2.6691,-2.6691,-2.6691,-2.6691,-2.6691,-2.6911,-2.7402,-2.7469,-2.8467,-3.097,-3.119,-3.0685,-2.9467,-2.9732,-2.978,-2.9381,-2.9382,-2.9382,-2.9382,-2.9382,-2.9445,-2.9593,-2.9593,-2.9833,-3.0287,-3.0368,-3.0749,-3.1363,-3.076,-3.088,-3.153,-3.1915,-3.2125,-3.2294,-3.3298,-3.3752,-3.3807,-3.3807,-3.3935,-3.4171,-3.4497,-3.4972,-3.5228,-3.382,-3.3814,-3.4295,-3.3564,-3.3833,-3.441,-3.441,-3.4973,-3.5476,-3.4851,-3.4753,-3.4659,-3.3981,-3.3671,-3.3437,-3.2969,-3.2051,-3.125,-3.0957,-3.1016,-3.1074,-3.0937,-3.0898,-3.0898,-3.0898,-3.0898,-3.0898,-3.0898,-3.0794,-3.0723,-3.0723,-3.0683,-3.0678,-3.0762,-3.0815,-3.0888,-3.1006,-3.0902,-3.0827,-3.0827,-3.0827,-3.1154,-3.1891,-3.1192,-3.1173,-3.191,-3.191,-3.159,-3.0989,-3.1339,-3.1459,-3.1384,-3.1531,-3.1971,-3.2601,-3.2504,-3.2981,-3.3807,-3.3807,-3.4201,-3.4851,-3.4851,-3.4888,-3.5039,-3.5383,-3.55,-3.55,-2.3595,-2.3595,-2.4163,-2.5982,-2.6522,-2.6691,-2.6691,-2.6691,-2.6691,-2.6691,-2.6691,-2.7689,-3.0294,-3.0581,-3.0751,-3.1157,-3.119,-3.1106,-3.0903,-3.0968,-3.0965,-3.0903,-3.0886,-3.0886,-3.0886,-3.0886,-3.062,-3.0014,-3.0014,-3.0374,-3.1062,-3.1421,-3.1636,-3.1758,-3.2035,-3.2234,-3.2353,-3.2406,-3.2672,-3.3043,-3.3208,-3.3491,-3.3807,-3.3807,-3.3815,-3.3889,-3.4159,-3.4656,-3.5152,-3.5156,-3.5231,-3.5308,-3.5192,-3.5231,-3.5327,-3.5327,-3.5449,-3.5572,-3.5476,-3.5571,-3.5689,-3.5518,-3.4817,-3.4414,-3.5293,-3.4238,-3.2656,-3.1191,-3.1504,-3.1797,-3.1035,-3.0898,-3.0898,-3.0898,-3.0898,-3.0898,-3.0898,-3.0879,-3.0878,-3.0878,-3.0864,-3.1232,-3.2204,-3.246,-3.2836,-3.3466,-3.2929,-3.2564,-3.2564,-3.2564,-3.2622,-3.2737,-3.2622,-3.2622,-3.2737,-3.2737,-3.2942,-3.334,-3.3161,-3.2892,-3.2477,-3.245,-3.2491,-3.2638,-3.3311,-3.366,-3.3807,-3.3807,-3.4434,-3.5383,-3.5383,-3.5398,-3.5432,-3.5486,-3.55,-3.55,-2.5341,-2.5341,-2.5621,-2.6539,-2.6691,-2.6691,-2.6691,-2.6691,-2.6691,-2.6691,-2.8163,-2.9719,-3.1055,-3.119,-3.119,-3.119,-3.119,-3.119,-3.119,-3.119,-3.119,-3.119,-3.119,-3.119,-3.119,-3.119,-3.1038,-3.0717,-3.0717,-3.0886,-3.121,-3.1389,-3.1451,-3.147,-3.1694,-3.1769,-3.1804,-3.2019,-3.2232,-3.2452,-3.2706,-3.3065,-3.346,-3.3463,-3.3592,-3.3842,-3.4099,-3.4595,-3.5113,-3.5231,-3.5376,-3.55,-3.55,-3.55,-3.55,-3.55,-3.5515,-3.5558,-3.559,-3.5698,-3.5785,-3.5797,-3.5519,-3.5371,-3.5898,-3.5391,-3.4453,-3.3086,-3.2832,-3.2754,-3.2363,-3.2305,-3.2305,-3.2305,-3.2305,-3.2284,-3.2255,-3.2234,-3.2234,-3.2234,-3.2266,-3.2491,-3.3003,-3.3902,-3.4571,-3.4811,-3.3627,-3.3051,-3.3385,-3.3404,-3.3397,-3.3404,-3.3397,-3.3718,-3.436,-3.3725,-3.3428,-3.3467,-3.3988,-3.4034,-3.3647,-3.3395,-3.3275,-3.3293,-3.3642,-3.3807,-3.3855,-3.4489,-3.506,-3.55,-3.55,-3.55,-3.55,-3.55,-3.55,-3.5817]},{"header":{"parameterUnit":"m.s-1","parameterCategory":1,"la1":30.6,"la2":28.766,"lo1":-90.7593,"lo2":-88.6598,"dy":0.0162,"dx":0.0183,"nx":116,"ny":114,"refTime":"2024-05-18T12:00:00:Z","depth":0,"parameterNumber":3,"parameterNumberName":"V-component_of_WINDS"},"data":[0.0,0.0,0.0,0.0,0.0,0.0,0.0,0.0,0.0,0.0,0.0,0.0,0.0,0.0,0.0,0.0,0.0,0.0,0.0,0.0,0.0,0.0,0.0,0.0,0.0,0.0,0.0,0.0,0.0,0.0,0.0,0.0,0.0,0.0,0.0,0.0,0.0,0.0,0.0,0.0,0.0,0.0,0.0,0.0,0.0,0.0,0.0,0.0,0.0,0.0,0.0,0.0,0.0,0.0,0.0,0.0,0.0,0.0,0.0,0.0,0.0,0.0,0.0,0.0,0.0,0.0,0.0,0.0,0.0,0.0,0.0,0.0,0.0,0.0,0.0,0.0,0.0,0.0,0.0,0.0,0.0,0.0,0.0,0.0,0.0,0.0,0.0,0.0,0.0,0.0,0.0,0.0,0.0,0.0,0.0,0.0,0.0,0.0,0.0,0.0,0.0,0.0,0.0,0.0,0.0,0.0,0.0,0.0,0.0,0.0,0.0,0.0,0.0,0.0,0.0,0.0,0.0,0.0,0.0,0.0,0.0,0.0,0.0,0.0,0.0,0.0,0.0,0.0,0.0,0.0,0.0,0.0,0.0,0.0,0.0,0.0,0.0,0.0,0.0,0.0,0.0,0.0,0.0,0.0,0.0,0.0,0.0,0.0,0.0,0.0,0.0,0.0,0.0,0.0,0.0,0.0,0.0,0.0,0.0,0.0,0.0,0.0,0.0,0.0,0.0,0.0,0.0,0.0,0.0,0.0,0.0,0.0,0.0,0.0,0.0,0.0,0.0,0.0,0.0,0.0,0.0,0.0,0.0,0.0,0.0,0.0,0.0,0.0,0.0,0.0,0.0,0.0,0.0,0.0,0.0,0.0,0.0,0.0,0.0,0.0,0.0,0.0,0.0,0.0,0.0,0.0,0.0,0.0,0.0,0.0,0.0,0.0,0.0,0.0,0.0,0.0,0.0,0.0,0.0,0.0,0.0,0.0,0.0,0.0,0.0,0.0,0.0,0.0,0.0,0.0,0.0,0.0,0.0,0.0,0.0,0.0,0.0,0.0,0.0,0.0,0.0,0.0,0.0,0.0,0.0,0.0,0.0,0.0,0.0,0.0,0.0,0.0,0.0,0.0,0.0,0.0,0.0,0.0,0.0,0.0,0.0,0.0,0.0,0.0,0.0,0.0,0.0,0.0,0.0,0.0,0.0,0.0,0.0,0.0,0.0,0.0,0.0,0.0,0.0,0.0,0.0,0.0,0.0,0.0,0.0,0.0,0.0,0.0,0.0,0.0,0.0,0.0,0.0,0.0,0.0,0.0,0.0,0.0,0.0,0.0,0.0,0.0,0.0,0.0,0.0,0.0,0.0,0.0,0.0,0.0,0.0,0.0,0.0,0.0,0.0,0.0,0.0,0.0,0.0,0.0,0.0,0.0,0.0,0.0,0.0,0.0,0.0,0.0,0.0,0.0,0.0,0.0,0.0,0.0,0.0,0.0,0.0,0.0,0.0,0.0,0.0,0.0,0.0,0.0,0.0,0.0,0.0,0.0,0.0,0.0,0.0,0.0,0.0,0.0,0.0,0.0,0.0,0.0,0.0,0.0,0.0,0.0,0.0,0.0,0.0,0.0,0.0,0.0,0.0,0.0,0.0,0.0,0.0,0.0,0.0,0.0,0.0,0.0,0.0,0.0,0.0,0.0,0.0,0.0,0.0,0.0,0.0,0.0,0.0,0.0,0.0,0.0,0.0,0.0,0.0,0.0,0.0,0.0,0.0,0.0,0.0,0.0,0.0,0.0,0.0,0.0,0.0,0.0,0.0,0.0,0.0,0.0,0.0,0.0,0.0,0.0,0.0,0.0,0.0,0.0,0.0,0.0,0.0,0.0,0.0,0.0,0.0,0.0,0.0,0.0,0.0,0.0,0.0,0.0,0.0,0.0,0.0,0.0,0.0,0.0,0.0,0.0,0.0,0.0,0.0,0.0,0.0,0.0,0.0,0.0,0.0,0.0,0.0,0.0,0.0,0.0,0.0,0.0,0.0,0.0,0.0,0.0,0.0,0.0,0.0,0.0,0.0,0.0,0.0,0.0,0.0,0.0,0.0,0.0,0.0,0.0,0.0,0.0,0.0,0.0,0.0,0.0,0.0,0.0,0.0,0.0,0.0,0.0,0.0,0.0,0.0,0.0,0.0,0.0,0.0,0.0,0.0,0.0,0.0,0.0,0.0,0.0,0.0,0.0,0.0,0.0,0.0,0.0,0.0,0.0,0.0,0.0,0.0,0.0,0.0,0.0,0.0,0.0,0.0,0.0,0.0,0.0,0.0,0.0,0.0,0.0,0.0,0.0,0.0,0.0,0.0,0.0,0.0,0.0,0.0,0.0,0.0,0.0,0.0,0.0,0.0,0.0,0.0,0.0,0.0,0.0,0.0,0.0,0.0,0.0,0.0,0.0,0.0,0.0,0.0,0.0,0.0,0.0,0.0,0.0,0.0,0.0,0.0,0.0,0.0,0.0,0.0,0.0,0.0,0.0,0.0,0.0,0.0,0.0,0.0,0.0,0.0,0.0,0.0,0.0,0.0,0.0,0.0,0.0,0.0,0.0,0.0,0.0,0.0,0.0,0.0,0.0,0.0,0.0,0.0,0.0,0.0,0.0,0.0,0.0,0.0,0.0,0.0,0.0,0.0,0.0,0.0,0.0,0.0,0.0,0.0,0.0,0.0,0.0,0.0,0.0,0.0,0.0,0.0,0.0,0.0,0.0,0.0,0.0,0.0,0.0,0.0,0.0,0.0,0.0,0.0,0.0,0.0,0.0,0.0,0.0,0.0,0.0,0.0,0.0,0.0,0.0,0.0,0.0,0.0,0.0,0.0,0.0,0.0,0.0,0.0,0.0,0.0,0.0,0.0,0.0,0.0,0.0,0.0,0.0,0.0,0.0,0.0,0.0,0.0,0.0,0.0,0.0,0.0,0.0,0.0,0.0,0.0,0.0,0.0,0.0,0.0,0.0,0.0,0.0,0.0,0.0,0.0,0.0,0.0,0.0,0.0,0.0,0.0,0.0,0.0,0.0,0.0,0.0,0.0,0.0,0.0,0.0,0.0,0.0,0.0,0.0,0.0,0.0,0.0,0.0,0.0,0.0,0.0,0.0,0.0,0.0,0.0,0.0,0.0,0.0,0.0,0.0,0.0,0.0,0.0,0.0,0.0,0.0,0.0,0.0,0.0,0.0,0.0,0.0,0.0,0.0,0.0,0.0,0.0,0.0,0.0,0.0,0.0,0.0,0.0,0.0,0.0,0.0,0.0,0.0,0.0,0.0,0.0,0.0,0.0,0.0,0.0,0.0,0.0,0.0,0.0,0.0,0.0,0.0,0.0,0.0,0.0,0.0,0.0,0.0,0.0,0.0,0.0,0.0,0.0,0.0,0.0,0.0,0.0,0.0,0.0,0.0,0.0,0.0,0.0,0.0,0.0,0.0,0.0,0.0,0.0,0.0,0.0,0.0,0.0,0.0,0.0,0.0,0.0,0.0,0.0,0.0,0.0,0.0,0.0,0.0,0.0,0.0,0.0,0.0,0.0,0.0,0.0,0.0,0.0,0.0,0.0,0.0,0.0,0.0,0.0,0.0,0.0,0.0,0.0,0.0,0.0,0.0,0.0,0.0,0.0,0.0,0.0,0.0,0.0,0.0,0.0,0.0,0.0,0.0,0.0,0.0,0.0,0.0,0.0,0.0,0.0,0.0,0.0,0.0,0.0,0.0,0.0,0.0,0.0,0.0,0.0,0.0,0.0,0.0,0.0,0.0,0.0,0.0,0.0,0.0,0.0,0.0,0.0,0.0,0.0,0.0,0.0,0.0,0.0,0.0,0.0,0.0,0.0,0.0,0.0,0.0,0.0,0.0,0.0,0.0,0.0,0.0,0.0,0.0,0.0,0.0,0.0,0.0,0.0,0.0,0.0,0.0,0.0,0.0,0.0,0.0,0.0,0.0,0.0,0.0,0.0,0.0,0.0,0.0,0.0,0.0,0.0,0.0,0.0,0.0,0.0,0.0,0.0,0.0,0.0,0.0,0.0,0.0,0.0,0.0,0.0,0.0,0.0,0.0,0.0,0.0,0.0,0.0,0.0,0.0,0.0,0.0,0.0,0.0,0.0,0.0,0.0,0.0,0.0,0.0,0.0,0.0,0.0,0.0,0.0,0.0,0.0,0.0,0.0,0.0,0.0,0.0,0.0,0.0,0.0,0.0,0.0,0.0,0.0,0.0,0.0,0.0,0.0,0.0,0.0,0.0,0.0,0.0,0.0,0.0,0.0,0.0,0.0,0.0,0.0,0.0,0.0,0.0,0.0,0.0,0.0,0.0,0.0,0.0,0.0,0.0,0.0,0.0,0.0,0.0,0.0,0.0,0.0,0.0,0.0,0.0,0.0,0.0,0.0,0.0,0.0,0.0,0.0,0.0,0.0,0.0,0.0,0.0,0.0,0.0,0.0,0.0,0.0,0.0,0.0,0.0,0.0,0.0,0.0,0.0,0.0,0.0,0.0,0.0,0.0,0.0,0.0,0.0,0.0,0.0,0.0,0.0,0.0,0.0,0.0,0.0,0.0,0.0,0.0,0.0,0.0,0.0,0.0,0.0,0.0,0.0,0.0,0.0,0.0,0.0,0.0,0.0,0.0,0.0,0.0,0.0,0.0,0.0,0.0,0.0,0.0,0.0,0.0,0.0,0.0,0.0,0.0,0.0,0.0,0.0,0.0,0.0,0.0,0.0,0.0,0.0,0.0,0.0,0.0,0.0,0.0,0.0,0.0,0.0,0.0,0.0,0.0,0.0,0.0,0.0,0.0,0.0,0.0,0.0,0.0,0.0,0.0,0.0,0.0,0.0,0.0,0.0,0.0,0.0,0.0,0.0,0.0,0.0,0.0,0.0,0.0,0.0,0.0,0.0,0.0,0.0,0.0,0.0,0.0,0.0,0.0,0.0,0.0,0.0,0.0,0.0,0.0,0.0,0.0,0.0,0.0,0.0,0.0,0.0,0.0,0.0,0.0,0.0,0.0,0.0,0.0,0.0,0.0,0.0,0.0,0.0,0.0,0.0,0.0,0.0,0.0,0.0,0.0,0.0,0.0,0.0,0.0,0.0,0.0,0.0,0.0,0.0,0.0,0.0,0.0,0.0,0.0,0.0,0.0,0.0,0.0,0.0,0.0,0.0,0.0,0.0,0.0,0.0,0.0,0.0,0.0,0.0,0.0,0.0,0.0,0.0,0.0,0.0,0.0,0.0,0.0,0.0,0.0,0.0,0.0,0.0,0.0,0.0,0.0,0.0,0.0,0.0,0.0,0.0,0.0,0.0,0.0,0.0,0.0,0.0,0.0,0.0,0.0,0.0,0.0,0.0,0.0,0.0,0.0,0.0,0.0,0.0,0.0,0.0,0.0,0.0,0.0,0.0,0.0,0.0,0.0,0.0,0.0,0.0,0.0,0.0,0.0,0.0,0.0,0.0,0.0,0.0,0.0,0.0,0.0,0.0,0.0,0.0,0.0,0.0,0.0,0.0,0.0,0.0,0.0,0.0,0.0,0.0,0.0,0.0,0.0,0.0,0.0,0.0,0.0,0.0,0.0,0.0,0.0,0.0,0.0,0.0,0.0,0.0,0.0,0.0,0.0,0.0,0.0,0.0,0.0,0.0,0.0,0.0,0.0,0.0,0.0,0.0,0.0,0.0,0.0,0.0,0.0,0.0,0.0,0.0,0.0,0.0,0.0,0.0,0.0,0.0,0.0,0.0,0.0,0.0,0.0,0.0,0.0,0.0,0.0,0.0,0.0,0.0,0.0,0.0,0.0,0.0,0.0,0.0,0.0,0.0,0.0,0.0,0.0,0.0,0.0,0.0,0.0,0.0,0.0,0.0,0.0,0.0,0.0,0.0,0.0,0.0,0.0,0.0,0.0,0.0,0.0,0.0,0.0,0.0,0.0,0.0,0.0,0.0,0.0,0.0,0.0,0.0,0.0,0.0,0.0,0.0,0.0,0.0,0.0,0.0,0.0,0.0,0.0,0.0,0.0,0.0,0.0,0.0,0.0,0.0,0.0,0.0,0.0,0.0,0.0,0.0,-0.7397,0.0,0.0,0.0,0.0,0.0,0.0,0.0,0.0,0.0,0.0,0.0,0.0,0.0,0.0,0.0,0.0,0.0,0.0,0.0,0.0,0.0,0.0,0.0,0.0,-0.1078,-0.1168,-0.1095,-0.1091,-0.1021,-0.0841,0.0,0.0,0.0,0.0,0.0,0.0103,0.0235,0.0237,0.01,-0.01,-0.0343,-0.0642,-0.0814,-0.1042,-0.1307,0.0,0.0,0.0,0.0,0.0,0.0,0.0,0.0,0.0,0.0,0.0,0.0,0.0,0.0,0.0,0.0,0.0,0.0,0.0,0.0,0.0,0.0,0.0,0.0,0.0,0.0,0.0,0.0,0.0,0.0,0.0,0.0,0.0,0.0,0.0,0.0,0.0,0.0,0.0,0.0,0.0,0.0,0.0,0.0,0.0,0.0,0.0,0.0,0.0,0.0,0.0,0.0,0.0,0.0,0.0,0.0,0.0,0.0,0.0,0.0,0.0,0.0,0.0,0.0,0.0,0.0,0.0,0.0,0.0,0.0,0.0,-0.846,0.0,0.0,0.0,0.0,0.0,0.0,0.0,0.0,0.0,0.0,0.0,0.0,0.0,0.0,0.0,0.0,0.0,0.0,0.0,0.0,0.0,-0.0657,-0.0877,-0.1121,-0.1309,-0.1411,-0.138,-0.1358,-0.1389,-0.1204,0.0,0.0,0.0,-0.02,-0.0008,0.0084,0.0144,0.0164,-0.0215,-0.0539,-0.0816,-0.0981,-0.1121,-0.1233,-0.1317,0.0,0.0,0.0,0.0,0.0,0.0,0.0,0.0,0.0,0.0,0.0,0.0,0.0,0.0,0.0,0.0,0.0,0.0,0.0,0.0,0.0,0.0,0.0,0.0,0.0,0.0,0.0,0.0,0.0,0.0,0.0,0.0,0.0,0.0,0.0,0.0,0.0,0.0,0.0,0.0,0.0,0.0,0.0,0.0,0.0,0.0,0.0,0.0,0.0,0.0,0.0,0.0,0.0,0.0,0.0,0.0,0.0,0.0,0.0,0.0,0.0,0.0,0.0,-1.0859,-1.0714,-1.0625,-1.0625,-1.0859,-1.1201,-1.0167,-1.0272,-1.1094,-1.0221,0.0,0.0,0.0,0.0,0.0,0.0,0.0,0.0,0.0,0.0,0.0,0.0,0.0,0.0,0.0,0.0,0.0,0.0,0.0,-0.0299,-0.084,-0.1036,-0.134,-0.1858,-0.1692,-0.161,-0.1728,-0.1333,0.0,0.0,-0.0669,-0.0434,-0.0008,-0.0101,-0.0088,0.0029,-0.0258,-0.0427,-0.0476,-0.0776,-0.0932,-0.0966,-0.1373,-0.1557,-0.157,0.0,0.0,0.0,0.0,0.0,0.0,0.0,0.0,0.0,0.0,0.0,0.0,0.0,0.0,0.0,0.0,0.0,0.0,0.0,0.0,0.0,0.0,0.0,0.0,0.0,0.0,0.0,0.0,0.0,0.0,0.0,0.0,0.0,0.0,0.0,0.0,0.0,0.0,0.0,0.0,0.0,-0.4039,-0.4633,0.0,0.0,0.0,0.0,0.0,0.0,0.0,0.0,0.0,0.0,0.0,0.0,0.0,-0.8082,-0.9338,-1.1328,-1.1914,-1.11,-1.209,-1.2334,-1.195,-1.195,-1.2207,-1.2635,-1.2585,0.0,-1.2204,-1.2117,0.0,0.0,0.0,0.0,0.0,0.0,0.0,0.0,0.0,0.0,0.0,0.0,0.0,0.0,0.0,0.0,0.0,0.0,0.0,0.0,0.0,-0.139,-0.1828,-0.2091,-0.2317,-0.2401,-0.2313,-0.2112,-0.1864,-0.1558,-0.107,-0.0714,-0.0507,-0.0229,-0.0136,-0.0227,-0.045,-0.0512,-0.0404,-0.0669,-0.0645,-0.0411,-0.0879,-0.128,-0.1591,-0.1539,0.0,0.0,0.0,0.0,0.0,0.0,0.0,0.0,0.0,0.0,0.0,0.0,0.0,0.0,0.0,0.0,0.0,0.0,0.0,0.0,0.0,0.0,0.0,0.0,0.0,0.0,0.0,0.0,0.0,0.0,0.0,0.0,0.0,0.0,0.0,0.0,0.0,0.0,0.0,-0.3895,-0.4607,-0.5035,-0.5215,-0.5423,0.0,0.0,0.0,0.0,0.0,0.0,0.0,0.0,0.0,-1.0171,-0.9506,-0.9864,-1.1357,-1.2396,-1.2627,-1.2119,-1.2661,-1.2783,-1.2598,-1.2598,-1.2901,-1.3433,-1.3836,-1.4082,-1.4147,-1.3579,-1.3225,-1.2945,0.0,0.0,0.0,0.0,-1.2608,-1.2734,0.0,0.0,0.0,0.0,0.0,0.0,0.0,0.0,0.0,0.0,0.0,0.0,-0.0805,-0.1654,-0.224,-0.232,-0.2798,-0.2995,-0.2766,-0.2725,-0.2526,-0.2114,-0.148,-0.1014,-0.0781,-0.0263,-0.016,-0.0477,-0.0512,-0.0442,-0.0298,-0.0456,-0.0329,-0.002,-0.0359,-0.0845,-0.1361,-0.1277,-0.1437,-0.1728,0.0,0.0,0.0,0.0,0.0,0.0,0.0,0.0,0.0,0.0,0.0,0.0,0.0,0.0,0.0,0.0,0.0,0.0,0.0,0.0,0.0,0.0,0.0,0.0,0.0,0.0,0.0,0.0,0.0,0.0,0.0,0.0,0.0,0.0,0.0,0.0,0.0,-0.4593,-0.5284,-0.5601,-0.5939,-0.6364,0.0,0.0,0.0,0.0,0.0,0.0,-0.9613,-1.0358,-1.0964,-1.1367,-1.112,-1.1582,-1.2881,-1.2905,-1.2905,-1.2905,-1.2905,-1.2905,-1.2905,-1.2905,-1.3152,-1.3624,-1.4363,-1.4949,-1.5331,-1.4677,-1.4453,-1.4438,-1.3863,-1.3631,-1.3704,-1.428,-1.4513,-1.4639,0.0,0.0,0.0,0.0,0.0,0.0,0.0,0.0,0.0,0.0,0.0,-0.005,-0.0647,-0.1602,-0.2323,-0.2646,-0.293,-0.3043,-0.2905,-0.2774,-0.2436,-0.1847,-0.1781,-0.1333,-0.0446,-0.0145,-0.0222,-0.068,-0.025,-0.0035,-0.0019,-0.0039,-0.002,0.0,-0.002,-0.0304,-0.0754,-0.0999,-0.1299,-0.1582,-0.1253,0.0,0.0,0.0,0.0,0.0,0.0,0.0,0.0,0.0,0.0,0.0,0.0,0.0,0.0,0.0,0.0,0.0,0.0,0.0,0.0,0.0,0.0,0.0,0.0,0.0,0.0,0.0,0.0,0.0,0.0,0.0,0.0,0.0,0.0,0.0,0.0,0.0,0.0,-0.6506,-0.7048,0.0,0.0,0.0,0.0,-0.9506,-0.9985,-1.0398,-1.0793,-1.1639,-1.2106,-1.214,-1.255,-1.2813,-1.2905,-1.2905,-1.2905,-1.2905,-1.2905,-1.2905,-1.2905,-1.2905,-1.2929,-1.3017,-1.4177,-1.4732,-1.4801,-1.5365,-1.5622,-1.5569,-1.5037,-1.4812,-1.4884,-1.5424,-1.5618,-1.5693,0.0,0.0,0.0,0.0,0.0,-0.0853,-0.0287,0.0385,0.08,0.0712,0.0258,-0.022,-0.0657,-0.1789,-0.2564,-0.2692,-0.3029,-0.3131,-0.2917,-0.2769,-0.2434,-0.1832,-0.1596,-0.1283,-0.0855,-0.0841,-0.0788,-0.0706,-0.054,-0.0299,0.0,0.0,0.0,0.0,0.0,-0.0102,-0.0259,-0.0532,-0.0896,-0.1275,-0.1245,-0.1026,0.0,0.0,0.0,0.0,0.0,0.0,0.0,0.0,0.0,0.0,0.0,0.0,0.0,0.0,0.0,0.0,0.0,0.0,0.0,0.0,0.0,0.0,0.0,0.0,0.0,0.0,0.0,0.0,0.0,0.0,0.0,0.0,0.0,0.0,0.0,0.0,0.0,-0.7115,-0.7515,0.0,-0.9047,-0.9127,-0.9724,-1.1198,-1.1452,-1.1718,-1.2147,-1.2488,-1.2652,-1.2652,-1.2813,-1.2905,-1.2905,-1.2905,-1.3154,-1.3665,-1.4248,-1.4316,-1.3991,-1.3991,-1.4118,-1.4328,-1.4857,-1.5333,-1.5753,-1.6071,-1.6206,-1.6212,-1.5994,-1.5934,-1.5957,-1.6137,-1.6199,-1.6237,0.0,0.0,0.0,0.0,-0.1475,-0.0744,-0.0268,0.0424,0.0832,0.063,0.0249,-0.0139,-0.0491,-0.1649,-0.2353,-0.2232,-0.2735,-0.2927,-0.2621,-0.2549,-0.2315,-0.1817,-0.1434,-0.1286,-0.1404,-0.1337,-0.1273,-0.1204,-0.0863,-0.057,-0.0301,-0.0104,0.0,0.0,0.0,0.0,-0.0021,-0.0182,-0.0505,-0.0872,-0.0961,-0.0828,-0.0577,0.0,0.0,0.0,0.0,0.0,0.0,0.0,0.0,0.0,0.0,0.0,0.0,0.0,0.0,0.0,0.0,0.0,0.0,0.0,0.0,0.0,0.0,0.0,0.0,0.0,0.0,0.0,0.0,0.0,0.0,0.0,0.0,0.0,0.0,0.0,-0.7188,-0.7575,-0.7983,-0.8602,-0.9636,-1.0075,-1.0903,-1.2335,-1.2706,-1.2924,-1.3076,-1.3232,-1.3242,-1.3096,-1.3145,-1.3262,-1.3473,-1.335,-1.373,-1.4543,-1.4941,-1.495,-1.4615,-1.449,-1.4683,-1.5153,-1.5471,-1.6,-1.6646,-1.6935,-1.7084,-1.7036,-1.6656,-1.65,-1.65,-1.65,-1.65,-1.6525,0.0,0.0,0.0,-0.2138,-0.1389,-0.0744,-0.0275,0.0429,0.0781,0.0454,0.0401,0.0246,-0.0138,-0.115,-0.1647,-0.1331,-0.2068,-0.2382,-0.1995,-0.2097,-0.2054,-0.1809,-0.1371,-0.1406,-0.2008,-0.1585,-0.1625,-0.2204,-0.1231,-0.0821,-0.0918,-0.0314,-0.0022,-0.0022,0.0,0.0,0.0,0.0,-0.0146,-0.0383,-0.0397,-0.059,-0.0844,0.0,0.0,0.0,0.0,0.0,0.0,0.0,0.0,0.0,0.0,0.0,0.0,0.0,0.0,0.0,0.0,0.0,0.0,0.0,0.0,0.0,0.0,0.0,0.0,0.0,0.0,0.0,0.0,0.0,0.0,0.0,0.0,0.0,-0.6633,-0.7366,-0.7925,-0.7932,-0.8445,-0.9075,-0.9751,-1.0827,-1.1907,-1.2832,-1.3638,-1.3929,-1.3545,-1.389,-1.3919,-1.3545,-1.3646,-1.4014,-1.4568,-1.4297,-1.4552,-1.5381,-1.4872,-1.4617,-1.4608,-1.4307,-1.4549,-1.5278,-1.592,-1.6625,-1.7363,-1.7976,-1.8201,-1.8101,-1.6989,-1.655,-1.6559,-1.655,-1.655,-1.6638,0.0,0.0,-0.2891,-0.213,-0.139,-0.074,-0.0273,0.0425,0.087,0.0771,0.047,0.0217,0.0097,-0.0828,-0.1396,-0.1303,-0.1424,-0.1462,-0.1353,-0.1289,-0.138,-0.1646,-0.1715,-0.1944,-0.2361,-0.2421,-0.237,-0.2204,-0.2062,-0.1842,-0.1541,-0.094,-0.065,-0.0627,-0.0202,0.0,0.0,0.0,-0.0044,-0.0127,-0.0312,-0.0332,-0.0264,0.0,0.0,0.0,0.0,0.0,0.0,0.0,0.0,0.0,0.0,0.0,0.0,0.0,0.0,0.0,0.0,0.0,0.0,0.0,0.0,0.0,0.0,0.0,0.0,0.0,0.0,0.0,0.0,0.0,0.0,0.0,0.0,-0.7539,-0.7539,-0.7963,-0.833,-0.8544,-0.8871,-0.9384,-1.0092,-1.116,-1.2098,-1.2831,-1.3638,-1.4055,-1.3938,-1.4046,-1.4055,-1.3938,-1.4209,-1.4307,-1.4248,-1.4767,-1.5029,-1.4961,-1.5107,-1.5176,-1.5176,-1.5098,-1.5445,-1.6157,-1.649,-1.7054,-1.7767,-1.8064,-1.8191,-1.8161,-1.7841,-1.7741,-1.774,-1.7723,-1.7739,-1.7765,0.0,-0.3707,-0.3033,-0.2298,-0.1557,-0.0888,-0.0363,0.0394,0.0811,0.0555,0.0509,0.0391,0.0139,-0.0403,-0.0804,-0.092,-0.0853,-0.087,-0.1006,-0.1001,-0.1135,-0.1458,-0.1816,-0.2202,-0.2655,-0.2818,-0.2949,-0.303,-0.2686,-0.2503,-0.249,-0.1673,-0.1274,-0.1252,-0.0918,-0.0761,-0.0761,-0.0761,-0.0761,-0.0736,-0.0658,-0.0369,-0.002,-0.0174,-0.0202,-0.0204,-0.0469,-0.0884,-0.1296,-0.1396,0.0,0.0,0.0,0.0,0.0,0.0,0.0,0.0,0.0,0.0,0.0,0.0,0.0,0.0,0.0,0.0,0.0,0.0,0.0,0.0,0.0,0.0,0.0,0.0,-0.7695,-0.8156,-0.8258,-0.845,-0.8617,-0.8784,-0.9038,-0.9424,-0.9988,-1.1338,-1.2408,-1.2912,-1.4007,-1.4562,-1.4387,-1.4543,-1.4562,-1.4414,-1.4746,-1.4834,-1.464,-1.5166,-1.5283,-1.5049,-1.5293,-1.541,-1.541,-1.541,-1.5968,-1.6968,-1.7087,-1.7739,-1.8714,-1.8809,-1.8871,0.0,0.0,0.0,0.0,0.0,-1.8355,-1.8531,0.0,-0.3986,-0.3395,-0.2643,-0.1936,-0.1257,-0.0605,0.0265,0.0669,0.0168,0.0565,0.0697,0.0166,0.0014,-0.0129,-0.0334,-0.0381,-0.0539,-0.0854,-0.1034,-0.1198,-0.1373,-0.1823,-0.2339,-0.2885,-0.2978,-0.3407,-0.4189,-0.3275,-0.3128,-0.3676,-0.26,-0.2093,-0.2093,-0.1962,-0.1895,-0.1895,-0.1828,-0.1808,-0.1763,-0.1206,-0.065,-0.0089,-0.002,-0.0152,-0.0352,-0.0409,-0.103,-0.179,-0.1694,0.0,0.0,0.0,0.0,0.0,0.0,0.0,0.0,0.0,0.0,0.0,0.0,0.0,0.0,0.0,0.0,0.0,0.0,0.0,0.0,0.0,0.0,0.0,0.0,-0.8257,-0.8564,-0.8818,-0.8884,-0.8891,-0.8864,-0.9084,-0.9377,-0.9706,-1.1511,-1.273,-1.2984,-1.4481,-1.5244,-1.4873,0.0,0.0,0.0,0.0,-1.541,-1.541,-1.541,-1.541,-1.541,-1.541,-1.541,-1.541,-1.541,-1.6187,-1.7605,-1.7605,-1.8447,-1.9798,-1.9798,-1.9798,-1.9711,-1.8746,-1.8388,-1.8387,-1.8383,-1.8669,-1.9096,0.0,-0.4476,-0.4198,-0.336,-0.2868,-0.226,-0.1278,-0.0207,0.0557,0.0704,0.0827,0.086,0.0745,0.0095,-0.0253,-0.0086,-0.0278,-0.0502,0.0,0.0,-0.1435,-0.1843,-0.2316,-0.2673,-0.2889,-0.3484,-0.3925,-0.4189,-0.4587,-0.4828,-0.493,-0.4218,-0.3887,-0.3865,-0.2948,-0.2529,-0.2487,-0.2004,-0.1808,-0.1784,-0.1673,-0.1274,-0.0668,-0.0189,-0.0041,-0.0124,-0.0505,-0.1149,-0.1835,-0.2029,-0.2476,-0.2954,-0.2812,0.0,0.0,0.0,0.0,0.0,0.0,0.0,0.0,0.0,0.0,0.0,0.0,0.0,0.0,0.0,0.0,0.0,0.0,0.0,0.0,-0.8223,-0.8731,-0.9064,-0.9124,-0.9365,-0.9426,-0.9158,-0.9419,-0.9713,-1.0007,-1.1767,-1.2934,-1.3,-1.4481,-1.5381,-1.5293,-1.5371,-1.5371,-1.5293,-1.5371,-1.541,-1.541,-1.541,-1.541,-1.541,0.0,0.0,-1.541,-1.541,-1.6187,-1.7605,-1.7605,-1.8447,-1.9798,-1.9798,-1.9798,-1.9773,-1.9573,-1.9497,-1.9496,-1.9484,-1.956,-1.966,-0.5697,-0.537,-0.4795,-0.399,-0.36,-0.3019,-0.1877,-0.0621,0.031,0.0612,0.0914,0.0988,0.0687,0.0264,-0.0051,-0.0186,-0.0321,0.0,0.0,-0.1077,-0.1508,-0.1975,-0.2512,-0.2862,-0.2993,-0.3722,-0.432,-0.4747,-0.5124,-0.5599,-0.6128,-0.5266,-0.5002,-0.5219,-0.4366,-0.3829,-0.3522,-0.324,-0.2993,-0.2776,-0.2404,-0.2101,-0.1789,-0.0816,-0.0261,-0.0065,-0.0613,-0.1104,-0.1592,-0.2151,-0.2737,-0.3177,-0.3049,-0.2916,-0.2811,0.0,0.0,0.0,0.0,0.0,0.0,0.0,0.0,0.0,0.0,0.0,0.0,0.0,0.0,-0.7142,0.0,0.0,-0.8297,-0.8738,-0.9024,-0.9264,-0.9439,-0.9593,-0.9626,-0.9479,-0.9719,-0.996,-1.01,-1.1859,-1.3009,-1.3009,-1.4481,-1.541,-1.541,-1.541,-1.541,-1.541,-1.541,-1.541,-1.541,-1.541,-1.541,-1.541,-1.541,-1.541,-1.541,-1.541,-1.6187,-1.7605,-1.7605,-1.8447,-1.9798,-1.9798,-1.9798,-1.9798,-1.9798,-1.9798,-1.9798,-1.9798,-1.9798,-1.9798,-0.6805,-0.6234,-0.5434,-0.4727,-0.4364,-0.3749,-0.2471,-0.1082,-0.0055,0.0278,0.0792,0.0939,0.0451,0.0301,0.0069,-0.0366,-0.0348,0.0,0.0,-0.1126,-0.1568,-0.2143,-0.2649,-0.2973,-0.3141,-0.3947,-0.467,-0.5303,-0.5518,-0.6091,-0.6973,-0.607,-0.5872,-0.6253,-0.5706,-0.513,-0.4561,-0.4456,-0.4144,-0.3714,-0.3119,-0.2866,-0.2732,-0.1629,-0.085,-0.0403,-0.0805,-0.1177,-0.1564,-0.2273,-0.2842,-0.3241,-0.3142,-0.3089,-0.3091,-0.3228,-0.329,0.0,0.0,0.0,0.0,0.0,0.0,0.0,0.0,0.0,-0.6628,-0.6966,-0.7401,-0.7826,-0.8032,-0.8297,-0.8631,-0.9124,-0.9257,-0.9397,-0.9726,-0.9849,-0.9883,-0.9883,-1.0007,-1.0194,-1.0401,-1.1989,-1.307,-1.3221,-1.4569,-1.541,-1.541,-1.541,-1.541,-1.541,-1.541,-1.541,-1.541,-1.541,-1.541,-1.541,-1.541,-1.541,-1.541,-1.5555,-1.633,-1.7633,-1.7895,-1.8688,-1.9798,-1.9798,-1.9798,-1.9798,-1.9798,-1.9798,-1.9798,-1.9798,-1.9798,-1.9798,0.0,-0.6562,-0.6377,-0.5821,-0.5393,-0.4632,-0.313,-0.17,-0.0597,-0.0033,0.0311,0.047,0.0406,-0.0022,-0.0335,-0.0395,-0.0182,0.0,-0.1177,-0.1272,-0.174,-0.2745,-0.2864,-0.302,-0.3276,-0.4412,-0.5101,-0.5303,-0.631,-0.6867,-0.7,-0.6867,-0.6846,-0.6867,-0.6343,-0.5766,-0.5173,-0.4631,-0.4104,-0.3624,-0.3541,-0.3179,-0.2692,-0.2364,-0.196,-0.1563,-0.1271,-0.1676,-0.2364,-0.2471,-0.2773,-0.3125,-0.3109,-0.3024,-0.2949,-0.3079,0.0,-0.3455,-0.3357,-0.3834,-0.4526,-0.5241,-0.5728,-0.6397,0.0,0.0,-0.7864,-0.8448,-0.8606,-0.8671,-0.8704,-0.8738,-0.8864,-0.9158,-0.9459,-0.974,-1.0027,-1.0294,-1.0492,-1.0492,-1.0254,-1.0512,-1.1505,-1.2457,-1.3312,-1.3995,-1.4894,-1.541,-1.541,-1.541,-1.541,-1.541,-1.541,-1.541,-1.541,-1.541,-1.541,-1.541,-1.541,-1.541,-1.541,-1.6093,-1.681,-1.766,-1.8992,-1.9643,-1.9798,-1.9798,-1.9798,-1.9798,-1.9798,-1.9798,-1.9798,-1.9798,-1.9798,-1.9798,0.0,-0.6993,-0.665,-0.5908,-0.5517,-0.4828,-0.3444,-0.2203,-0.1132,-0.0334,0.0133,0.0345,0.0189,-0.0033,-0.0168,-0.0168,-0.006,-0.0364,-0.1246,-0.1301,-0.1751,-0.273,-0.294,-0.3071,-0.3172,-0.4516,-0.5254,-0.5303,-0.6444,-0.7168,-0.751,-0.7175,-0.7196,-0.7489,-0.6605,-0.5873,-0.526,-0.4648,-0.4347,-0.4195,-0.3768,-0.3712,-0.3816,-0.3286,-0.2988,-0.2711,-0.1587,-0.204,0.0,0.0,-0.2748,-0.3047,-0.3095,-0.3054,-0.3075,-0.3313,-0.3528,0.0,-0.4132,-0.482,-0.5554,-0.6027,-0.6678,-0.7393,-0.822,-0.83,-0.8304,-0.8718,-0.8804,-0.8804,-0.8804,-0.8804,-0.8958,0.0,-0.9599,-0.9876,-1.0338,-1.0327,-1.0448,-1.0833,-1.0424,-1.0557,-1.168,-1.2543,-1.3334,-1.4145,-1.4962,-1.541,-1.541,-1.5654,-1.5821,-1.5821,-1.5821,-1.5821,-1.5821,-1.5537,-1.541,-1.541,-1.541,-1.541,-1.5439,-1.6179,-1.7146,-1.8325,-1.9715,-2.0327,-2.0352,-2.0652,-2.0616,-2.0314,-2.0321,-2.0117,-1.9798,-1.9798,-1.9798,-1.9798,0.0,-0.6993,-0.6473,-0.5834,-0.5399,-0.4744,-0.36,-0.2562,-0.1645,-0.0889,-0.03,0.0,-0.01,-0.0112,-0.0078,-0.0011,0.0,-0.0328,-0.1091,-0.1239,-0.1687,-0.2517,-0.2869,-0.306,-0.3101,-0.4502,-0.5254,-0.5254,-0.6428,-0.7217,-0.7642,-0.721,-0.7147,-0.7384,-0.6562,-0.5766,-0.5022,-0.4587,-0.4488,-0.4561,-0.4036,-0.4148,-0.4529,-0.3803,-0.3442,-0.3226,-0.2215,-0.2327,0.0,0.0,-0.2406,-0.2741,-0.2786,-0.2891,-0.305,-0.3371,-0.3593,-0.3926,-0.4739,-0.5503,-0.6177,-0.6683,-0.7426,-0.8109,-0.8446,-0.8518,-0.8567,-0.8752,-0.8804,-0.8804,-0.8804,-0.8804,-0.8998,-0.9586,-0.9715,-0.9916,-1.0506,-1.0307,-1.0322,-1.09,-1.0457,-1.0618,-1.1989,-1.2665,-1.3433,-1.4451,-1.5079,-1.5469,-1.5586,-1.5919,-1.6153,-1.6271,-1.6281,-1.6281,-1.6281,-1.5937,-1.5713,-1.5586,-1.5586,-1.5527,-1.5449,-1.6561,-1.7762,-1.9018,-2.0196,-2.0691,-2.0729,-2.1119,-2.0955,-2.0467,-2.0642,-2.0335,-1.9798,-1.9798,-1.9798,-1.9798,0.0,0.0,-0.583,-0.5803,-0.5193,-0.4448,-0.3622,-0.2757,-0.2079,-0.1792,-0.1236,-0.0736,-0.0423,-0.039,-0.0279,-0.0022,0.0,-0.021,-0.069,-0.1089,-0.1581,-0.2194,-0.265,-0.2963,-0.3098,-0.4421,-0.5101,-0.5101,-0.6377,-0.7,-0.7021,-0.7,-0.6725,-0.6243,-0.6221,-0.5545,-0.443,-0.4413,-0.4417,-0.4399,-0.4391,-0.4391,-0.4331,-0.3594,-0.3065,-0.279,-0.3326,0.0,-0.1277,-0.1249,-0.16,-0.204,-0.2038,-0.2354,0.0,-0.3032,-0.3348,-0.3828,-0.4827,-0.5399,-0.5964,-0.7017,-0.7838,-0.8456,-0.8725,-0.8784,-0.8778,-0.8804,-0.8804,-0.8804,-0.8804,-0.8804,-0.8998,-0.9586,-0.9715,-0.9916,-1.0506,-1.0307,-1.0227,-1.0577,-1.0325,-1.0854,0.0,-1.2978,-1.3666,-1.5235,-1.5381,-1.5596,-1.6046,-1.6085,-1.629,-1.6668,-1.6677,-1.6677,-1.6677,-1.6668,-1.6475,-1.6075,-1.6075,-1.585,-1.5478,-1.7521,-1.8856,-1.9622,-2.037,-2.0691,-2.0691,-2.0717,-2.0377,-1.9874,-2.0476,-2.0335,-1.9798,-1.9798,-1.9798,-1.9798,0.0,0.0,0.0,-0.5097,-0.4864,-0.4486,-0.3862,-0.3361,-0.2906,-0.2454,-0.1876,0.0,0.0,0.0,0.0,0.0,0.0268,0.0081,-0.0337,-0.0706,-0.1246,-0.203,-0.2305,-0.2609,-0.2959,-0.4143,-0.4766,-0.4766,-0.5905,-0.6466,-0.6466,-0.6466,-0.6251,-0.5864,-0.5488,-0.4998,-0.4369,-0.403,-0.4312,-0.4942,-0.4363,-0.4436,-0.4755,-0.3856,-0.3008,-0.2203,0.0,0.0,-0.1172,-0.0942,-0.1317,-0.1878,-0.1964,-0.232,-0.2761,-0.3016,-0.3589,-0.4252,-0.4817,-0.5918,-0.6995,-0.7336,-0.8063,-0.8685,-0.8778,-0.8804,-0.8804,-0.8804,-0.8804,-0.8804,-0.8804,-0.8804,-0.8998,-0.9586,-0.9715,-0.9916,-1.0506,-1.0779,-1.1122,-1.1721,-1.1778,0.0,0.0,0.0,0.0,-1.5294,-1.541,-1.5596,-1.6065,-1.6348,-1.6709,-1.7148,-1.7168,-1.7168,-1.7168,-1.6843,-1.6619,-1.6504,-1.6242,-1.6277,-1.6641,-1.7915,-1.9051,-2.0034,-2.0859,-2.1232,-2.127,-2.1606,-2.143,-2.0955,-2.1152,-2.088,-2.0348,-1.9938,-1.9798,-1.9798,0.0,0.0,0.0,0.0,0.0,0.0,0.0,0.0,0.0,0.0,0.0,0.0,0.0,0.0,0.0,0.0,0.0,0.0285,0.0036,-0.0433,-0.0955,-0.1516,-0.1873,-0.2193,-0.2498,-0.3573,-0.4164,-0.4205,-0.5161,-0.5663,-0.5745,-0.5893,-0.5719,-0.5292,-0.4957,-0.4571,-0.4157,-0.3644,-0.3976,-0.4787,-0.423,-0.4278,-0.4626,-0.3935,-0.2936,0.0,-0.082,-0.0601,-0.0734,-0.0519,-0.0974,-0.1635,-0.1718,-0.2408,-0.3176,-0.3249,-0.4041,-0.4956,-0.5336,-0.6447,-0.7571,-0.7891,-0.8389,-0.8804,-0.8804,-0.8804,-0.8804,-0.8804,-0.873,-0.8677,-0.8784,-0.8724,-0.8844,-0.9432,-0.9613,-0.9883,-1.0334,-1.0938,-1.1524,-1.2111,-1.2429,-1.3104,0.0,0.0,0.0,-1.5294,-1.5557,-1.584,-1.6279,-1.6728,-1.7158,-1.7598,-1.7607,-1.7607,-1.7607,-1.7324,-1.7077,-1.6963,-1.6514,-1.6575,-1.7062,-1.8389,-1.9404,-2.0146,-2.1092,-2.1606,-2.1794,-2.1945,-2.1807,-2.1493,-2.1493,-2.1165,-2.0628,-2.0014,-1.9938,-2.0105,0.0,0.0,0.0,0.0,0.0,0.0,0.0,0.0,0.0,0.0,0.0,0.0,0.0,0.0,0.0,0.0,0.0,0.0,0.0423,-0.0251,0.0,-0.0703,-0.1366,-0.1764,-0.18,-0.2754,-0.3324,-0.3468,-0.4189,-0.4634,-0.4846,-0.5211,-0.5087,-0.4525,-0.4525,-0.4243,-0.3744,-0.3294,-0.344,-0.3982,-0.3973,-0.3965,-0.3957,-0.3814,-0.2866,-0.1585,-0.1409,-0.08,-0.007,-0.0039,-0.0624,-0.1357,-0.1386,-0.258,-0.3927,-0.3716,-0.4638,-0.5823,-0.6333,-0.6998,-0.7773,-0.86,-0.8804,-0.8804,-0.8804,-0.8804,-0.8804,-0.8778,-0.8575,-0.8477,0.0,0.0,-0.8577,-0.9098,-0.9494,-0.9861,-1.0117,-1.089,-1.1571,0.0,0.0,0.0,0.0,0.0,0.0,-1.542,0.0,-1.63,-1.6707,-1.7158,-1.7578,-1.7998,-1.8008,-1.8008,-1.8008,-1.8008,-1.7812,-1.7402,-1.696,-1.6746,-1.6809,-1.8928,-1.9913,-2.0017,-2.1075,-2.1832,-2.2272,-2.1744,-2.1531,-2.1531,-2.1531,-2.1232,-2.0704,-2.0075,-2.0232,-2.0656,0.0,0.0,0.0,0.0,0.0,0.0,0.0,0.0,0.0,0.0,0.0,0.0,0.0,0.0,0.0,0.0,0.0,0.0,0.077,0.0363,0.0,0.0,-0.0883,-0.1243,-0.1783,-0.2339,-0.2773,-0.305,-0.3539,-0.3799,-0.3857,-0.3961,-0.3873,-0.3637,-0.3637,-0.3498,-0.3278,-0.3159,-0.3392,-0.3823,-0.3573,-0.3486,-0.3481,-0.3443,-0.2728,-0.1768,-0.192,-0.154,-0.0924,-0.0618,0.0,0.0,0.0,-0.303,-0.3602,-0.4233,-0.5194,-0.6233,-0.7008,-0.7832,-0.8514,-0.8745,-0.8804,-0.8804,-0.8804,-0.8804,-0.8745,-0.854,-0.8462,-0.8351,0.0,0.0,0.0,-0.8838,-0.985,0.0,-1.0966,-1.2412,0.0,-1.407,0.0,-1.5446,-1.6007,-1.6045,0.0,0.0,-1.6191,-1.6427,-1.7178,-1.7324,-1.7578,-1.7998,-1.8008,-1.8008,-1.8008,-1.8008,-1.7784,-1.7408,-1.7293,-1.722,-1.7282,-1.908,-2.0073,-2.0473,-2.1606,-2.2184,-2.2297,-2.2159,-2.2108,-2.2108,-2.2108,-2.202,-2.1782,-2.0834,-2.0828,-2.1224,0.0,0.0,0.0,0.0,0.0,0.0,0.0,0.0,0.0,0.0,0.0,0.0,0.0,0.0,0.0,0.0,0.0,0.0,0.0,0.0646,0.0216,-0.0202,-0.0441,-0.0828,-0.1398,-0.1736,-0.211,-0.2502,0.0,0.0,-0.2937,-0.314,-0.3194,-0.3127,-0.3127,-0.3074,-0.2996,-0.2798,-0.2865,0.0,0.0,-0.2818,-0.2824,-0.292,-0.2469,-0.1823,-0.2033,0.0,0.0,0.0,0.0,-0.2522,-0.3126,-0.3587,-0.3998,-0.4369,0.0,-0.6733,-0.703,-0.7921,-0.8804,-0.8804,-0.8804,-0.8764,-0.8649,-0.8622,-0.8542,-0.8243,-0.8088,-0.7939,-0.7762,-0.8218,0.0,0.0,0.0,0.0,-1.1526,-1.308,-1.4357,0.0,-1.5619,0.0,-1.6658,-1.6697,-1.6775,0.0,-1.6819,-1.6887,-1.7353,-1.7559,-1.7764,-1.8008,-1.8008,-1.8008,-1.8008,-1.8008,-1.7876,-1.7658,-1.7658,-1.787,-1.8271,-1.9608,-2.0559,-2.1204,0.0,-2.2418,-2.2631,-2.241,-2.2447,-2.2594,-2.2133,-2.2096,-2.2171,-2.11,-2.119,-2.1762,0.0,0.0,0.0,0.0,0.0,0.0,0.0,0.0,0.0,0.0,0.0,0.0,0.0,0.0,0.0,0.0,0.0,0.0,0.0,0.0,0.0,0.0401,-0.0078,-0.0523,-0.0892,-0.1127,-0.1481,-0.1968,0.0,0.0,0.0,0.0,0.0,0.0,-0.278,-0.2797,-0.2777,-0.2373,-0.2184,-0.2167,-0.2167,-0.2167,-0.2171,0.0,0.0,0.0,0.0,0.0,0.0,0.0,-0.2684,-0.2915,-0.3455,-0.4084,-0.4586,-0.4404,-0.5705,-0.7146,-0.6839,-0.7747,-0.8804,-0.8804,-0.8804,-0.8737,-0.8455,-0.839,-0.8303,-0.7919,-0.7657,-0.7489,-0.7434,-0.8129,-0.8728,-0.8749,0.0,-1.1701,-1.1914,-1.3203,-1.4381,-1.5053,-1.5735,-1.6348,-1.6824,-1.6872,-1.7028,-1.7441,-1.7471,-1.7471,-1.7471,-1.7812,-1.8008,-1.8008,-1.8008,-1.8008,-1.8008,-1.8008,-1.8008,-1.8008,-1.8008,-1.8455,-1.9337,-2.0205,-2.1079,-2.1916,-2.2268,0.0,-2.3058,-2.2594,-2.2681,-2.3007,-2.2083,-2.1995,-2.2288,-2.129,-2.1537,-2.2326,0.0,0.0,0.0,0.0,0.0,0.0,0.0,0.0,0.0,0.0,-0.3234,-0.2853,0.0,0.0,0.0,0.0,0.0,0.0,0.0,0.0,0.0,0.0412,0.0101,-0.0325,-0.0892,-0.0948,-0.1257,0.0,0.0,0.0,0.0,0.0,0.0,0.0,0.0,0.0,-0.2318,-0.2238,-0.2137,-0.2039,-0.2039,-0.1974,-0.1901,0.0,0.0,0.0,0.0,0.0,0.0,-0.2938,-0.3189,-0.3487,-0.37,-0.3993,-0.4397,-0.4949,-0.588,-0.6822,-0.7376,-0.8139,-0.8804,-0.8804,-0.8804,-0.8737,-0.8455,-0.839,0.0,0.0,-0.7532,-0.7419,-0.7137,-0.7444,-0.7813,-0.8036,-0.9354,-1.0743,-1.1908,-1.3123,-1.4516,0.0,-1.6517,-1.6892,-1.7715,-1.775,0.0,0.0,0.0,-1.79,-1.79,-1.7969,-1.8008,-1.8008,-1.8008,-1.8008,-1.8008,-1.8008,-1.8008,-1.8008,-1.8008,-1.8455,-1.9326,-2.0199,-2.108,-2.1939,-2.2664,0.0,-2.3095,-2.2995,-2.302,-2.3083,-2.2895,-2.2882,-2.2877,-2.2233,-2.2422,-2.2871,0.0,0.0,0.0,0.0,0.0,0.0,0.0,-0.3495,-0.3495,-0.3495,-0.3266,-0.2934,-0.2514,-0.2047,-0.1345,0.0,0.0,0.0,0.0,0.0,0.0,0.0,0.0,-0.0202,-0.0635,0.0,0.0,0.0,0.0,0.0,0.0,0.0,0.0,0.0,0.0,0.0,0.0,0.0,0.0,0.0,0.0,0.0,0.0,0.0,0.0,0.0,0.0,0.0,0.0,-0.2969,-0.3263,-0.3628,-0.3748,-0.3982,-0.428,-0.4614,-0.5628,-0.6674,-0.7042,-0.7945,-0.8804,-0.8804,-0.8804,-0.8684,-0.8239,0.0,0.0,0.0,-0.7141,-0.6984,-0.6821,-0.7355,0.0,-0.8174,-0.9403,-1.0855,-1.2405,-1.3147,0.0,-1.5595,-1.5901,-1.6267,0.0,-1.7154,0.0,0.0,0.0,-1.8008,-1.8008,-1.8008,-1.8008,-1.8008,-1.8008,-1.8008,-1.8008,-1.8008,-1.8008,-1.8008,-1.8008,-1.87,-1.9998,-2.0427,-2.1289,-2.2549,-2.2914,0.0,-2.3108,-2.3108,-2.3108,-2.3083,-2.2794,-2.2844,-2.3045,-2.2498,-2.2648,-2.302,0.0,0.0,0.0,0.0,0.0,0.0,0.0,-0.3495,-0.3495,-0.3495,-0.3266,-0.2993,-0.2729,-0.2348,-0.1676,0.0,0.0,0.0,0.0,0.0,0.0,0.0,0.0,0.0,0.0,0.0,0.0,0.0,0.0,0.0,0.0,0.0,0.0,0.0,0.0,0.0,0.0,0.0,0.0,0.0,0.0,0.0,0.0,0.0,0.0,0.0,0.0,0.0,0.0,0.0,-0.3144,-0.3484,-0.3602,-0.3894,-0.4151,-0.4181,-0.5313,-0.657,-0.6595,-0.7691,-0.8804,-0.8804,-0.8804,-0.8651,-0.8039,-0.7899,0.0,-0.7048,-0.6747,-0.66,-0.6606,-0.7257,-0.7879,0.0,-0.9274,-1.0648,-1.2405,-1.2725,-1.3353,0.0,-1.5034,0.0,-1.6278,0.0,0.0,0.0,0.0,0.0,-1.8008,-1.8008,-1.8008,-1.8008,-1.8008,-1.8008,-1.8008,-1.8008,-1.8008,-1.8008,-1.8008,-1.8824,-2.0319,-2.05,-2.1422,-2.2857,-2.301,0.0,0.0,-2.3108,-2.3108,-2.3058,-2.2631,-2.2732,-2.305,-2.262,-2.2752,-2.3037,0.0,0.0,0.0,0.0,0.0,0.0,0.0,-0.3495,-0.3495,-0.3495,-0.3266,-0.2993,-0.2729,-0.2187,-0.1568,0.0,0.0,0.0,0.0,0.0,0.0,0.0,0.0,0.0,0.0,0.0,0.0,0.0,0.0,0.0,0.0,0.0,0.0,0.0,0.0,0.0,0.0,0.0,0.0,0.0,0.0,0.0,0.0,0.0,0.0,0.0,0.0,0.0,0.0,0.0,0.0,-0.2995,-0.3118,-0.3553,-0.4036,-0.4166,0.0,0.0,-0.6578,-0.7667,-0.8804,-0.8804,-0.8804,-0.8651,-0.8039,0.0,-0.7649,-0.6807,-0.6607,-0.6606,-0.6603,-0.6673,-0.6937,-0.7504,0.0,-0.8859,-1.0914,-1.1139,-1.2155,-1.5031,0.0,0.0,0.0,0.0,0.0,0.0,0.0,0.0,-1.8008,-1.8008,-1.8008,-1.8008,-1.8008,-1.8008,-1.8008,-1.8008,-1.8008,-1.8008,-1.8008,-1.8499,-1.9436,-2.0224,-2.1122,-2.2055,-2.279,0.0,0.0,-2.3108,-2.3108,-2.3095,-2.3045,-2.3058,-2.3095,-2.3037,-2.3062,-2.3095,0.0,0.0,0.0,0.0,0.0,0.0,-0.3495,-0.3495,-0.3442,-0.3277,-0.3025,-0.274,-0.2437,-0.2044,-0.156,-0.0948,0.0,0.0,0.0,0.0,0.0,0.0,0.0,0.0,0.0,0.0,0.0,0.0,0.0,0.0,0.0,0.0,0.0,0.0,0.0,0.0,0.0,0.0,0.0,0.0,0.0,0.0,0.0,0.0,0.0,0.0,0.0,0.0,0.0,0.0,0.0,0.0,-0.2956,-0.3195,0.0,0.0,-0.5055,-0.6421,-0.6457,-0.762,-0.8804,-0.8804,-0.8804,-0.8651,-0.8039,-0.7899,-0.769,-0.6981,-0.6713,-0.6653,-0.6814,-0.67,-0.6904,-0.7839,-0.7946,-0.8528,-1.0367,-1.0621,-1.131,-1.3178,-1.3643,0.0,0.0,0.0,0.0,0.0,0.0,0.0,-1.8008,-1.8008,-1.8008,-1.8008,-1.8008,-1.8008,-1.8008,-1.8008,-1.8008,-1.8008,-1.8008,-1.8742,-2.0107,-2.0441,-2.1336,-2.265,-2.2955,0.0,0.0,-2.3108,-2.3108,-2.3108,-2.3108,-2.3108,-2.3108,-2.3108,-2.3108,-2.3045,0.0,0.0,0.0,0.0,0.0,-0.3383,-0.3383,-0.3453,-0.3404,-0.3132,-0.2864,-0.2546,-0.2128,-0.1825,-0.1405,-0.0803,-0.0366,0.0,0.0,0.0,0.0,0.0,0.0,0.0,0.0,0.0,0.0,0.0,0.0,0.0,0.0,0.0,0.0,0.0,0.0,0.0,0.0,0.0,0.0,0.0,0.0,0.0,0.0,0.0,0.0,0.0,0.0,0.0,0.0,0.0,0.0,0.0,0.0,-0.294,-0.3108,0.0,-0.4722,-0.5967,-0.6044,-0.7257,-0.848,-0.848,-0.8586,-0.8566,-0.8094,-0.7804,-0.7509,-0.7085,-0.6639,-0.6445,-0.6807,-0.6662,-0.6851,-0.7997,-0.8092,-0.8522,-0.9994,-1.0358,-1.0822,0.0,0.0,0.0,0.0,0.0,0.0,0.0,0.0,0.0,-1.8008,-1.8008,-1.8008,-1.8008,-1.8008,-1.8008,-1.8008,-1.8008,-1.8008,-1.8008,-1.8008,-1.8767,-2.0234,-2.0478,-2.1368,-2.276,-2.2997,0.0,0.0,-2.3108,-2.3108,-2.3108,-2.3108,-2.3108,-2.3108,-2.3108,-2.3108,-2.3045,0.0,0.0,0.0,0.0,0.0,0.0,-0.31,-0.333,-0.3404,-0.3132,-0.2864,-0.247,-0.1869,-0.1507,-0.1061,-0.0457,-0.0401,0.0,0.0,0.0,0.0,0.0,0.0,0.0,0.0,0.0,-0.014,-0.0401,-0.04,0.0,0.0,0.0,0.0,0.0,0.0,0.0,0.0,0.0,0.0,0.0,0.0,0.0,0.0,0.0,0.0,0.0,0.0,0.0,0.0,0.0,0.0,0.0,0.0,-0.2788,-0.2998,0.0,-0.4221,-0.4963,-0.5251,-0.6497,-0.7723,-0.7723,-0.8057,-0.8365,-0.8235,-0.7594,-0.7016,-0.6993,-0.6318,-0.5895,-0.6501,-0.6388,-0.6582,-0.7709,-0.813,-0.8618,-0.9579,-1.0213,0.0,0.0,0.0,0.0,0.0,0.0,0.0,0.0,0.0,0.0,-1.8008,-1.8008,-1.8008,-1.8008,-1.8008,-1.8008,-1.8008,-1.8008,-1.8008,-1.8008,-1.8008,-1.8466,-1.9338,-2.0205,-2.1092,0.0,0.0,0.0,0.0,-2.3108,-2.3108,-2.3108,-2.3108,-2.3108,-2.3108,-2.3108,-2.3108,-2.3108,0.0,0.0,0.0,0.0,0.0,0.0,0.0,-0.317,-0.3132,-0.2869,-0.2757,-0.238,-0.1549,-0.1363,-0.1061,-0.0457,-0.0234,0.0,0.0,0.0,0.0,0.0,0.0,0.0,0.0,0.0,-0.0047,-0.0129,-0.0306,-0.0596,-0.0999,-0.1336,0.0,0.0,0.0,0.0,0.0,0.0,0.0,0.0,0.0,0.0,0.0,0.0,0.0,0.0,0.0,0.0,0.0,0.0,0.0,0.0,0.0,0.0,0.0,-0.3049,-0.3904,-0.475,-0.4692,-0.5787,-0.6937,-0.6823,-0.7315,-0.7721,-0.7453,-0.7405,-0.7326,-0.7063,-0.6774,-0.6536,-0.6364,-0.6557,-0.6948,-0.7599,-0.804,0.0,0.0,0.0,0.0,0.0,0.0,0.0,0.0,0.0,0.0,0.0,0.0,0.0,-1.7998,-1.7734,-1.7715,-1.7998,-1.8008,-1.8008,-1.8008,-1.8008,-1.8307,-1.8895,-1.8873,-1.9651,-2.1105,-2.1348,-2.1946,0.0,0.0,0.0,0.0,-2.3108,-2.3108,-2.3108,-2.3108,-2.3108,-2.3108,-2.3108,-2.3108,-2.3108,0.0,0.0,0.0,0.0,0.0,0.0,0.0,-0.3031,-0.3003,-0.273,-0.2592,-0.2166,-0.1245,-0.1036,-0.077,-0.029,-0.01,0.0,0.0,0.0,0.0,0.0,0.0,0.0,0.0,0.0,0.0,0.0,-0.0171,-0.0399,-0.0705,-0.1183,-0.1484,-0.161,0.0,0.0,0.0,0.0,0.0,0.0,0.0,0.0,0.0,0.0,0.0,0.0,0.0,0.0,0.0,0.0,0.0,0.0,0.0,0.0,0.0,0.0,-0.3527,-0.4277,-0.4253,-0.5152,-0.6129,-0.6229,-0.6715,-0.7128,-0.7016,-0.6943,-0.6833,-0.6629,-0.6458,-0.6331,-0.6216,-0.6467,-0.6884,-0.744,-0.7958,-0.8543,0.0,0.0,0.0,0.0,0.0,0.0,0.0,0.0,0.0,0.0,0.0,0.0,-1.7501,-1.7458,-1.7422,-1.7519,-1.7842,-1.8008,-1.8008,-1.8331,-1.8772,-1.9293,-1.964,-2.0534,-2.1887,-2.1892,-2.2346,0.0,0.0,0.0,0.0,-2.3108,-2.3108,-2.3108,-2.3108,-2.3108,-2.3108,-2.3108,-2.3108,-2.3108,0.0,0.0,0.0,0.0,0.0,0.0,0.0,-0.2869,-0.2944,-0.2693,-0.2383,-0.1847,-0.0994,-0.06,-0.029,-0.0022,0.0,0.0,0.0,0.0,0.0,0.0,0.0,0.0,0.0011,0.0,0.0,0.0,0.0,-0.0244,-0.0726,-0.1009,-0.1312,-0.1634,-0.192,0.0,0.0,0.0,0.0,0.0,0.0,0.0,0.0,0.0,0.0,0.0,0.0,0.0,0.0,0.0,0.0,0.0,0.0,0.0,0.0,0.0,0.0,0.0,0.0,-0.4647,-0.5381,-0.5788,-0.622,-0.6606,-0.6859,-0.6293,0.0,-0.5866,-0.5573,-0.5492,-0.6142,-0.6279,-0.6557,-0.7372,-0.7966,-0.8453,0.0,-1.0555,0.0,0.0,0.0,0.0,0.0,0.0,0.0,0.0,0.0,0.0,-1.6713,-1.7101,-1.7119,-1.6716,-1.7533,-1.7997,-1.8027,-1.8885,-1.9369,-1.95,-2.0299,-2.1139,-2.1988,-2.1958,-2.2346,0.0,0.0,0.0,0.0,-2.3065,-2.3108,-2.3108,-2.3108,-2.3108,-2.3108,-2.3108,-2.3108,-2.3108,0.0,0.0,0.0,0.0,0.0,0.0,0.0,0.0,0.0,0.0,-0.2067,-0.1643,-0.0968,-0.0604,-0.0292,0.0,0.0,0.0,0.0,0.0,0.0,0.0,0.0,0.0,0.0011,0.0,0.0,0.0,0.0,-0.03,-0.0856,-0.1283,-0.1628,-0.1916,-0.2348,-0.2377,0.0,0.0,0.0,0.0,0.0,0.0,0.0,0.0,0.0,0.0,0.0,-0.2613,0.0,0.0,0.0,0.0,0.0,0.0,0.0,0.0,-0.3344,-0.3529,-0.4254,0.0,-0.4973,-0.4934,-0.5413,-0.5934,0.0,-0.5917,-0.5865,-0.5885,-0.5588,-0.5611,-0.6625,-0.7021,-0.7474,-0.8335,-0.8548,-0.9002,-1.0155,0.0,0.0,0.0,0.0,0.0,0.0,0.0,0.0,0.0,0.0,-1.6486,-1.6674,-1.65,-1.6515,-1.6697,-1.7434,-1.8037,-1.8451,-1.9001,-1.9976,-2.1298,-2.1483,-2.2029,-2.2802,-2.24,-2.2303,0.0,0.0,0.0,-2.251,-2.2942,-2.3108,-2.3108,-2.3108,-2.3108,-2.3108,-2.3108,-2.3108,-2.3108,0.0,0.0,0.0,0.0,0.0,0.0,0.0,0.0,0.0,0.0,0.0,-0.162,-0.1139,-0.0671,0.0,0.0,0.0,0.0,0.0,0.0,0.0,0.0,0.0,0.0022,0.0,-0.0126,-0.0122,0.0,0.0,-0.0314,-0.0907,-0.1381,-0.1743,-0.2009,-0.2333,-0.2424,0.0,0.0,0.0,0.0,0.0,0.0,0.0,0.0,0.0,0.0,-0.2468,-0.2518,0.0,-0.2675,-0.2696,-0.2696,0.0,0.0,0.0,0.0,-0.3368,-0.3723,-0.4199,-0.4734,-0.5204,-0.5316,-0.5642,-0.5936,-0.5936,-0.5763,-0.5624,-0.5624,0.0,0.0,-0.6293,-0.6884,0.0,0.0,-0.8306,0.0,0.0,0.0,0.0,0.0,0.0,0.0,0.0,0.0,0.0,0.0,0.0,-1.6105,-1.6094,-1.6109,-1.6102,-1.6093,-1.7022,-1.7863,-1.8596,-1.9573,-2.0671,-2.1908,-2.2278,-2.256,-2.2715,-2.2413,-2.2176,0.0,0.0,0.0,-2.2303,-2.2607,-2.29,-2.3108,-2.3108,-2.3108,-2.3108,-2.3108,-2.3108,-2.3108,0.0,0.0,0.0,0.0,0.0,0.0,0.0,0.0,0.0,0.0,0.0,0.0,0.0,0.0,0.0,0.0,0.0,0.0,0.0,0.0,0.0,0.0,0.0,-0.0348,-0.0069,-0.0283,-0.0305,-0.01,-0.0124,-0.0487,-0.1156,-0.1567,-0.1877,-0.2072,-0.2164,-0.224,0.0,0.0,0.0,0.0,0.0,0.0,0.0,0.0,0.0,0.0,0.0,0.0,0.0,-0.2634,-0.2695,-0.2732,-0.2865,0.0,0.0,0.0,0.0,0.0,-0.4225,-0.4974,-0.5795,-0.6064,-0.6196,-0.625,-0.6203,0.0,0.0,0.0,0.0,0.0,0.0,-0.6612,0.0,0.0,0.0,0.0,0.0,0.0,0.0,0.0,0.0,0.0,0.0,0.0,0.0,0.0,0.0,-1.581,-1.542,-1.5769,-1.5859,-1.5575,-1.6686,-1.7737,-1.8751,-2.0251,-2.1373,-2.2106,-2.2706,-2.2753,-2.2299,-2.2119,-2.1816,-2.1394,0.0,0.0,-2.2179,-2.2265,-2.2607,-2.3108,-2.3108,-2.3108,-2.3108,-2.3108,-2.3108,-2.3108,0.0,0.0,0.0,0.0,0.0,0.0,0.0,0.0,0.0,0.0,0.0,0.0,0.0,0.0,0.0,0.0,0.0,0.0,0.0,0.0,0.0,-0.1152,-0.0948,-0.0668,-0.0345,-0.0385,-0.047,-0.0592,-0.0707,-0.1275,-0.2265,-0.2446,-0.2488,-0.2417,-0.2262,-0.1925,-0.1516,0.0,0.0,0.0,0.0,0.0,0.0,0.0,0.0,0.0,0.0,0.0,0.0,-0.2651,-0.2705,-0.2832,-0.3566,0.0,0.0,0.0,0.0,0.0,-0.527,-0.6084,-0.6606,-0.5947,-0.6152,-0.6479,-0.625,-0.6122,0.0,0.0,0.0,0.0,0.0,-0.7511,-0.7932,0.0,0.0,0.0,0.0,0.0,0.0,0.0,0.0,0.0,0.0,0.0,0.0,0.0,0.0,-1.5488,-1.541,-1.5469,-1.575,-1.6321,-1.7129,-1.8159,-1.9439,-2.0482,-2.1644,-2.2914,-2.2572,-2.2385,-2.2259,-2.1347,-2.0884,-2.0817,0.0,-2.112,-2.1666,-2.2114,-2.2607,-2.3108,-2.3108,-2.3108,-2.3108,-2.3108,-2.3108,-2.3108,0.0,0.0,0.0,0.0,0.0,0.0,0.0,0.0,0.0,0.0,0.0,0.0,0.0,0.0,0.0,0.0,0.0,0.0,0.0,0.0,0.0,-0.1667,-0.156,-0.127,-0.0791,-0.11,-0.1239,-0.1194,-0.1324,-0.18,-0.2601,-0.2601,-0.2509,-0.2315,-0.1897,-0.1556,-0.1329,-0.1718,0.0,0.0,0.0,0.0,0.0,0.0,0.0,0.0,0.0,0.0,0.0,0.0,-0.2638,-0.2812,-0.3422,0.0,0.0,0.0,0.0,0.0,-0.5012,-0.5935,-0.6693,-0.6286,-0.6754,-0.7281,-0.7148,-0.686,0.0,0.0,0.0,0.0,0.0,0.0,-0.8348,-0.8931,0.0,0.0,0.0,0.0,0.0,0.0,0.0,0.0,0.0,0.0,0.0,0.0,0.0,0.0,-1.541,-1.541,-1.573,-1.6483,-1.7224,-1.8242,-1.9591,-2.043,-2.1301,-2.2246,-2.1995,-2.1707,-2.1405,-2.0926,-2.0536,-2.0196,0.0,-2.0553,-2.1108,-2.165,-2.2194,-2.2705,-2.2997,-2.3108,-2.3108,-2.3108,-2.3108,-2.3108,0.0,0.0,0.0,0.0,0.0,0.0,0.0,0.0,0.0,0.0,0.0,0.0,0.0,0.0,0.0,0.0,0.0,0.0,0.0,0.0,-0.1573,-0.1938,-0.2012,-0.182,-0.1327,-0.1772,-0.1936,-0.1811,-0.1941,-0.2304,-0.2829,-0.2648,-0.2367,-0.2039,-0.1455,-0.1156,-0.112,-0.1485,-0.1659,0.0,0.0,0.0,0.0,0.0,0.0,0.0,0.0,0.0,0.0,0.0,0.0,0.0,0.0,0.0,0.0,-0.4005,-0.4441,-0.4774,-0.4834,-0.567,-0.6519,-0.6593,-0.7208,-0.7819,-0.7892,-0.7493,-0.7126,0.0,0.0,0.0,0.0,-0.8141,0.0,0.0,0.0,0.0,0.0,0.0,0.0,0.0,0.0,0.0,0.0,0.0,0.0,0.0,0.0,0.0,-1.541,-1.541,-1.5732,-1.6477,-1.7219,-1.8177,-1.939,-2.0113,-2.083,-2.1493,-2.1355,-2.1106,-2.0691,-2.0553,-2.0251,-1.9798,-1.9798,-2.0156,-2.0733,-2.1147,-2.1633,-2.2164,-2.2705,-2.2997,-2.3108,-2.3108,-2.3108,-2.3108,0.0,0.0,0.0,0.0,0.0,0.0,0.0,0.0,0.0,0.0,0.0,0.0,0.0,0.0,0.0,0.0,0.0,0.0,0.0,0.0,-0.1776,-0.1809,-0.2056,-0.2103,-0.194,-0.1985,-0.2151,-0.2438,-0.2566,-0.2841,-0.3244,-0.2861,-0.2307,-0.1627,-0.1135,-0.0759,-0.049,-0.0954,-0.1218,-0.1374,0.0,0.0,0.0,0.0,0.0,0.0,0.0,0.0,0.0,0.0,0.0,0.0,0.0,0.0,-0.4021,-0.4441,-0.489,-0.5305,-0.5561,-0.5907,-0.629,-0.6539,-0.7069,-0.7598,-0.7846,-0.7675,0.0,-0.7779,0.0,0.0,0.0,-0.8564,0.0,0.0,0.0,0.0,0.0,0.0,0.0,0.0,0.0,0.0,0.0,0.0,0.0,0.0,0.0,0.0,-1.541,-1.541,-1.5732,-1.6477,-1.7205,-1.7967,-1.8758,-1.9505,-2.0413,-2.1481,-2.0993,-2.0729,-2.0679,-2.0112,-1.9849,-1.9798,-1.9798,-2.0156,-2.0708,-2.0746,-2.1081,-2.1614,-2.2152,-2.265,-2.3108,-2.3108,-2.3108,-2.3108,0.0,0.0,0.0,0.0,0.0,0.0,0.0,0.0,0.0,0.0,0.0,0.0,0.0,0.0,0.0,0.0,0.0,0.0,0.0,-0.1803,-0.1836,-0.192,-0.21,-0.2229,-0.2314,-0.255,-0.2747,-0.2869,-0.3009,-0.3074,-0.3038,-0.2591,-0.2205,-0.1827,-0.1354,-0.1074,-0.0984,-0.1279,-0.1444,-0.1512,-0.1777,0.0,0.0,0.0,0.0,0.0,0.0,0.0,0.0,0.0,-0.2265,-0.2584,-0.3029,-0.3561,-0.407,-0.4489,-0.4928,-0.532,-0.5427,-0.5943,-0.6472,-0.6579,-0.7174,0.0,0.0,-0.7983,-0.8141,-0.8417,-0.8452,0.0,0.0,0.0,0.0,0.0,0.0,0.0,0.0,0.0,0.0,0.0,0.0,0.0,0.0,0.0,0.0,0.0,0.0,0.0,-1.541,-1.541,-1.5732,-1.6477,-1.7208,-1.7961,-1.8697,-1.9417,-2.0012,-2.0439,-2.0225,-2.0125,-2.0125,-1.9899,-1.9798,-1.9798,-1.9798,-1.9938,-2.0168,-2.0553,-2.0819,-2.1087,-2.1979,-2.2413,-2.265,-2.2967,-2.3108,-2.3108,0.0,0.0,0.0,0.0,0.0,0.0,0.0,0.0,0.0,0.0,0.0,0.0,0.0,0.0,0.0,0.0,0.0,0.0,-0.1803,-0.1803,-0.1839,-0.1933,-0.207,-0.2198,-0.2338,-0.2754,-0.2986,-0.3034,-0.3162,-0.3131,-0.2892,-0.2429,-0.2151,-0.204,-0.1525,-0.1378,-0.1534,-0.1625,-0.169,-0.1738,-0.1874,-0.188,0.0,0.0,0.0,0.0,0.0,0.0,0.0,0.0,-0.2157,-0.2431,-0.2933,-0.3489,-0.4024,-0.4467,-0.5,-0.5434,-0.5434,-0.5943,-0.6492,-0.6586,0.0,0.0,-0.7866,-0.8163,-0.8482,-0.8744,-0.8804,-0.8804,-0.8804,0.0,0.0,0.0,0.0,0.0,0.0,0.0,0.0,0.0,0.0,0.0,0.0,0.0,0.0,0.0,0.0,0.0,0.0,-1.541,-1.5644,-1.6123,-1.6864,-1.7627,-1.8344,-1.9091,-1.9565,-1.9798,-1.9553,-1.9579,-1.9798,-1.9798,-1.9798,-1.9798,-1.9798,-1.9798,-1.9837,-2.0245,-2.0515,-2.0794,-2.1682,-2.2152,-2.2358,-2.29,-2.3108,-2.3108,0.0,0.0,0.0,0.0,0.0,0.0,0.0,0.0,0.0,0.0,0.0,0.0,0.0,0.0,0.0,0.0,0.0,0.0,-0.1792,-0.1792,-0.1792,-0.1803,-0.1926,-0.1999,-0.1995,-0.2445,-0.2751,-0.2889,-0.303,-0.3023,-0.2889,-0.2427,-0.2208,-0.218,-0.1584,-0.1573,-0.1999,-0.186,-0.1881,-0.2016,-0.215,-0.2046,0.0,0.0,0.0,0.0,0.0,0.0,0.0,0.0,-0.1995,-0.2126,-0.287,-0.3416,-0.3911,-0.4447,-0.5131,-0.5694,-0.5694,-0.595,-0.6263,-0.6539,0.0,0.0,-0.7772,-0.8163,-0.8482,-0.8744,-0.8804,-0.8804,-0.8804,0.0,0.0,0.0,0.0,0.0,0.0,0.0,0.0,0.0,0.0,0.0,0.0,0.0,0.0,0.0,0.0,0.0,0.0,-1.541,-1.541,-1.541,-1.6123,-1.6846,-1.7587,-1.8313,-1.9076,-1.9798,-1.9071,-1.9097,-1.9798,-1.9798,-1.9798,-1.9798,-1.9798,-1.9798,-1.9798,-1.9798,-2.014,-2.0769,-2.1288,-2.1807,-2.2358,-2.29,-2.3108,-2.3108,0.0,0.0,0.0,0.0,0.0,0.0,0.0,0.0,0.0,0.0,0.0,0.0,0.0,0.0,0.0,0.0,0.0,0.0,-0.1441,-0.1452,-0.1552,-0.1792,-0.1926,-0.196,-0.1863,-0.1899,-0.2204,-0.2768,-0.2809,-0.2751,-0.262,-0.2576,-0.2557,-0.2557,-0.247,-0.2446,-0.2487,-0.2347,-0.2317,-0.2345,-0.2245,-0.2157,0.0,0.0,0.0,0.0,0.0,0.0,0.0,0.0,0.0,0.0,-0.2758,0.0,-0.4151,-0.4499,-0.5131,-0.5694,-0.5694,-0.6079,0.0,-0.682,0.0,0.0,0.0,-0.8335,0.0,0.0,-0.8804,-0.8804,-0.8804,0.0,0.0,0.0,0.0,0.0,0.0,0.0,0.0,0.0,0.0,0.0,0.0,0.0,0.0,0.0,0.0,0.0,0.0,-1.541,-1.541,-1.541,-1.6123,-1.6842,-1.7593,-1.8313,-1.907,-1.9798,-1.9579,-1.9579,-1.9773,-1.9254,-1.9319,-1.9798,-1.9798,-1.9798,-1.9798,-1.9798,-1.991,-2.0154,-2.1117,-2.1587,-2.1849,-2.276,-2.3108,-2.3108,0.0,0.0,0.0,0.0,0.0,0.0,0.0,0.0,0.0,0.0,0.0,0.0,0.0,0.0,0.0,0.0,0.0,0.0,0.0,-0.1241,-0.1385,-0.1596,-0.1803,-0.1906,-0.1884,-0.1799,-0.1925,-0.2259,-0.2175,-0.2264,-0.2501,-0.2452,-0.2557,-0.2788,-0.2805,-0.2785,-0.2692,-0.2613,-0.2506,-0.2385,-0.2401,-0.2315,-0.2187,0.0,0.0,0.0,0.0,0.0,0.0,0.0,0.0,0.0,-0.2758,0.0,-0.3906,-0.465,-0.5264,-0.5774,-0.6121,-0.658,0.0,-0.7455,-0.7993,-0.8429,-0.8543,0.0,0.0,0.0,0.0,-0.8804,-0.8804,-0.8804,0.0,0.0,0.0,0.0,0.0,0.0,0.0,0.0,0.0,0.0,0.0,0.0,0.0,0.0,0.0,0.0,0.0,-1.541,-1.541,-1.541,-1.5839,-1.655,-1.7578,-1.7747,-1.8507,-1.9798,-1.9202,-1.9228,-1.9773,-1.9333,-1.9371,-1.9798,-1.9798,-1.9798,-1.9798,-1.9798,-1.9798,-1.9899,-2.0811,-2.1317,-2.159,-2.2457,-2.292,-2.3108,0.0,0.0,0.0,0.0,0.0,0.0,0.0,0.0,0.0,0.0,0.0624,0.0,0.0,0.0,0.0,0.0,0.0,0.0,0.0,0.0,-0.1274,-0.1296,-0.1618,-0.1856,-0.1972,-0.1954,-0.1827,-0.1622,-0.1424,-0.1711,-0.2432,-0.2145,-0.232,-0.2883,-0.2761,-0.2689,-0.2675,-0.2662,-0.2483,-0.2234,-0.2533,-0.2479,-0.2211,-0.2194,0.0,0.0,0.0,0.0,0.0,0.0,0.0,0.0,-0.2793,-0.3095,-0.3419,-0.481,-0.5448,-0.5881,-0.6727,-0.7201,0.0,-0.8241,-0.8422,0.0,-0.8744,-0.8804,-0.8804,-0.8804,0.0,-0.8804,-0.8804,0.0,0.0,0.0,0.0,0.0,0.0,0.0,0.0,0.0,0.0,0.0,0.0,0.0,0.0,0.0,0.0,0.0,0.0,-1.541,-1.541,-1.541,-1.541,-1.6093,-1.7501,-1.6894,-1.7594,-1.9578,-1.8367,-1.8474,-1.9695,-1.9695,-1.9747,-1.9798,-1.9798,-1.9798,-1.9798,-1.9798,-1.9798,-1.9861,-2.0459,-2.1034,-2.1559,-2.2101,-2.2631,-2.3108,0.0,0.0,0.0,0.0,0.0,0.0,0.0,0.0,0.0,0.0,0.0,0.0,0.0,0.0,0.0,0.0,0.0,0.0,0.0,0.0,-0.1083,-0.1285,-0.1618,-0.1809,-0.1843,-0.1582,-0.1548,-0.176,-0.1607,-0.1675,-0.1954,-0.1981,-0.2269,-0.2744,-0.2713,-0.2647,-0.2524,-0.2381,-0.2268,-0.22,-0.2278,-0.2324,-0.2342,-0.2184,-0.2105,0.0,0.0,0.0,0.0,0.0,0.0,0.0,-0.2578,-0.3074,-0.3569,-0.4363,-0.5122,-0.5834,-0.6506,-0.6894,0.0,0.0,-0.8569,-0.8731,-0.8791,-0.8804,-0.8804,-0.8804,-0.8804,0.0,0.0,0.0,0.0,0.0,0.0,0.0,0.0,0.0,0.0,0.0,0.0,0.0,0.0,0.0,0.0,0.0,0.0,0.0,-1.541,-1.541,-1.541,-1.541,-1.541,-1.5828,-1.6723,-1.7158,-1.7593,0.0,-1.8946,-1.9202,-1.8939,-1.8939,-1.9254,-1.9798,-1.9798,-1.9798,-1.9798,-1.9798,-1.9798,-1.9862,-2.0475,-2.1026,-2.1546,-2.2101,-2.2631,-2.3108,0.0,0.0,0.0,0.0,0.0,0.0,0.0,0.0,0.0,0.0,0.0,0.0,0.0,0.0,0.0,0.0,0.0,0.0,0.0,-0.0647,-0.1094,-0.1516,-0.1703,-0.1803,-0.1803,-0.1626,-0.1552,-0.1563,-0.136,-0.1422,-0.1703,-0.1476,-0.1731,-0.2361,-0.2295,-0.2301,-0.2347,-0.2241,-0.2167,-0.2107,-0.2167,-0.2283,-0.238,-0.2175,-0.2102,-0.2081,-0.1872,0.0,0.0,0.0,0.0,0.0,0.0,0.0,-0.3262,-0.4001,-0.4714,-0.5468,-0.6353,0.0,0.0,-0.8357,0.0,-0.8804,-0.8804,-0.8804,-0.8804,-0.8804,0.0,0.0,0.0,0.0,0.0,0.0,0.0,0.0,0.0,0.0,0.0,0.0,0.0,0.0,0.0,0.0,0.0,0.0,0.0,-1.5128,-1.54,-1.541,-1.541,-1.541,-1.541,-1.5761,-1.6487,-1.687,-1.7423,-1.813,-1.8536,-1.8741,-1.8715,-1.9071,-1.9449,-1.9798,-1.9798,-1.9798,-1.9798,-1.9798,-1.9798,-1.9837,-2.0156,-2.0762,-2.1531,-2.1818,-2.2405,-2.3108,0.0,0.0,0.0,0.0,0.0,0.0,0.0,0.0,0.0,0.0,0.0,0.0,0.0,0.0,0.0,0.0,0.0,0.0,0.0,-0.057,-0.117,-0.177,-0.1803,-0.1803,-0.1803,-0.1803,-0.1662,-0.1385,-0.1111,-0.1149,-0.1463,-0.095,-0.1164,-0.1992,-0.1782,-0.1871,-0.2194,-0.2085,-0.2018,-0.1968,-0.2083,-0.2201,-0.2283,-0.2184,-0.2108,-0.2042,-0.1941,-0.1858,-0.1803,-0.1803,0.0,0.0,0.0,0.0,-0.2846,-0.3615,-0.4264,-0.4982,-0.6072,0.0,-0.7692,-0.8524,-0.8771,0.0,-0.8804,-0.8804,-0.8804,0.0,0.0,0.0,0.0,0.0,0.0,0.0,0.0,0.0,0.0,0.0,0.0,0.0,0.0,0.0,0.0,0.0,0.0,0.0,0.0,-1.4788,-1.5245,-1.5341,-1.5409,-1.541,-1.541,-1.5693,-1.629,-1.6436,-1.7123,-1.8313,-1.7961,-1.8178,-1.89,-1.9527,-1.9798,-1.9798,-1.9798,-1.9798,-1.9798,-1.9798,-1.9798,-1.9798,-1.9798,-2.0489,-2.149,-2.1501,-2.218,-2.3108,0.0,0.0,0.0,0.0,0.0,0.0,0.0,0.0,0.0,0.0,0.1477,0.1267,0.1183,0.0972,0.0,0.0,0.0,0.0,0.0011,0.0,0.0,-0.177,-0.1803,-0.1803,-0.1803,-0.1803,-0.1781,-0.1736,-0.1402,-0.1162,-0.0987,-0.0798,-0.1163,-0.1976,-0.1432,-0.1571,-0.2159,-0.1641,-0.1575,-0.1826,-0.1846,-0.1864,-0.191,-0.2237,-0.215,-0.1878,-0.2199,-0.2092,-0.1803,-0.1803,-0.1803,0.0,0.0,0.0,0.0,-0.312,-0.3808,-0.4609,0.0,0.0,-0.7645,0.0,-0.8617,-0.8804,0.0,0.0,0.0,0.0,0.0,0.0,0.0,0.0,0.0,0.0,0.0,0.0,0.0,0.0,0.0,0.0,0.0,0.0,0.0,0.0,0.0,0.0,-1.4285,-1.4636,-1.4693,-1.5167,-1.5412,-1.54,-1.541,-1.5449,-1.5537,-1.6171,-1.6613,-1.6821,-1.7988,-1.8939,-1.9669,-1.9747,-1.9798,-1.9798,-1.9798,-1.9798,-1.9798,-1.9798,-1.9798,-1.9798,-1.9798,-2.0489,-2.149,-2.1501,-2.218,-2.3108,0.0,0.0,0.0,0.0,0.0,0.0,0.0,0.0,0.0,0.0,0.0,0.151,0.1325,0.1059,0.0,0.0,0.0,0.0,-0.0201,-0.0647,0.0,0.0,-0.1703,-0.1803,-0.1803,-0.1803,-0.1803,-0.1803,-0.1458,-0.1342,-0.1397,-0.0807,-0.0802,-0.1259,-0.0873,-0.1176,-0.1943,-0.1491,-0.1543,-0.1903,-0.1829,-0.1932,-0.2134,-0.2077,-0.2161,-0.2246,-0.1868,-0.1759,-0.1773,-0.1582,-0.1648,-0.1825,-0.1978,0.0,0.0,0.0,-0.3608,0.0,-0.551,-0.6378,-0.7223,0.0,-0.8496,-0.8611,-0.8771,0.0,0.0,0.0,0.0,0.0,0.0,0.0,0.0,0.0,0.0,0.0,0.0,0.0,0.0,0.0,0.0,0.0,0.0,0.0,0.0,0.0,-1.3682,-1.3768,-1.4072,-1.4461,-1.4655,-1.4657,-1.4672,-1.481,-1.5074,-1.5789,-1.6472,-1.7146,-1.8608,-1.9254,-1.9202,-1.9618,-1.9798,-1.9798,-1.9798,-1.9798,-1.9798,-1.9798,-1.9798,-1.9798,-1.9798,-2.0496,-2.1496,-2.151,-2.218,-2.3108,0.0,0.0,0.0,0.0,0.0,0.0,0.0,0.0,0.0,0.0,0.0,0.0,0.1452,0.0,0.0,0.0,0.0,0.0,-0.0379,0.0,0.0,0.0,0.0,-0.1803,-0.1803,-0.1803,-0.1803,-0.1803,-0.1552,-0.1552,-0.179,-0.1084,-0.0832,-0.0967,-0.0495,-0.0872,-0.1823,-0.1291,-0.1445,-0.202,-0.1699,-0.1881,-0.2307,-0.1938,-0.2137,-0.2535,-0.1837,-0.1543,-0.1503,-0.1564,-0.1673,-0.1858,-0.2215,0.0,0.0,0.0,0.0,0.0,0.0,0.0,-0.6546,-0.7665,-0.8053,-0.8261,0.0,0.0,0.0,0.0,0.0,0.0,0.0,0.0,0.0,0.0,0.0,0.0,0.0,0.0,0.0,0.0,0.0,0.0,0.0,0.0,0.0,0.0,-1.3115,-1.3132,-1.3676,-1.3768,-1.3849,-1.4,-1.4043,-1.4254,-1.4617,-1.5343,-1.6219,-1.727,-1.8684,-1.9149,-1.8803,-1.9479,-1.9798,-1.9798,-1.9798,-1.9798,-1.9798,-1.9798,-1.9798,-1.9798,-1.9798,-2.0393,-2.1312,-2.1312,-2.1985,-2.2895,0.0,0.0,0.0,0.0,0.0,0.0,0.0,0.0,0.0,0.0,0.0,0.0,0.0,0.0,0.0,0.0,0.0,0.0,0.0,0.0,0.0,0.0,0.0,0.0,-0.1803,-0.1803,-0.1803,-0.1803,-0.1781,-0.1785,-0.1802,-0.1752,-0.1735,-0.1701,-0.0527,-0.0754,-0.193,-0.0887,-0.1118,-0.2115,-0.1288,-0.1458,-0.2181,-0.1907,-0.2058,-0.2434,-0.2575,-0.1781,0.0,0.0,0.0,-0.1902,-0.2491,-0.2864,-0.3079,0.0,0.0,0.0,0.0,-0.4925,0.0,-0.6479,0.0,0.0,0.0,0.0,0.0,0.0,0.0,0.0,0.0,0.0,0.0,0.0,0.0,0.0,0.0,0.0,0.0,0.0,0.0,0.0,0.0,0.0,0.0,0.0,-1.291,-1.313,-1.3657,-1.3237,-1.319,-1.3697,-1.3969,-1.4103,-1.4141,-1.4863,-1.5573,-1.6298,-1.7562,-1.8482,-1.8992,-1.9547,-1.9798,-1.9798,-1.9798,-1.9798,-1.9798,-1.9798,-1.9798,-1.9798,-1.9798,-2.0184,-2.0752,-2.0752,-2.1419,-2.2347,0.0,0.0,0.0,0.0,0.0,0.0,0.0,0.0,0.0,0.0,0.0,0.0,0.0,0.1216,0.0914,0.0601,0.0313,0.0,0.0,0.0,0.0,0.0,0.0,0.0,0.0,-0.1803,-0.1803,-0.1803,-0.1803,-0.1892,-0.2053,-0.1791,-0.1755,-0.1897,-0.099,-0.1007,-0.1687,-0.0775,-0.1,-0.1918,-0.1605,-0.1711,-0.2076,-0.215,-0.211,-0.2081,-0.2531,0.0,0.0,0.0,0.0,-0.1407,-0.2491,-0.2686,-0.2666,-0.3395,-0.3833,0.0,0.0,0.0,0.0,-0.611,-0.6626,0.0,0.0,0.0,0.0,0.0,0.0,0.0,0.0,0.0,0.0,0.0,0.0,0.0,0.0,0.0,0.0,0.0,0.0,0.0,0.0,0.0,0.0,0.0,0.0,-1.2974,-1.3189,-1.3002,-1.2976,-1.319,-1.3267,-1.3646,-1.4297,-1.5713,-1.6543,-1.6797,-1.7726,-1.8275,-1.8503,-1.9033,-1.929,-1.9316,-1.9658,-1.9798,-1.9798,-1.9798,-1.9798,-1.9798,-1.9798,-2.0161,-2.0713,-2.0713,-2.1377,-2.2309,0.0,0.0,0.0,0.0,0.0,0.0,0.0,0.0,0.0,0.1803,0.0,0.0,0.0,0.0,0.0725,0.0301,0.0101,-0.0034,-0.0123,0.0,0.0,0.0,0.0,0.0,0.0,-0.1803,-0.1803,-0.1803,-0.1803,-0.1996,-0.2359,-0.1983,-0.2009,-0.2333,-0.1551,-0.1427,-0.1756,-0.1013,-0.1249,-0.2059,-0.1618,-0.1652,-0.196,-0.1694,-0.1769,-0.1984,0.0,0.0,0.0,0.0,0.0,0.0,-0.2395,-0.2783,-0.2916,-0.3678,-0.4229,0.0,-0.4636,0.0,0.0,0.0,0.0,0.0,0.0,0.0,0.0,0.0,0.0,0.0,0.0,0.0,0.0,0.0,0.0,0.0,0.0,0.0,0.0,0.0,0.0,0.0,0.0,0.0,0.0,0.0,0.0,0.0,-1.2905,-1.2905,-1.29,-1.2904,-1.289,-1.3476,-1.4692,-1.5568,-1.6205,-1.6597,-1.7277,-1.7723,-1.7964,-1.8682,-1.8994,-1.9025,-1.9582,-1.9798,-1.9798,-1.9798,-1.9798,-1.9798,-1.9798,-2.0037,-2.0402,-2.0402,-2.0993,-2.1782,0.0,0.0,0.0,0.0,0.0,0.0,0.0,0.0,0.1803,0.1803,0.0,0.0,0.0,0.0,0.0,0.0056,-0.0011,-0.0123,-0.0379,-0.0725,0.0,0.0,0.0,0.0,-0.1803,-0.1803,-0.1803,-0.1803,-0.1803,-0.2105,-0.2684,-0.2362,-0.2532,-0.3057,-0.2211,-0.1975,-0.2175,-0.1547,-0.1819,-0.2546,0.0,-0.1218,-0.1819,0.0,-0.0997,0.0,-0.0557,0.0,0.0,-0.0928,0.0,0.0,-0.2224,-0.3188,-0.3908,-0.3911,-0.4436,-0.4913,0.0,0.0,0.0,0.0,0.0,0.0,0.0,0.0,0.0,0.0,0.0,0.0,0.0,0.0,0.0,0.0,0.0,0.0,0.0,0.0,0.0,0.0,0.0,0.0,0.0,0.0,0.0,0.0,-1.2905,-1.2905,-1.2905,-1.2905,-1.2914,-1.2906,-1.2918,-1.3705,-1.5266,-1.4351,-1.4472,-1.5639,-1.6157,-1.6751,-1.7424,-1.848,-1.8954,-1.8976,-1.9531,-1.9773,-1.9773,-1.9798,-1.9798,-1.9798,-1.9798,-1.9798,-1.9798,-1.9798,-2.0189,-2.0767,0.0,0.0,0.0,0.0,0.0,0.1803,0.1803,0.1803,0.1803,0.0,0.0,0.0,0.1072,0.0559,0.0179,0.0011,-0.0179,-0.0324,-0.039,-0.0892,-0.1219,-0.1296,-0.1618,-0.1803,-0.1803,-0.1803,-0.1803,-0.1803,-0.1803,-0.199,-0.2337,-0.2338,-0.2556,-0.2955,-0.2807,-0.2672,-0.2488,-0.1455,0.0,-0.1648,-0.128,-0.1101,0.0,0.0,0.0,0.0,0.0,0.0,-0.009,0.0,-0.065,-0.0465,0.0,-0.3051,-0.4249,-0.4201,-0.4715,-0.5196,-0.4784,0.0,0.0,0.0,0.0,0.0,0.0,0.0,0.0,0.0,0.0,0.0,0.0,0.0,0.0,0.0,0.0,0.0,0.0,0.0,0.0,0.0,0.0,0.0,0.0,0.0,0.0,0.0,-1.2905,-1.2905,-1.2905,-1.2905,-1.29,-1.2899,-1.3745,-1.441,-1.4869,-1.5472,-1.592,-1.625,-1.6386,-1.6568,-1.6777,-1.751,-1.784,-1.7879,-1.8833,-1.9227,-1.924,-1.9633,-1.9798,-1.9798,-1.9798,-1.9798,-1.9798,-1.9798,-2.0189,-2.0717,0.0,0.0,0.0,0.1803,0.1851,0.1869,0.1803,0.1844,0.1864,0.0,0.0,0.0,0.097,0.0358,0.0,0.0,-0.0145,-0.0335,-0.059,-0.0936,-0.1241,-0.1496,-0.1692,-0.1803,-0.1803,-0.1803,-0.1803,-0.1803,-0.1803,-0.2011,-0.2405,-0.2341,-0.256,-0.2977,-0.2946,-0.2798,-0.252,-0.1768,0.0,0.0,-0.136,0.0,0.0,-0.0816,-0.0605,0.0,0.0,0.0,-0.0049,-0.0403,-0.0462,0.0,0.0,0.0,-0.394,-0.4384,-0.4929,-0.5337,-0.5049,-0.5061,0.0,0.0,0.0,0.0,0.0,-0.5834,0.0,0.0,0.0,0.0,0.0,0.0,0.0,0.0,0.0,0.0,0.0,0.0,0.0,0.0,0.0,0.0,0.0,-1.2905,-1.2905,-1.2905,-1.2905,-1.2905,-1.2905,-1.2905,-1.289,-1.2898,-1.3569,-1.4272,-1.4937,-1.5647,-1.6169,-1.65,-1.65,-1.65,-1.6513,-1.7128,-1.74,-1.7458,-1.8533,-1.9007,-1.9037,-1.9582,-1.9798,-1.9798,-1.9798,-1.9798,-1.9798,-1.9798,-2.0012,-2.0365,0.0,0.0,0.1809,0.1827,0.1931,0.1965,0.1881,0.195,0.1963,0.0,0.1699,0.1442,0.0906,0.0341,0.0,0.0,-0.0023,-0.0292,-0.0859,-0.0931,-0.1203,-0.177,-0.1803,-0.1803,-0.1803,-0.1803,-0.1803,-0.1803,-0.1803,-0.2088,-0.2643,-0.2378,-0.2557,-0.3089,-0.2853,-0.263,-0.2424,-0.2306,0.0,-0.1776,-0.1411,-0.1431,0.0,0.0,-0.0404,-0.0892,-0.0238,0.0,0.0,0.0,-0.0423,0.0,0.0,0.0,0.0,-0.4546,-0.5139,-0.5388,-0.5316,-0.5393,-0.5523,0.0,0.0,0.0,-0.5867,-0.5864,-0.6109,0.0,0.0,0.0,0.0,0.0,0.0,0.0,0.0,0.0,0.0,0.0,0.0,0.0,0.0,0.0,-1.2881,-1.2905,-1.2905,-1.2905,-1.2905,-1.2905,-1.2905,-1.2905,-1.2899,-1.2902,-1.2908,-1.3653,-1.5227,-1.5381,-1.5776,-1.65,-1.65,-1.65,-1.6522,-1.705,-1.7297,-1.7348,-1.8444,-1.8916,-1.8953,-1.9545,-1.9798,-1.9798,-1.9798,-1.9798,-1.9798,-1.9798,-1.9798,-1.9874,0.0,0.1803,0.1855,0.2019,0.2015,0.2063,0.2249,0.2208,0.2038,0.168,0.1081,0.0631,0.051,0.0194,0.0,0.0,-0.0193,-0.0482,-0.0869,-0.1101,-0.1396,-0.1781,-0.1803,-0.1803,-0.1803,-0.1803,-0.1803,-0.1803,-0.1803,-0.1968,-0.2302,-0.2513,-0.2783,-0.31,-0.3046,-0.2875,-0.2639,-0.2612,0.0,-0.1756,-0.1199,0.0,-0.0846,-0.0238,-0.0101,-0.0185,-0.0055,0.0,0.0,0.0,-0.0536,-0.1365,0.0,0.0,0.0,-0.5037,-0.5506,-0.5548,-0.5837,-0.6012,0.0,0.0,0.0,0.0,-0.5139,-0.5396,-0.6,0.0,0.0,0.0,0.0,0.0,0.0,0.0,0.0,0.0,0.0,0.0,0.0,0.0,0.0,0.0,-1.2847,-1.2905,-1.2905,-1.2905,-1.2905,-1.2905,-1.2905,-1.2905,-1.2886,-1.2895,-1.2897,-1.3515,-1.479,-1.579,-1.6348,-1.65,-1.65,-1.65,-1.65,-1.6615,-1.6665,-1.6735,-1.7864,-1.8354,-1.8421,-1.9409,-1.9798,-1.9798,-1.9798,-1.9798,-1.9798,-1.9798,-1.9798,-1.9823,0.1803,0.1803,0.1851,0.2021,0.2072,0.2174,0.2366,0.2376,0.2271,0.2033,0.1477,0.11,0.1092,0.0644,0.0346,0.0347,0.0136,-0.019,-0.0627,-0.065,-0.0859,-0.1336,-0.1482,-0.1552,-0.1552,-0.1718,-0.1803,-0.1803,-0.1803,-0.1935,-0.2204,-0.2372,-0.2648,-0.2993,-0.2924,-0.2692,-0.2355,0.0,-0.2061,-0.1455,-0.1519,0.0,-0.173,-0.1203,-0.0993,-0.0987,-0.0802,-0.042,0.0,0.0,-0.0679,0.0,-0.2732,-0.3484,-0.4276,0.0,-0.6013,-0.5895,-0.6097,0.0,0.0,-0.5993,0.0,0.0,0.0,-0.5503,-0.5837,-0.7008,0.0,0.0,0.0,0.0,0.0,0.0,0.0,0.0,0.0,0.0,0.0,0.0,0.0,0.0,-1.2822,-1.2559,-1.2501,-1.2881,-1.2905,-1.2905,-1.2905,-1.2905,-1.2905,-1.2905,-1.2904,-1.3199,-1.3805,-1.561,-1.6505,-1.65,-1.65,-1.65,-1.65,-1.65,-1.65,-1.6547,-1.7412,-1.7941,-1.8255,-1.9058,-1.9544,-1.9798,-1.9798,-1.9798,-1.9798,-1.9798,-1.9798,-1.9747,0.1803,0.1803,0.1839,0.1972,0.2107,0.2231,0.2382,0.2484,0.2527,0.2462,0.2013,0.1726,0.1765,0.1271,0.0943,0.0909,0.0793,0.0464,-0.0108,-0.0035,-0.0217,-0.0777,-0.1127,-0.1298,-0.1294,-0.163,-0.1803,-0.1803,-0.1803,-0.1913,-0.2117,-0.2172,-0.2401,-0.2755,-0.2594,-0.2312,-0.1963,0.0,0.0,-0.1205,0.0,-0.2308,-0.2417,-0.1831,-0.1605,-0.1587,-0.1296,-0.07,0.0,0.0,-0.0797,-0.1987,-0.3133,-0.4152,0.0,0.0,0.0,0.0,0.0,0.0,0.0,0.0,0.0,-0.6043,0.0,0.0,0.0,-0.704,0.0,0.0,0.0,0.0,0.0,0.0,0.0,0.0,0.0,0.0,0.0,0.0,0.0,0.0,0.0,-1.1895,-1.1938,-1.2837,-1.2749,-1.2729,-1.2895,-1.2905,-1.2905,-1.2905,-1.2905,-1.2907,-1.2907,-1.528,-1.645,-1.6337,-1.6439,-1.6504,-1.65,-1.65,-1.65,-1.6534,-1.7135,-1.7715,-1.8232,-1.8771,-1.9328,-1.9798,-1.9798,-1.9798,-1.9798,-1.9798,-1.9721,-1.9501,0.1803,0.1803,0.1839,0.1972,0.2059,0.2177,0.2375,0.2556,0.2672,0.2672,0.1906,0.1432,0.1601,0.1754,0.1798,0.1684,0.1767,0.0,0.0797,0.0385,-0.0012,-0.0434,-0.0999,-0.1297,-0.1304,-0.1634,-0.1803,-0.1803,-0.1803,-0.1814,-0.1847,-0.2088,-0.2228,-0.2264,-0.2011,0.0,0.0,0.0,-0.1626,0.0,-0.1958,-0.1689,0.0,-0.0413,-0.0221,-0.023,-0.0192,-0.0084,0.0,0.0,-0.0804,-0.1989,0.0,-0.415,-0.5166,-0.6539,0.0,0.0,0.0,0.0,0.0,0.0,-0.6466,0.0,0.0,0.0,-0.6527,-0.6807,0.0,0.0,0.0,0.0,0.0,0.0,0.0,0.0,0.0,0.0,0.0,0.0,0.0,0.0,0.0,-1.0652,-1.1348,-1.2798,-1.2171,-1.2074,-1.2866,-1.2905,-1.2905,-1.2905,-1.2905,-1.2894,-1.2903,-1.5287,-1.6229,-1.5698,-1.6235,-1.6489,-1.65,-1.65,-1.65,-1.6525,-1.7142,-1.7705,-1.8232,-1.8783,-1.9328,-1.9798,-1.9798,-1.9798,-1.9798,-1.9798,-1.9397,-1.8821,0.2,0.2029,0.211,0.2358,0.2426,0.2471,0.2553,0.2641,0.2696,0.2696,0.2361,0.2144,0.0,0.0,0.0,0.0,0.0,0.2169,0.0,0.0,0.0682,0.0586,-0.0286,-0.0669,-0.0439,-0.114,-0.1507,-0.1507,-0.1703,-0.1803,-0.1803,-0.1913,-0.2049,-0.2181,-0.1712,0.0,-0.1505,0.0,-0.1,0.0,0.0,0.0,0.0,-0.1408,-0.1401,-0.0805,-0.0222,0.0,0.0,0.0,-0.0807,0.0,0.0,0.0,0.0,0.0,0.0,0.0,0.0,0.0,0.0,0.0,0.0,0.0,-0.5931,0.0,-0.6242,0.0,0.0,0.0,0.0,0.0,0.0,0.0,0.0,0.0,0.0,0.0,0.0,0.0,0.0,0.0,0.0,0.0,0.0,0.0,-1.162,-1.174,-1.2832,-1.2905,-1.2905,-1.2905,-1.2905,-1.2904,-1.2909,-1.4604,-1.498,-1.4036,-1.5255,-1.6039,-1.6489,-1.6134,-1.6173,-1.6513,-1.6779,-1.7365,-1.8232,-1.8441,-1.9033,-1.9798,-1.9798,-1.9798,-1.9747,-1.9307,-1.8965,-1.8581,0.2208,0.2161,0.2196,0.2561,0.2531,0.2512,0.2676,0.2696,0.2757,0.2925,0.2802,0.0,0.2696,0.3509,0.0,0.0,0.3877,0.3187,0.0,0.0,0.1601,0.1499,0.05,0.0077,0.0336,-0.0539,-0.106,-0.1192,-0.1505,-0.1703,-0.1803,-0.1803,-0.1899,-0.207,-0.1591,-0.1309,-0.1174,0.0,-0.0616,-0.0036,-0.0359,-0.0527,-0.0716,-0.1837,-0.1903,-0.1256,-0.0336,-0.014,-0.0279,-0.0081,-0.0791,0.0,-0.2041,0.0,0.0,0.0,0.0,0.0,-0.4495,0.0,0.0,0.0,0.0,0.0,0.0,0.0,0.0,0.0,0.0,0.0,0.0,0.0,0.0,0.0,0.0,0.0,0.0,0.0,0.0,0.0,0.0,0.0,0.0,0.0,0.0,0.0,0.0,-1.1283,-1.2829,-1.2898,-1.2914,-1.2905,-1.2905,-1.2909,-1.2905,-1.3781,-1.3781,-1.2904,-1.4071,-1.5063,-1.5833,-1.5501,-1.5688,-1.6259,-1.6241,-1.6807,-1.7708,-1.7856,-1.8338,-1.9045,-1.9153,-1.9202,-1.915,-1.8821,-1.8447,-1.7922,0.2366,0.2077,0.1938,0.2346,0.2093,0.2028,0.2604,0.2696,0.2907,0.3494,0.0,0.0,0.0,0.0,0.0,0.0,0.0,0.4864,0.3978,0.0,0.2718,0.2004,0.1262,0.0801,0.0,0.0077,-0.0454,-0.0917,-0.1181,-0.1485,-0.1803,-0.1803,-0.1809,-0.1808,-0.1661,-0.1345,-0.0934,-0.1175,-0.0784,-0.0042,-0.05,-0.1258,-0.1988,0.0,-0.0513,-0.1009,-0.028,0.0,0.0,-0.0242,-0.0789,0.0,0.0,0.0,0.0,0.0,0.0,0.0,0.0,0.0,0.0,-0.4956,0.0,0.0,0.0,0.0,-0.6666,0.0,0.0,0.0,0.0,0.0,0.0,-0.662,0.0,0.0,0.0,0.0,0.0,0.0,0.0,0.0,0.0,0.0,0.0,0.0,0.0,0.0,-1.2787,-1.2888,-1.2889,-1.2895,-1.2905,-1.2905,-1.2895,-1.2929,-1.2952,-1.2899,-1.2943,-1.3385,-1.4188,-1.4562,-1.505,-1.562,-1.5625,-1.594,-1.6499,-1.6947,-1.7123,-1.7134,-1.7519,-1.766,-1.7743,-1.8447,-1.7797,-1.6567,0.2778,0.2611,0.2546,0.3036,0.0,0.2873,0.2716,0.2696,0.2771,0.0,0.0,0.0,0.0,0.3828,0.4282,0.0,0.0,0.549,0.4521,0.3445,0.0,0.2735,0.1845,0.1466,0.0,0.0625,0.0091,0.0155,-0.0819,-0.1269,-0.1218,-0.1612,-0.1846,-0.1928,0.0,-0.1393,0.0,0.0,0.0,0.0,0.0,-0.0744,-0.1413,0.0,0.0,-0.1732,-0.1007,-0.0588,0.0,-0.0083,-0.0278,-0.0612,-0.0611,-0.0942,-0.1336,-0.1204,-0.154,0.0,0.0,0.0,-0.3297,-0.4317,0.0,0.0,0.0,0.0,0.0,0.0,0.0,0.0,0.0,0.0,0.0,-0.6838,0.0,0.0,0.0,0.0,0.0,0.0,0.0,0.0,0.0,0.0,0.0,0.0,-0.9963,0.0,0.0,-1.2724,-1.2894,-1.2905,-1.2905,-1.2905,-1.2905,-1.2905,-1.289,-1.2894,-1.2894,-1.3311,-1.4097,-1.4097,-1.4422,-1.5005,-1.5016,-1.5476,-1.6282,-1.6439,-1.6863,-1.742,-1.755,-1.7302,-1.6894,-1.7146,-1.6922,-1.6425,0.2983,0.3004,0.3036,0.0,0.0,0.3065,0.3549,0.3279,0.0,0.0,0.4939,0.0,0.6553,0.0,0.6042,0.0,0.733,0.6468,0.4911,0.3926,0.0,0.3169,0.2502,0.0,0.2447,0.1444,0.0914,0.0907,-0.0215,-0.0807,-0.0905,-0.14,-0.1733,-0.1925,0.0,-0.1518,-0.1009,-0.0726,-0.0235,0.0,0.0,0.012,0.0,0.0,-0.134,-0.2063,0.0,-0.056,-0.0364,-0.0084,0.0,0.0,0.0,0.0,-0.0053,-0.0304,-0.0658,-0.1187,-0.218,-0.2481,0.0,-0.4165,-0.4157,0.0,-0.4897,0.0,0.0,0.0,0.0,0.0,0.0,0.0,0.0,-0.6633,-0.6481,0.0,0.0,-0.6634,0.0,0.0,0.0,0.0,0.0,0.0,-0.8419,-0.9334,0.0,0.0,0.0,0.0,-1.2673,-1.2895,-1.2905,-1.2905,-1.2905,-1.2905,-1.2905,-1.2905,-1.2905,-1.3172,-1.3686,-1.3549,-1.3802,-1.4376,-1.4376,-1.4825,-1.557,-1.5731,-1.6109,-1.6631,-1.6763,-1.6528,-1.6151,-1.6397,-1.6322,-1.6036,0.2973,0.3228,0.0,0.0,0.2285,0.0,0.0,0.0,0.359,0.0,0.6383,0.8804,0.8804,0.8804,0.8804,0.8804,0.8804,0.775,0.5248,0.482,0.0,0.0,0.3205,0.3057,0.2934,0.2456,0.192,0.1375,0.0588,-0.0145,-0.0833,-0.1139,-0.1452,-0.1772,-0.2031,0.0,-0.0857,-0.0543,0.0101,0.0972,0.1713,0.115,-0.0131,-0.0027,-0.0862,-0.1924,-0.0532,-0.0477,-0.0926,-0.0224,0.0,0.0,0.0,0.0,-0.014,-0.0898,-0.1094,-0.1401,-0.2854,-0.3289,-0.3536,-0.4368,0.0,0.0,0.0,0.0,-0.5333,0.0,0.0,0.0,0.0,0.0,0.0,0.0,-0.6372,0.0,0.0,0.0,0.0,0.0,0.0,0.0,0.0,0.0,-0.7931,-1.0079,-0.8742,0.0,0.0,0.0,-1.2248,-1.288,-1.2895,-1.2905,-1.2905,-1.2905,-1.2905,-1.2905,-1.2905,-1.2905,-1.2905,-1.2905,-1.3214,-1.3755,-1.3755,-1.3993,-1.4414,-1.4867,-1.4972,-1.4882,-1.5254,-1.541,-1.5468,-1.6179,-1.6007,-1.541,0.2918,0.3228,0.3733,0.0,0.3432,0.339,0.0,0.0,0.0,0.0,0.8145,0.8804,0.8804,0.8804,0.8804,0.8804,0.8804,0.0,0.0,0.0,0.0,0.3687,0.3537,0.3413,0.3282,0.2566,0.225,0.2339,0.0,0.0235,0.0265,-0.0595,-0.1048,-0.1143,0.0,0.0,-0.0532,-0.0598,0.0021,0.1107,0.1737,0.1508,0.0,0.0,-0.0223,-0.0582,-0.0753,-0.0588,-0.0252,-0.0056,0.0,0.0,0.0,0.0,-0.014,-0.0898,-0.1088,-0.1305,-0.224,-0.2488,-0.2548,-0.2792,-0.2768,-0.2707,0.0,0.0,0.0,0.0,0.0,0.0,0.0,0.0,0.0,0.0,0.0,0.0,0.0,0.0,0.0,-0.7801,0.0,0.0,0.0,0.0,-0.9104,-0.9589,-0.9637,0.0,0.0,0.0,0.0,-1.2863,-1.2898,-1.2905,-1.2905,-1.2905,-1.2905,-1.2905,-1.2905,-1.2905,-1.2905,-1.2905,-1.2968,-1.3128,-1.3128,-1.3531,-1.4202,-1.4321,-1.4708,-1.5264,-1.5371,-1.541,-1.541,-1.5604,-1.5555,-1.541,0.312,0.3277,0.0,0.5745,0.0,0.0,0.6083,0.6673,0.0,0.8651,0.8804,0.0,0.8804,0.8804,0.8804,0.8804,0.8804,0.0,0.6696,0.0,0.0,0.4873,0.441,0.4252,0.4409,0.3539,0.0,0.287,0.0,0.0897,0.0374,-0.0346,-0.0758,-0.0908,0.0,-0.0843,-0.037,0.0176,0.0976,0.1938,0.2604,0.2507,0.0,0.1209,0.0751,0.0389,-0.0363,-0.0364,0.0,0.0,0.0,0.0,0.0,0.0,-0.014,-0.0898,-0.1113,-0.1273,-0.2006,-0.2209,-0.2211,-0.2209,-0.2151,-0.2073,-0.2022,-0.1991,-0.2164,0.0,0.0,0.0,0.0,0.0,0.0,0.0,0.0,0.0,0.0,0.0,0.0,0.0,-0.8051,0.0,0.0,0.0,0.0,0.0,0.0,0.0,0.0,0.0,0.0,-1.2493,-1.2757,-1.2905,-1.2905,-1.2905,-1.2905,-1.2905,-1.2905,-1.2905,-1.2905,-1.2905,-1.2905,-1.2905,-1.2905,-1.3359,-1.4104,-1.4104,-1.4611,-1.541,-1.541,-1.541,-1.541,-1.541,-1.541,-1.541,0.3661,0.0,0.0,0.0,0.0,0.0,0.0,0.66,0.0,0.8457,0.0,0.8631,0.8791,0.8804,0.8804,0.8804,0.0,0.7857,0.6939,0.6885,0.6728,0.6367,0.563,0.5372,0.5705,0.4826,0.3979,0.0,0.2661,0.1626,0.0138,-0.0197,-0.0504,0.0,0.0,0.0,0.0,0.1222,0.2229,0.299,0.372,0.371,0.3211,0.2471,0.181,0.1122,0.0308,0.0,0.0,0.0,0.0,0.0,0.0,0.0,-0.014,-0.0898,-0.1086,-0.1245,-0.1883,-0.2065,-0.202,-0.1927,-0.19,-0.1883,-0.1758,-0.1727,-0.1951,-0.2699,-0.2832,-0.315,0.0,0.0,0.0,0.0,0.0,0.0,0.0,0.0,0.0,0.0,0.0,0.0,0.0,0.0,0.0,0.0,0.0,0.0,0.0,0.0,0.0,-1.1943,-1.256,-1.2905,-1.2905,0.0,-1.2905,-1.2905,-1.2905,-1.2905,-1.2905,-1.2905,-1.2905,-1.2905,-1.2905,-1.3359,-1.4104,-1.4104,-1.4611,-1.541,-1.541,-1.541,-1.541,-1.541,-1.541,-1.541,0.4945,0.0,0.0,0.0,0.0,0.7259,0.807,0.8363,0.8192,0.7413,0.7313,0.7686,0.8697,0.8804,0.8804,0.8804,0.6632,0.0,0.0,0.0,0.0,0.722,0.7044,0.6561,0.571,0.5417,0.4748,0.3673,0.282,0.1886,0.0892,0.0233,0.0,0.0,0.0,0.0,0.0715,0.1476,0.0,0.311,0.3742,0.4105,0.4098,0.2728,0.2124,0.1825,0.0477,0.0,0.0,0.0,0.0,0.0,0.0,0.0,-0.014,-0.0898,-0.1093,-0.1119,-0.1259,-0.1288,-0.115,-0.0532,-0.0392,-0.0391,-0.0361,-0.0361,-0.0555,-0.1302,-0.1439,-0.1843,-0.3118,0.0,0.0,0.0,0.0,0.0,0.0,0.0,0.0,0.0,0.0,-0.8487,0.0,0.0,0.0,0.0,0.0,0.0,0.0,0.0,0.0,0.0,-1.2484,0.0,0.0,0.0,-1.2905,-1.2905,-1.2905,-1.2905,-1.2905,-1.2905,-1.2905,-1.2905,-1.2905,-1.3359,-1.4104,-1.4104,-1.4611,-1.541,-1.541,-1.541,-1.541,-1.541,-1.541,-1.541,0.5251,0.0,0.0,0.0,0.0,0.0,0.0,0.8804,0.8597,0.7999,0.7925,0.8163,0.8744,0.8804,0.8804,0.8804,0.7524,0.731,0.8699,0.8804,0.8593,0.8162,0.8129,0.7866,0.732,0.6499,0.5582,0.4584,0.3741,0.2603,0.1187,0.0,0.0,0.0013,0.0,0.076,0.0,0.0,0.0,0.3148,0.3821,0.4254,0.4377,0.3199,0.2541,0.2051,0.0954,0.0336,0.0,0.0,0.0,0.0,0.0,0.0,-0.0056,-0.0421,-0.0533,-0.0533,-0.0533,-0.0533,-0.0449,-0.0084,0.0,0.0,0.0,0.0,-0.0308,-0.1452,-0.1675,-0.2072,-0.3417,-0.4407,0.0,0.0,0.0,0.0,0.0,0.0,0.0,0.0,0.0,0.0,0.0,0.0,0.0,0.0,0.0,0.0,0.0,0.0,0.0,0.0,0.0,0.0,0.0,0.0,0.0,-1.2905,-1.2905,-1.2905,-1.2905,-1.2905,-1.2905,-1.2915,-1.3105,-1.3555,-1.4143,-1.4591,-1.5011,-1.541,-1.541,-1.541,-1.541,-1.541,-1.541,-1.541,0.0,0.6593,0.0,0.0,0.7213,0.0,0.8664,0.8804,0.8804,0.8804,0.8804,0.8804,0.8804,0.8804,0.8804,0.8804,0.8804,0.8804,0.8804,0.8804,0.8804,0.8804,0.8804,0.8804,0.8804,0.7533,0.6422,0.0,0.4708,0.0,0.0,0.0,0.0,0.0,0.0,0.0,0.0,0.0,0.3079,0.3388,0.3968,0.432,0.4405,0.3613,0.2843,0.21,0.1373,0.0617,0.0,0.0,0.0,0.0,0.0,0.0,0.0,0.0,0.0,0.0,0.0,0.0,0.0,0.0,0.0,0.0,0.0,0.0,-0.0364,-0.1703,-0.2204,-0.2787,-0.3979,-0.4632,0.0,0.0,0.0,0.0,0.0,0.0,0.0,0.0,0.0,0.0,-0.973,0.0,0.0,0.0,0.0,0.0,0.0,0.0,0.0,0.0,0.0,-1.104,-1.2353,0.0,-1.1882,-1.2461,-1.2593,-1.2666,-1.2666,-1.2832,-1.2905,-1.2925,-1.333,-1.3773,-1.4309,-1.5069,-1.541,-1.541,-1.541,-1.541,-1.541,-1.541,-1.5294,-1.5157,0.0,0.0,0.0,0.0,0.0,0.0,0.8791,0.8804,0.8804,0.8804,0.8804,0.8804,0.8804,0.8804,0.8804,0.8804,0.8804,0.8804,0.8804,0.8804,0.8804,0.8804,0.8804,0.8804,0.8804,0.8129,0.7244,0.0,0.0,0.4054,0.0,0.215,0.0,0.0,0.0,0.0,0.0,0.3098,0.3369,0.4095,0.4184,0.4328,0.4405,0.3594,0.2834,0.2107,0.1367,0.0616,0.0,0.0,0.0,0.0,0.0,0.0,0.0,0.0,0.0,0.0,0.0,0.0,0.0,0.0,0.0,0.0,0.0,0.0,-0.0224,-0.1034,-0.2258,-0.3394,-0.4088,-0.4405,-0.4741,0.0,0.0,0.0,0.0,0.0,-0.7697,-0.8461,0.0,0.0,0.0,0.0,0.0,0.0,0.0,0.0,0.0,0.0,0.0,-1.0228,0.0,-1.047,-1.0624,-1.0806,-1.0939,-1.099,-1.1616,-1.1888,-1.1922,-1.2608,-1.2905,-1.2925,-1.333,-1.3975,-1.4756,-1.5225,-1.541,-1.541,-1.541,-1.541,-1.541,-1.541,-1.4932,-1.4357,0.0,0.0,0.0,0.0,0.0,0.0,0.0,0.8804,0.8804,0.8804,0.8804,0.8804,0.8804,0.8804,0.8804,0.8804,0.8804,0.8804,0.8804,0.8804,0.8804,0.8804,0.8804,0.8804,0.8804,0.8577,0.7953,0.0,0.0,0.5179,0.4024,0.3543,0.0,0.0,0.0,0.3439,0.3792,0.372,0.3872,0.4204,0.4341,0.4436,0.446,0.4153,0.3531,0.2775,0.2012,0.1287,0.0587,0.014,0.0,0.0,0.0,0.0,0.0,0.0,0.0,0.0,0.0,0.0,0.0,0.0,0.0,0.0,0.0,0.0,-0.0196,-0.095,-0.2313,-0.358,-0.425,-0.445,-0.4714,0.0,0.0,0.0,0.0,0.0,0.0,-0.8183,0.0,-0.7804,0.0,0.0,0.0,0.0,0.0,0.0,0.0,0.0,0.0,-0.9368,0.0,-0.9597,-1.0381,-1.0273,-1.0389,-1.0788,-1.1065,-1.1408,-1.1814,-1.2104,-1.2751,-1.3617,-1.3782,-1.4338,-1.5147,-1.4808,-1.4688,-1.4628,-1.4154,-1.3965,-1.3965,-1.3965,-1.3756,-1.3571,1.252,0.0,1.2905,0.0,1.0643,0.8804,0.8804,0.8804,0.8804,0.8804,0.8804,0.8804,0.8804,0.8804,0.8804,0.8804,0.8804,0.8804,0.8804,0.8804,0.8804,0.8804,0.8804,0.0,0.8804,0.8717,0.8414,0.7896,0.7096,0.6266,0.5375,0.0,0.0,0.0,0.4366,0.4349,0.4187,0.4201,0.424,0.4294,0.445,0.4491,0.4491,0.4491,0.4006,0.3222,0.2738,0.1928,0.1032,0.0503,0.0168,0.0,0.0,0.0,0.0,0.0,0.0,0.0,0.0,0.0,0.0,0.0,0.0,0.0,0.0,0.0,-0.0196,-0.095,-0.2148,-0.3262,-0.4015,-0.4349,-0.4653,-0.5136,0.0,0.0,0.0,-0.6825,0.0,0.0,-0.7671,-0.782,-0.8305,0.0,0.0,0.0,0.0,0.0,0.0,0.0,0.0,0.0,0.0,0.0,0.0,-0.9606,-0.9736,-1.021,-1.0415,-1.0737,-1.1216,-1.1504,-1.2384,-1.3598,-1.3598,-1.4016,-1.4658,-1.4085,-1.3855,-1.3786,-1.3221,-1.3009,-1.3009,-1.3009,-1.2891,-1.2844,1.2881,1.2905,1.2905,1.2905,1.0643,0.8804,0.8804,0.8804,0.8804,0.8804,0.8804,0.8804,0.8804,0.8804,0.8804,0.8804,0.8804,0.8804,0.8804,0.8804,0.8804,0.0,0.0,0.8804,0.8804,0.8538,0.8528,0.8778,0.0,0.0,0.6756,0.0,0.5858,0.5658,0.5263,0.5087,0.5042,0.4463,0.4307,0.4487,0.4491,0.4491,0.4491,0.4491,0.4006,0.3302,0.336,0.2397,0.1093,0.1087,0.0614,0.0,0.0,0.0,0.0,0.0,0.0,0.0,0.0,0.0,0.0,0.0,0.0,0.0,0.0,0.0,-0.0196,-0.095,-0.1703,-0.2454,-0.3176,-0.3956,-0.4491,-0.4519,0.0,0.0,0.0,0.0,0.0,-0.6801,-0.6925,-0.691,-0.6651,0.0,0.0,0.0,0.0,0.0,0.0,0.0,0.0,-0.8297,-0.8369,0.0,-0.8427,-0.869,-0.8804,-0.8831,-0.9484,-0.9814,-0.9847,-1.0851,-1.1707,-1.2414,-1.2414,-1.2649,-1.3039,-1.3009,-1.3009,-1.3009,-1.3009,-1.3009,-1.3009,-1.3009,-1.2664,-1.227,1.2905,1.2905,1.2314,1.0438,0.9368,0.8804,0.8804,0.8804,0.8804,0.8804,0.8804,0.8804,0.8804,0.8804,0.8804,0.0,0.8804,0.8804,0.0,0.8804,0.8804,0.8804,0.8804,0.8804,0.8804,0.8717,0.8721,0.8792,0.0,0.0,0.0,0.7602,0.7331,0.6777,0.6335,0.5841,0.5317,0.4674,0.4433,0.4491,0.4491,0.4491,0.4491,0.4491,0.4346,0.4064,0.3583,0.272,0.1778,0.1279,0.0614,0.0,0.0,0.0,0.0,0.0,0.0,0.0,0.0,0.0,0.0,0.0,0.0,0.0,0.0,0.0,-0.0196,-0.095,-0.1675,-0.2426,-0.3231,-0.3987,-0.4491,-0.4491,-0.468,0.0,0.0,0.0,-0.536,-0.5855,-0.5553,-0.5555,0.0,-0.5388,0.0,0.0,0.0,0.0,0.0,0.0,0.0,0.0,-0.8349,0.0,-0.8402,-0.8664,-0.8804,-0.8804,-0.9008,-0.9475,-1.0165,-1.113,-1.1889,-1.2393,-1.2393,-1.2619,-1.2948,-1.242,-1.2174,-1.2143,-1.1569,-1.1488,-1.1614,-1.1437,-1.1411,-1.1495,1.2905,1.2905,1.2372,1.0643,1.0336,1.0336,1.0336,1.0336,1.0336,1.0336,0.9446,0.9192,1.0233,0.942,0.0,0.8804,0.8804,0.8804,0.8804,0.8804,0.8804,0.8804,0.8804,0.8804,0.8804,0.8804,0.0,0.8788,0.8788,0.86,0.8252,0.8462,0.8145,0.7441,0.7146,0.6453,0.5463,0.5061,0.4719,0.4491,0.4491,0.4491,0.4491,0.4491,0.4491,0.4432,0.3978,0.3111,0.2138,0.167,0.0838,0.0,0.0,0.0,0.0,0.0,0.0,0.0,0.0,0.0,0.0,0.0,0.0,0.0,0.0,0.0,-0.014,-0.0588,-0.1284,-0.2037,-0.2815,-0.3539,-0.4153,-0.446,-0.4491,-0.4491,-0.4491,0.0,-0.5333,0.0,0.0,0.0,0.0,-0.4796,-0.4498,0.0,0.0,0.0,0.0,0.0,0.0,-0.7444,-0.8324,0.0,-0.8537,-0.8717,-0.8804,-0.8804,-0.8891,-0.9391,-1.0243,-1.0825,-1.1335,-1.173,-1.173,-1.1874,-1.2058,-1.1569,-1.1351,-1.1288,-1.0807,-1.0707,-1.0841,-1.066,-1.0594,-1.0623,1.2905,1.2905,1.2905,0.0,1.2905,0.0,1.2905,1.2905,1.2905,1.2905,1.066,1.0053,1.2627,1.0617,0.9087,0.9087,0.0,0.0,0.0,0.891,0.8883,0.9087,0.891,0.8804,0.8804,0.8804,0.8804,0.8804,0.8804,0.8804,0.8804,0.8804,0.8422,0.7773,0.772,0.6902,0.5565,0.5518,0.512,0.4491,0.4491,0.4491,0.4491,0.4491,0.4491,0.4491,0.4491,0.3539,0.2286,0.2232,0.1257,0.0056,0.0028,0.0,0.0,0.0,0.0,0.0,0.0,0.0,0.0,0.0,0.0,0.0,0.0,0.0,0.0,0.0,-0.0588,-0.1312,-0.2063,-0.2815,-0.3566,-0.4377,-0.4491,-0.4519,-0.457,0.0,0.0,0.0,0.0,0.0,0.0,-0.4638,-0.4412,0.0,0.0,0.0,0.0,0.0,-0.7508,-0.7404,-0.8319,-0.8804,-0.8804,-0.8804,-0.8818,-0.8838,-0.9124,-0.9557,-1.0083,-1.011,-1.0294,-1.0593,-1.0593,-1.0593,-1.0593,-1.0593,-1.0593,-1.0593,-1.0593,-1.0606,-1.0633,-1.0481,-1.012,-0.9675,0.0,0.0,1.2905,1.2905,1.2905,1.2905,1.2905,1.2905,1.2905,1.2905,1.2338,1.219,1.2832,1.2323,1.1934,1.1934,1.1934,1.1934,1.1934,0.995,0.9725,1.1834,0.9925,0.8804,0.8804,0.8804,0.8804,0.8804,0.8804,0.8804,0.8804,0.8804,0.8718,0.8514,0.7949,0.72,0.6306,0.5727,0.512,0.4491,0.4491,0.4491,0.4491,0.4491,0.4491,0.4491,0.4491,0.3898,0.303,0.2397,0.1593,0.0729,0.0168,0.0,0.0,0.0,0.0,0.0,0.0,0.0,0.0,0.0,0.0,0.0,0.0,0.0,0.0,0.0,-0.0588,-0.1312,-0.2063,-0.2815,-0.3566,-0.4377,-0.4491,-0.468,-0.5191,-0.5113,0.0,0.0,-0.5073,-0.4755,-0.4597,-0.4544,-0.4412,0.0,0.0,0.0,0.0,-0.7253,-0.8273,-0.8449,-0.8666,-0.8804,-0.8804,-0.8804,-0.8891,-0.9118,-0.963,-0.995,-1.0127,-1.0354,-1.0526,-1.0593,-1.0593,-1.0593,-1.0593,-1.0593,-1.0593,-1.0593,-1.0593,-1.0774,-1.0811,-0.9446,-0.9127,-0.934,1.2905,1.2905,1.2905,1.2905,1.2905,1.2905,1.2905,1.2905,1.2905,1.2905,1.2905,1.2905,1.2905,1.2905,1.2905,1.2905,1.2905,1.2905,1.2905,1.1501,1.1351,1.2832,1.0259,0.8804,0.8804,0.8804,0.8804,0.8804,0.8804,0.8804,0.8804,0.8804,0.8804,0.8778,0.8389,0.7603,0.658,0.6173,0.5436,0.4491,0.4491,0.4491,0.4491,0.4491,0.4535,0.4593,0.4593,0.4103,0.3362,0.2609,0.1789,0.0957,0.0232,0.0,0.0,0.0,0.0,0.0,0.0,0.0,0.0,0.0,-0.0252,-0.0419,-0.0084,-0.0252,-0.042,-0.0056,-0.0308,-0.0923,-0.2009,-0.2536,-0.3176,-0.4322,-0.4759,-0.5081,-0.546,-0.5475,0.0,-0.5483,-0.5171,-0.4847,-0.4543,-0.4491,-0.4457,-0.4351,-0.5003,0.0,-0.588,-0.6964,-0.7792,-0.8289,-0.8619,-0.8871,-0.8978,-0.9138,-0.9352,-0.9617,-0.993,-1.0187,-1.0321,-1.0519,-1.0593,-1.0593,-1.0593,-1.0593,-1.0593,-1.0593,-1.0673,-1.0787,-1.0787,-1.0651,-1.0331,-0.9365,-0.8529,-0.7859,1.2905,1.2905,1.2905,1.2905,1.2905,1.2905,1.2905,1.2905,1.2905,1.2905,1.2905,1.2905,1.2905,1.2905,1.2905,1.2905,1.2905,1.2905,1.2905,1.2905,1.2905,1.2905,1.0668,0.9211,0.8811,0.8804,0.8804,0.8804,0.8804,0.8804,0.8804,0.8804,0.8804,0.8804,0.8804,0.8041,0.676,0.6681,0.5843,0.4559,0.4559,0.4559,0.4559,0.4559,0.4641,0.4724,0.4724,0.4338,0.3693,0.2939,0.2067,0.1175,0.0426,0.0119,0.0,0.0,0.0,0.0,0.0,-0.0084,-0.0168,-0.0168,-0.0726,-0.1114,-0.0476,-0.0727,-0.0923,-0.0308,-0.0084,-0.042,-0.1786,-0.2037,-0.2538,-0.407,-0.4889,-0.5374,-0.5483,0.0,-0.6199,-0.5569,-0.5406,-0.5136,-0.4543,-0.4491,-0.4491,-0.4491,-0.4598,-0.5171,-0.6367,-0.6534,-0.6901,-0.7561,-0.8254,-0.8784,-0.9038,-0.94,-0.9748,-1.0083,-1.016,-1.0314,-1.0593,-1.0593,-1.0593,-1.0593,-1.0593,-1.0593,-1.0593,-1.0593,-1.076,-1.1002,-1.1076,-1.0523,-0.9683,-0.9553,-0.8152,-0.63,1.2905,1.2905,1.2905,1.2905,1.2905,1.2905,1.2905,1.2905,1.2905,1.2905,1.2905,1.2905,1.2905,1.2905,1.2905,1.2905,1.2905,1.2905,1.2905,1.2905,1.2905,1.2905,1.2495,1.1175,0.8857,0.8804,0.8804,0.8804,0.8804,0.8804,0.8804,0.8804,0.8804,0.8804,0.8804,0.833,0.7499,0.7055,0.6066,0.485,0.485,0.485,0.485,0.485,0.4863,0.4884,0.4884,0.479,0.4596,0.3851,0.3024,0.2131,0.1344,0.0598,0.0,0.0,0.0,0.0,0.0,-0.0449,-0.0924,-0.0921,-0.1477,-0.2007,-0.1898,-0.1452,-0.1062,-0.095,-0.042,-0.0252,-0.1118,-0.1284,-0.1758,-0.3234,-0.4106,-0.4785,-0.5401,0.0,-0.5624,-0.5515,-0.5003,-0.4625,-0.4519,-0.4491,-0.4491,-0.4491,-0.503,-0.5433,-0.5651,-0.6258,-0.6728,-0.7018,-0.7585,-0.8042,-0.8363,-0.8747,-0.9315,-1.009,-1.0405,-1.0546,-1.0593,-1.0593,-1.0593,-1.0593,-1.0593,-1.0593,-1.0593,-1.0593,-1.076,-1.1035,-1.1443,-1.0831,-0.9603,-0.8827,-0.7592,-0.63,1.2905,1.2905,1.2905,1.2905,1.2905,1.2905,1.2905,1.2905,1.2905,1.2905,1.2905,1.2905,1.2905,1.2905,1.2905,1.2905,1.2905,1.2905,1.2905,1.2905,1.2905,1.2905,1.1476,1.0105,0.8831,0.8804,0.8804,0.8804,0.8804,0.8804,0.8804,0.8804,0.8918,0.9118,0.8907,0.8423,0.7756,0.7001,0.6051,0.4992,0.4942,0.4887,0.4887,0.4887,0.4935,0.5002,0.5002,0.5002,0.4912,0.4144,0.3274,0.2354,0.1557,0.0704,0.0,0.0,0.0,0.0,0.0,-0.0533,-0.1093,-0.1086,-0.1975,-0.2726,-0.2286,-0.1924,-0.1591,-0.1174,-0.0504,-0.0224,-0.095,-0.109,-0.1452,-0.2536,-0.366,0.0,0.0,-0.5261,-0.5515,-0.5515,-0.4893,-0.4491,-0.4491,-0.4491,-0.4491,-0.4491,-0.4787,-0.5109,-0.5487,-0.5921,-0.6384,-0.6876,-0.7362,-0.7892,-0.851,-0.8886,-0.9493,-1.0354,-1.0526,-1.0593,-1.0593,-1.0593,-1.0593,-1.0593,-1.0593,-1.0593,-1.06,-1.076,-1.0962,-1.1195,-1.1071,-1.0383,-0.9364,-0.8383,-0.731,-0.63,1.2905,1.2905,1.2905,1.2905,1.2905,1.2905,1.2905,1.2905,1.2905,1.2905,1.2905,1.2905,1.2905,1.2905,1.3071,1.3463,1.3467,1.3467,1.3467,1.3467,1.3316,1.2925,1.0771,0.9487,0.9305,0.9231,0.905,0.8804,0.8804,0.8844,0.8884,0.8884,0.9078,0.9396,0.9124,0.8608,0.7884,0.7199,0.6241,0.5171,0.5047,0.5023,0.5023,0.5023,0.5087,0.5182,0.5182,0.5182,0.5071,0.4518,0.3675,0.2736,0.2132,0.1167,0.0295,0.0286,0.0151,0.0,0.0,-0.0673,-0.1345,-0.1364,-0.2528,-0.3503,-0.2869,-0.2454,-0.204,-0.1467,-0.0623,-0.017,-0.0736,-0.0849,-0.11,-0.1817,0.0,0.0,0.0,-0.4792,-0.5261,-0.5273,-0.4814,-0.4491,-0.4491,-0.4491,-0.4491,-0.4491,-0.4491,-0.475,-0.5278,-0.547,-0.5839,-0.6473,-0.696,-0.7623,-0.8544,-0.8646,-0.9326,-1.0593,-1.0396,-1.0396,-1.0593,-1.0593,-1.0593,-1.0593,-1.0593,-1.0593,-1.0613,-1.0875,-1.1162,-1.1312,-1.0663,-0.9946,-0.9188,-0.8188,-0.7153,-0.63,1.2905,1.2905,1.2905,1.2905,1.2905,1.2905,1.2905,1.2905,1.2905,1.2905,1.2905,1.2905,1.2905,1.2905,1.3541,1.5088,1.5225,1.5225,1.5225,1.5225,1.4521,1.2974,1.2237,1.1545,1.0849,1.0531,0.986,0.8804,0.8804,0.8918,0.9178,0.9178,0.9246,0.9408,0.9548,0.901,0.7982,0.8038,0.7015,0.5361,0.5377,0.5361,0.5361,0.5361,0.5368,0.5378,0.5378,0.5378,0.5378,0.5322,0.4671,0.3893,0.3818,0.2618,0.1219,0.1189,0.0643,0.0,0.0,-0.1038,-0.213,-0.2109,-0.3277,-0.4405,-0.4349,-0.3231,-0.2194,-0.2118,-0.0995,-0.0029,-0.0059,-0.0088,-0.0319,-0.1067,0.0,0.0,-0.3284,-0.4021,-0.4518,-0.4567,-0.4515,-0.4491,-0.4491,-0.4491,-0.4491,-0.4491,-0.4491,-0.458,-0.475,-0.4771,-0.4932,-0.5213,-0.5927,-0.6777,-0.7773,-0.72,-0.8146,-1.0593,-0.9786,-0.9817,-1.0593,-1.0593,-1.0593,-1.0593,-1.0593,-1.0593,-1.0613,-1.0875,-1.1162,-1.1312,-1.0663,-0.9946,-0.9188,-0.8188,-0.7153,-0.63,1.2905,1.2905,1.2905,1.2905,1.2905,1.2905,1.2905,1.3769,1.4453,1.4453,1.4453,1.4453,1.4453,1.4453,1.4707,1.5352,1.541,1.541,1.541,1.541,1.5127,1.4482,1.427,1.327,1.1409,1.0969,1.0275,0.9352,0.9352,0.9406,0.9512,0.9512,0.9637,0.9821,0.9863,0.9788,0.9531,0.8516,0.7442,0.6408,0.5679,0.5395,0.5395,0.5395,0.5395,0.5395,0.5395,0.5395,0.5395,0.5395,0.4785,0.401,0.3984,0.2772,0.1207,0.0636,0.0266,0.0,0.0,-0.1162,-0.2386,-0.238,-0.3577,-0.4756,-0.4758,-0.3942,-0.3034,-0.2499,-0.1541,-0.0636,-0.0091,0.0,-0.0088,-0.0376,0.0,-0.1782,-0.2508,-0.3282,-0.395,-0.4432,-0.4576,-0.4634,-0.4634,-0.4691,-0.4745,-0.4745,-0.4745,-0.4772,-0.483,-0.4914,-0.506,-0.5267,-0.5564,-0.6137,-0.7058,-0.6811,-0.773,-0.9786,-0.9466,-0.9754,-1.0593,-1.0593,-1.0593,-1.0593,-1.0593,-1.0693,-1.0888,-1.1142,-1.1436,-1.1583,-1.0256,-0.9558,-0.9112,-0.7468,-0.6633,-0.63,1.3013,1.3501,1.38,1.3041,1.3345,1.3698,1.3698,1.4668,1.541,1.541,1.541,1.541,1.541,1.541,1.541,1.541,1.541,1.541,1.541,1.541,1.541,1.541,1.541,1.4569,1.2838,1.2158,1.1226,1.007,1.007,0.9981,0.982,0.982,0.998,1.0254,1.0223,1.0338,1.0514,0.9341,0.8371,0.7577,0.6773,0.6218,0.5815,0.5815,0.562,0.5395,0.5395,0.5395,0.5395,0.5395,0.4957,0.4453,0.4453,0.3211,0.1574,0.0671,0.0202,0.0,0.0,-0.1039,-0.2182,-0.2441,-0.3494,-0.4562,-0.4846,-0.4119,-0.3234,-0.2613,-0.1654,-0.0719,-0.0125,0.0,0.0,0.0,-0.041,-0.1125,-0.216,-0.2762,-0.348,-0.452,-0.4697,-0.4762,-0.4762,-0.4857,-0.4887,-0.4887,-0.4887,-0.4908,-0.4951,-0.5125,-0.525,-0.5392,-0.5395,-0.5686,-0.6301,-0.6301,-0.7312,-0.9306,-0.9011,-0.9492,-1.0593,-1.0593,-1.0593,-1.0593,-1.0687,-1.0841,-1.1022,-1.1403,-1.1683,-1.1719,-0.9995,-0.9316,-0.9042,-0.703,-0.63,-0.63,1.3257,1.4835,1.5746,1.334,1.4297,1.541,1.541,1.541,1.541,1.541,1.541,1.541,1.541,1.541,1.541,1.541,1.541,1.541,1.541,1.541,1.541,1.541,1.541,1.5381,1.5381,1.4332,1.2844,1.0914,1.0914,1.0625,1.009,1.009,1.0281,1.0593,1.0593,1.0593,1.06,1.0591,0.9906,0.8816,0.8808,0.7954,0.6687,0.6687,0.6174,0.5395,0.5395,0.5395,0.5395,0.5395,0.5395,0.5395,0.5395,0.4148,0.2509,0.157,0.0671,0.0,0.0,-0.064,-0.1481,-0.2298,-0.3051,-0.3815,-0.4697,-0.3658,-0.2513,-0.2493,-0.116,0.0,0.0,0.0,0.0,0.0,0.0,-0.0586,-0.2243,-0.2489,-0.3103,-0.4705,-0.4891,-0.4891,-0.4891,-0.4891,-0.4891,-0.4891,-0.4891,-0.4955,-0.5093,-0.5277,-0.5395,-0.5395,-0.5395,-0.5395,-0.5395,-0.5395,-0.6699,-0.9268,-0.842,-0.8898,-1.0593,-1.0593,-1.0593,-1.0606,-1.0868,-1.0995,-1.1042,-1.1665,-1.1906,-1.1719,-0.9995,-0.9316,-0.9042,-0.703,-0.63,-0.63,1.5152,1.5233,1.5484,1.4787,1.5078,1.541,1.541,1.541,1.541,1.541,1.541,1.541,1.541,1.541,1.541,1.541,1.541,1.541,1.541,1.541,1.541,1.541,1.541,1.4864,1.3726,1.3965,1.3335,1.1797,1.1624,1.1175,1.0459,1.0459,1.0506,1.0593,1.0593,1.0593,1.06,1.0591,1.0053,0.9204,0.9806,0.8728,0.6687,0.6687,0.6174,0.5395,0.5395,0.5395,0.5395,0.5395,0.5395,0.5292,0.461,0.3642,0.2511,0.1573,0.0671,0.0,0.0,-0.0202,-0.0606,-0.144,-0.2321,-0.3025,-0.3301,-0.2971,-0.2455,-0.1785,-0.1259,-0.073,-0.01,0.0,0.0,0.0,0.0,-0.037,-0.1385,-0.209,-0.2858,-0.387,-0.46,-0.5036,-0.5036,-0.5165,-0.5262,-0.5262,-0.5262,-0.5279,-0.5324,-0.5368,-0.5395,-0.5395,-0.5395,-0.5395,-0.5395,-0.5395,-0.6404,-0.8388,-0.8124,-0.8898,-1.0593,-1.0593,-1.0593,-1.0606,-1.0868,-1.1109,-1.1323,-1.1745,-1.2027,-1.1995,-1.0056,-0.9301,-0.9046,-0.7026,-0.63,-0.63,1.7501,1.7141,1.6778,1.5604,1.541,1.541,1.541,1.541,1.541,1.541,1.541,1.541,1.541,1.541,1.541,1.541,1.541,1.541,1.541,1.541,1.541,1.541,1.541,1.4932,1.3965,1.4421,1.3965,1.2504,1.2351,1.1686,1.0593,1.0593,1.0653,1.076,1.064,1.066,1.0735,1.0646,1.0341,1.0024,1.058,0.9693,0.8047,0.8047,0.725,0.6143,0.6143,0.5868,0.5494,0.5549,0.5532,0.5369,0.4764,0.3984,0.3177,0.2599,0.1586,0.0625,0.062,0.0309,-0.0137,-0.0641,-0.1475,-0.2242,-0.2611,-0.241,-0.1976,-0.1407,-0.104,-0.0638,-0.0101,0.0,0.0,0.0,0.0,-0.0288,-0.1083,-0.1973,-0.2862,-0.3658,-0.4618,-0.522,-0.522,-0.5341,-0.5395,-0.5395,-0.5395,-0.5395,-0.5395,-0.5395,-0.5395,-0.5395,-0.5395,-0.5395,-0.5395,-0.5395,-0.6086,-0.7508,-0.7827,-0.8726,-1.011,-1.0428,-1.0653,-1.078,-1.1042,-1.1329,-1.1623,-1.1917,-1.2144,-1.2114,-1.0083,-0.9296,-0.9069,-0.7061,-0.63,-0.63,1.9798,1.9798,1.8953,1.6262,1.5575,1.541,1.541,1.541,1.541,1.541,1.541,1.541,1.541,1.541,1.541,1.541,1.541,1.542,1.5498,1.5537,1.5537,1.5537,1.5537,1.5537,1.5537,1.5449,1.4656,1.3166,1.315,1.2398,1.0921,1.0921,1.1033,1.1147,1.0916,1.0879,1.0996,1.0738,1.0811,1.1056,1.1133,1.0717,1.0101,1.0101,0.8974,0.742,0.7314,0.6624,0.5766,0.5791,0.5715,0.5586,0.5477,0.4894,0.4237,0.4209,0.2977,0.1598,0.1604,0.0817,0.0,0.0,-0.0608,-0.1412,-0.2278,-0.1809,-0.1173,-0.1173,-0.0538,0.0,0.0,0.0,0.0,0.0,0.0,-0.0269,-0.1074,-0.1976,-0.2878,-0.3647,-0.4586,-0.5193,-0.5263,-0.5362,-0.5395,-0.5395,-0.5395,-0.5395,-0.5395,-0.5395,-0.5395,-0.5395,-0.5395,-0.5395,-0.5395,-0.5395,-0.5837,-0.6697,-0.76,-0.8452,-0.9338,-1.0232,-1.0774,-1.1009,-1.1329,-1.1617,-1.1913,-1.2178,-1.2305,-1.2114,-1.0158,-0.9334,-0.8955,-0.7022,-0.63,-0.6261,1.9798,1.9798,1.9605,1.8953,1.6957,1.541,1.541,1.541,1.541,1.541,1.541,1.541,1.541,1.541,1.541,1.541,1.541,1.5703,1.6365,1.6414,1.6414,1.6414,1.6414,1.6414,1.6414,1.5742,1.5061,1.4336,1.4458,1.4139,1.3493,1.3493,1.3148,1.2502,1.2435,1.1894,1.1065,1.1025,1.1221,1.1533,1.156,1.0983,1.0101,1.0101,0.9429,0.8368,0.7597,0.7151,0.6812,0.6072,0.5779,0.5749,0.5718,0.5122,0.4429,0.4431,0.3074,0.1599,0.1592,0.0832,0.0,0.0,-0.0141,-0.0346,-0.0541,-0.0438,-0.0269,-0.0269,-0.0135,0.0,0.0,0.0,0.0,0.0,0.0,-0.0067,-0.0269,-0.104,-0.1675,-0.1876,-0.2711,-0.3549,-0.4228,-0.496,-0.5395,-0.5395,-0.5395,-0.5395,-0.5395,-0.5395,-0.5395,-0.5395,-0.5395,-0.5395,-0.5395,-0.5395,-0.5851,-0.6704,-0.76,-0.8447,-0.9344,-1.0432,-1.0935,-1.1022,-1.155,-1.1764,-1.1784,-1.2151,-1.2305,-1.215,-1.0651,-0.9442,-0.8342,-0.683,-0.63,-0.5828,1.9798,1.9798,1.9798,1.9798,1.7363,1.541,1.541,1.541,1.541,1.541,1.541,1.541,1.541,1.541,1.5712,1.6582,1.665,1.667,1.6697,1.7083,1.7135,1.6707,1.6697,1.6697,1.6697,1.6248,1.5711,1.5092,1.5156,1.4868,1.4312,1.4312,1.4114,1.3731,1.3607,1.3073,1.2238,1.1654,1.1495,1.1708,1.1918,1.1637,1.1154,1.1154,1.0569,0.9621,0.8609,0.763,0.6729,0.6028,0.585,0.5898,0.5823,0.5521,0.5203,0.5203,0.4207,0.2965,0.245,0.1556,0.0628,0.011,0.0,0.0,0.0,0.0,0.0,0.0,0.0,0.0,0.0,0.0,0.0,0.0,0.0,0.0,0.0,-0.0739,-0.1307,-0.1307,-0.2143,-0.3045,-0.3915,-0.4447,-0.4918,-0.5362,-0.5395,-0.5395,-0.5395,-0.5395,-0.5429,-0.5501,-0.5433,-0.5429,-0.5504,-0.5504,-0.5732,-0.6178,-0.7555,-0.8475,-0.9025,-1.0503,-1.1276,-1.1423,-1.1683,-1.187,-1.2011,-1.2218,-1.1737,-1.0801,-1.0088,-0.9216,-0.8147,-0.6791,-0.63,-0.5986,1.9798,1.9798,1.9631,1.915,1.703,1.541,1.541,1.541,1.541,1.541,1.541,1.5498,1.582,1.5859,1.6436,1.7881,1.8008,1.7672,1.697,1.7601,1.7673,1.6963,1.6921,1.6921,1.6921,1.6921,1.6574,1.5818,1.5818,1.553,1.4936,1.477,1.479,1.5001,1.4631,1.4236,1.3791,1.2612,1.2011,1.1834,1.2161,1.2285,1.2305,1.2305,1.1768,1.0938,0.9933,0.8275,0.6489,0.604,0.5962,0.6047,0.5918,0.5966,0.6067,0.6067,0.5422,0.4513,0.3625,0.2506,0.14,0.0482,0.0147,0.0,0.0,0.0,0.0,0.0,0.0,0.0,0.0,0.0,0.0,0.0,0.0,0.0,0.0,-0.0638,-0.1073,-0.1073,-0.191,-0.2751,-0.3471,-0.3852,-0.4341,-0.5119,-0.5379,-0.547,-0.547,-0.547,-0.5528,-0.5623,-0.5535,-0.5532,-0.5627,-0.5627,-0.5641,-0.5674,-0.7596,-0.854,-0.8667,-1.0588,-1.1637,-1.1906,-1.183,-1.2004,-1.2305,-1.2305,-1.0907,-0.877,-0.877,-0.8456,-0.7808,-0.6718,-0.63,-0.63,1.9798,1.9798,1.9006,1.6433,1.5661,1.541,1.541,1.541,1.541,1.541,1.541,1.5986,1.749,1.7656,1.7754,1.7988,1.8008,1.7959,1.7842,1.7924,1.7968,1.7842,1.7832,1.7832,1.7832,1.7832,1.7589,1.7154,1.7154,1.7272,1.7484,1.6663,1.6294,1.6313,1.5452,1.5031,1.4915,1.4175,1.3242,1.2231,1.2292,1.2314,1.2305,1.2305,1.2224,1.1959,1.0975,0.9286,0.7472,0.6555,0.6252,0.6265,0.6245,0.6252,0.6269,0.6269,0.5535,0.4683,0.4513,0.3073,0.1558,0.1434,0.0684,0.0,0.0,0.0,0.0,0.0,0.0,0.0,0.0,0.0,0.0,0.0,0.0,0.0,0.0,-0.0101,-0.0168,-0.0168,-0.0943,-0.1534,-0.1652,-0.3197,-0.4214,-0.4369,-0.5215,-0.5742,-0.5742,-0.5742,-0.5752,-0.5772,-0.5752,-0.5752,-0.5772,-0.5772,-0.5846,-0.5954,-0.8038,-0.8852,-0.8664,-1.0858,-1.1866,-1.1919,-1.2124,-1.2251,-1.2305,-1.2305,-1.0078,-0.6718,-0.6718,-0.6641,-0.6567,-0.6377,-0.63,-0.63,1.7335,1.7335,1.6918,1.5633,1.541,1.541,1.541,1.541,1.541,1.541,1.626,1.7158,1.793,1.8008,1.8008,1.8008,1.8008,1.8008,1.8008,1.8008,1.8008,1.8008,1.8008,1.8008,1.8008,1.8008,1.792,1.7734,1.7734,1.7832,1.7974,1.7579,1.7389,1.7354,1.6941,1.6759,1.6733,1.6447,1.5982,1.5349,1.3925,1.2942,1.2344,1.2887,1.2769,1.215,1.1162,0.9513,0.7744,0.7288,0.6756,0.63,0.63,0.63,0.63,0.63,0.5983,0.5473,0.4844,0.3595,0.2306,0.1759,0.0775,0.0,0.0,0.0,0.0,0.0,0.0,0.0,0.0,0.0,0.0,0.0,0.0,0.0211,0.0809,0.0879,0.0879,0.0879,0.0035,-0.078,-0.1261,-0.2631,-0.3672,-0.4159,-0.5176,-0.5791,-0.5812,-0.5815,-0.5851,-0.5928,-0.5851,-0.5832,-0.5904,-0.5909,-0.6233,-0.6847,-0.8435,-0.9119,-0.9055,-1.1174,-1.2111,-1.2118,-1.2245,-1.2305,-1.2114,-0.989,-0.7893,-0.63,-0.63,-0.63,-0.63,-0.63,-0.63,-0.5954]}]]